[[{"header":{"parameterUnit":"m.s-1","parameterCategory":1,"la1":30.6,"la2":28.766,"lo1":-90.7593,"lo2":-88.6598,"dy":0.0162,"dx":0.0183,"nx":116,"ny":114,"refTime":"2023-06-26T12:00:00:Z","depth":0,"parameterNumber":2,"parameterNumberName":"U-component_of_WINDS"},"data":[0.0,0.0,0.0,0.0,0.0,0.0,0.0,0.0,0.0,0.0,0.0,0.0,0.0,0.0,0.0,0.0,0.0,0.0,0.0,0.0,0.0,0.0,0.0,0.0,0.0,0.0,0.0,0.0,0.0,0.0,0.0,0.0,0.0,0.0,0.0,0.0,0.0,0.0,0.0,0.0,0.0,0.0,0.0,0.0,0.0,0.0,0.0,0.0,0.0,0.0,0.0,0.0,0.0,0.0,0.0,0.0,0.0,0.0,0.0,0.0,0.0,0.0,0.0,0.0,0.0,0.0,0.0,0.0,0.0,0.0,0.0,0.0,0.0,0.0,0.0,0.0,0.0,0.0,0.0,0.0,0.0,0.0,0.0,0.0,0.0,0.0,0.0,0.0,0.0,0.0,0.0,0.0,0.0,0.0,0.0,0.0,0.0,0.0,0.0,0.0,0.0,0.0,0.0,0.0,0.0,0.0,0.0,0.0,0.0,0.0,0.0,0.0,0.0,0.0,0.0,0.0,0.0,0.0,0.0,0.0,0.0,0.0,0.0,0.0,0.0,0.0,0.0,0.0,0.0,0.0,0.0,0.0,0.0,0.0,0.0,0.0,0.0,0.0,0.0,0.0,0.0,0.0,0.0,0.0,0.0,0.0,0.0,0.0,0.0,0.0,0.0,0.0,0.0,0.0,0.0,0.0,0.0,0.0,0.0,0.0,0.0,0.0,0.0,0.0,0.0,0.0,0.0,0.0,0.0,0.0,0.0,0.0,0.0,0.0,0.0,0.0,0.0,0.0,0.0,0.0,0.0,0.0,0.0,0.0,0.0,0.0,0.0,0.0,0.0,0.0,0.0,0.0,0.0,0.0,0.0,0.0,0.0,0.0,0.0,0.0,0.0,0.0,0.0,0.0,0.0,0.0,0.0,0.0,0.0,0.0,0.0,0.0,0.0,0.0,0.0,0.0,0.0,0.0,0.0,0.0,0.0,0.0,0.0,0.0,0.0,0.0,0.0,0.0,0.0,0.0,0.0,0.0,0.0,0.0,0.0,0.0,0.0,0.0,0.0,0.0,0.0,0.0,0.0,0.0,0.0,0.0,0.0,0.0,0.0,0.0,0.0,0.0,0.0,0.0,0.0,0.0,0.0,0.0,0.0,0.0,0.0,0.0,0.0,0.0,0.0,0.0,0.0,0.0,0.0,0.0,0.0,0.0,0.0,0.0,0.0,0.0,0.0,0.0,0.0,0.0,0.0,0.0,0.0,0.0,0.0,0.0,0.0,0.0,0.0,0.0,0.0,0.0,0.0,0.0,0.0,0.0,0.0,0.0,0.0,0.0,0.0,0.0,0.0,0.0,0.0,0.0,0.0,0.0,0.0,0.0,0.0,0.0,0.0,0.0,0.0,0.0,0.0,0.0,0.0,0.0,0.0,0.0,0.0,0.0,0.0,0.0,0.0,0.0,0.0,0.0,0.0,0.0,0.0,0.0,0.0,0.0,0.0,0.0,0.0,0.0,0.0,0.0,0.0,0.0,0.0,0.0,0.0,0.0,0.0,0.0,0.0,0.0,0.0,0.0,0.0,0.0,0.0,0.0,0.0,0.0,0.0,0.0,0.0,0.0,0.0,0.0,0.0,0.0,0.0,0.0,0.0,0.0,0.0,0.0,0.0,0.0,0.0,0.0,0.0,0.0,0.0,0.0,0.0,0.0,0.0,0.0,0.0,0.0,0.0,0.0,0.0,0.0,0.0,0.0,0.0,0.0,0.0,0.0,0.0,0.0,0.0,0.0,0.0,0.0,0.0,0.0,0.0,0.0,0.0,0.0,0.0,0.0,0.0,0.0,0.0,0.0,0.0,0.0,0.0,0.0,0.0,0.0,0.0,0.0,0.0,0.0,0.0,0.0,0.0,0.0,0.0,0.0,0.0,0.0,0.0,0.0,0.0,0.0,0.0,0.0,0.0,0.0,0.0,0.0,0.0,0.0,0.0,0.0,0.0,0.0,0.0,0.0,0.0,0.0,0.0,0.0,0.0,0.0,0.0,0.0,0.0,0.0,0.0,0.0,0.0,0.0,0.0,0.0,0.0,0.0,0.0,0.0,0.0,0.0,0.0,0.0,0.0,0.0,0.0,0.0,0.0,0.0,0.0,0.0,0.0,0.0,0.0,0.0,0.0,0.0,0.0,0.0,0.0,0.0,0.0,0.0,0.0,0.0,0.0,0.0,0.0,0.0,0.0,0.0,0.0,0.0,0.0,0.0,0.0,0.0,0.0,0.0,0.0,0.0,0.0,0.0,0.0,0.0,0.0,0.0,0.0,0.0,0.0,0.0,0.0,0.0,0.0,0.0,0.0,0.0,0.0,0.0,0.0,0.0,0.0,0.0,0.0,0.0,0.0,0.0,0.0,0.0,0.0,0.0,0.0,0.0,0.0,0.0,0.0,0.0,0.0,0.0,0.0,0.0,0.0,0.0,0.0,0.0,0.0,0.0,0.0,0.0,0.0,0.0,0.0,0.0,0.0,0.0,0.0,0.0,0.0,0.0,0.0,0.0,0.0,0.0,0.0,0.0,0.0,0.0,0.0,0.0,0.0,0.0,0.0,0.0,0.0,0.0,0.0,0.0,0.0,0.0,0.0,0.0,0.0,0.0,0.0,0.0,0.0,0.0,0.0,0.0,0.0,0.0,0.0,0.0,0.0,0.0,0.0,0.0,0.0,0.0,0.0,0.0,0.0,0.0,0.0,0.0,0.0,0.0,0.0,0.0,0.0,0.0,0.0,0.0,0.0,0.0,0.0,0.0,0.0,0.0,0.0,0.0,0.0,0.0,0.0,0.0,0.0,0.0,0.0,0.0,0.0,0.0,0.0,0.0,0.0,0.0,0.0,0.0,0.0,0.0,0.0,0.0,0.0,0.0,0.0,0.0,0.0,0.0,0.0,0.0,0.0,0.0,0.0,0.0,0.0,0.0,0.0,0.0,0.0,0.0,0.0,0.0,0.0,0.0,0.0,0.0,0.0,0.0,0.0,0.0,0.0,0.0,0.0,0.0,0.0,0.0,0.0,0.0,0.0,0.0,0.0,0.0,0.0,0.0,0.0,0.0,0.0,0.0,0.0,0.0,0.0,0.0,0.0,0.0,0.0,0.0,0.0,0.0,0.0,0.0,0.0,0.0,0.0,0.0,0.0,0.0,0.0,0.0,0.0,0.0,0.0,0.0,0.0,0.0,0.0,0.0,0.0,0.0,0.0,0.0,0.0,0.0,0.0,0.0,0.0,0.0,0.0,0.0,0.0,0.0,0.0,0.0,0.0,0.0,0.0,0.0,0.0,0.0,0.0,0.0,0.0,0.0,0.0,0.0,0.0,0.0,0.0,0.0,0.0,0.0,0.0,0.0,0.0,0.0,0.0,0.0,0.0,0.0,0.0,0.0,0.0,0.0,0.0,0.0,0.0,0.0,0.0,0.0,0.0,0.0,0.0,0.0,0.0,0.0,0.0,0.0,0.0,0.0,0.0,0.0,0.0,0.0,0.0,0.0,0.0,0.0,0.0,0.0,0.0,0.0,0.0,0.0,0.0,0.0,0.0,0.0,0.0,0.0,0.0,0.0,0.0,0.0,0.0,0.0,0.0,0.0,0.0,0.0,0.0,0.0,0.0,0.0,0.0,0.0,0.0,0.0,0.0,0.0,0.0,0.0,0.0,0.0,0.0,0.0,0.0,0.0,0.0,0.0,0.0,0.0,0.0,0.0,0.0,0.0,0.0,0.0,0.0,0.0,0.0,0.0,0.0,0.0,0.0,0.0,0.0,0.0,0.0,0.0,0.0,0.0,0.0,0.0,0.0,0.0,0.0,0.0,0.0,0.0,0.0,0.0,0.0,0.0,0.0,0.0,0.0,0.0,0.0,0.0,0.0,0.0,0.0,0.0,0.0,0.0,0.0,0.0,0.0,0.0,0.0,0.0,0.0,0.0,0.0,0.0,0.0,0.0,0.0,0.0,0.0,0.0,0.0,0.0,0.0,0.0,0.0,0.0,0.0,0.0,0.0,0.0,0.0,0.0,0.0,0.0,0.0,0.0,0.0,0.0,0.0,0.0,0.0,0.0,0.0,0.0,0.0,0.0,0.0,0.0,0.0,0.0,0.0,0.0,0.0,0.0,0.0,0.0,0.0,0.0,0.0,0.0,0.0,0.0,0.0,0.0,0.0,0.0,0.0,0.0,0.0,0.0,0.0,0.0,0.0,0.0,0.0,0.0,0.0,0.0,0.0,0.0,0.0,0.0,0.0,0.0,0.0,0.0,0.0,0.0,0.0,0.0,0.0,0.0,0.0,0.0,0.0,0.0,0.0,0.0,0.0,0.0,0.0,0.0,0.0,0.0,0.0,0.0,0.0,0.0,0.0,0.0,0.0,0.0,0.0,0.0,0.0,0.0,0.0,0.0,0.0,0.0,0.0,0.0,0.0,0.0,0.0,0.0,0.0,0.0,0.0,0.0,0.0,0.0,0.0,0.0,0.0,0.0,0.0,0.0,0.0,0.0,0.0,0.0,0.0,0.0,0.0,0.0,0.0,0.0,0.0,0.0,0.0,0.0,0.0,0.0,0.0,0.0,0.0,0.0,0.0,0.0,0.0,0.0,0.0,0.0,0.0,0.0,0.0,0.0,0.0,0.0,0.0,0.0,0.0,0.0,0.0,0.0,0.0,0.0,0.0,0.0,0.0,0.0,0.0,0.0,0.0,0.0,0.0,0.0,0.0,0.0,0.0,0.0,0.0,0.0,0.0,0.0,0.0,0.0,0.0,0.0,0.0,0.0,0.0,0.0,0.0,0.0,0.0,0.0,0.0,0.0,0.0,0.0,0.0,0.0,0.0,0.0,0.0,0.0,0.0,0.0,0.0,0.0,0.0,0.0,0.0,0.0,0.0,0.0,0.0,0.0,0.0,0.0,0.0,0.0,0.0,0.0,0.0,0.0,0.0,0.0,0.0,0.0,0.0,0.0,0.0,0.0,0.0,0.0,0.0,0.0,0.0,0.0,0.0,0.0,0.0,0.0,0.0,0.0,0.0,0.0,0.0,0.0,0.0,0.0,0.0,0.0,0.0,0.0,0.0,0.0,0.0,0.0,0.0,0.0,0.0,0.0,0.0,0.0,0.0,0.0,0.0,0.0,0.0,0.0,0.0,0.0,0.0,0.0,0.0,0.0,0.0,0.0,0.0,0.0,0.0,0.0,0.0,0.0,0.0,0.0,0.0,0.0,0.0,0.0,0.0,0.0,0.0,0.0,0.0,0.0,0.0,0.0,0.0,0.0,0.0,0.0,0.0,0.0,0.0,0.0,0.0,0.0,0.0,0.0,0.0,0.0,0.0,0.0,0.0,0.0,0.0,0.0,0.0,0.0,0.0,0.0,0.0,0.0,0.0,0.0,0.0,0.0,0.0,0.0,0.0,0.0,0.0,0.0,0.0,0.0,0.0,0.0,0.0,0.0,0.0,0.0,0.0,0.0,0.0,0.0,0.0,0.0,0.0,0.0,0.0,0.0,0.0,0.0,0.0,0.0,0.0,0.0,0.0,0.0,0.0,0.0,0.0,0.0,0.0,0.0,0.0,0.0,0.0,0.0,0.0,0.0,0.0,0.0,0.0,0.0,0.0,0.0,0.0,0.0,0.0,0.0,0.0,0.0,0.0,0.0,0.0,0.0,0.0,0.0,0.0,0.0,0.0,0.0,0.0,0.0,0.0,0.0,0.0,0.0,0.0,0.0,0.0,0.0,0.0,0.0,0.0,0.0,0.0,0.0,0.0,0.0,0.0,0.0,0.0,0.0,0.0,0.0,0.0,0.0,0.0,0.0,0.0,0.0,0.0,0.0,0.0,0.0,0.0,0.0,0.0,0.0,0.0,0.0,0.0,0.0,0.0,0.0,0.0,0.0,0.0,0.0,0.0,0.0,0.0,0.0,0.0,0.0,0.0,0.0,0.0,0.0,0.0,0.0,0.0,0.0,0.0,0.0,0.0,0.0,0.0,0.0,0.0,0.0,0.0,0.0,0.0,0.0,0.0,0.0,0.0,0.0,0.0,0.0,0.0,0.0,0.0,0.0,0.0,0.0,0.0,0.0,0.0,0.0,-1.3901,-1.3901,0.0,0.0,0.0,0.0,0.0,0.0,0.0,0.0,0.0,0.0,0.0,0.0,0.0,0.0,0.0,0.0,0.0,0.0,0.0,0.0,0.0,0.0,0.0,0.0,0.0,0.0,0.0,0.0,0.0,0.0,0.0,0.0,0.0,0.0,0.0,0.0,0.0,0.0,0.0,0.0,0.0,0.0,0.0,0.0,0.0,0.0,0.0,0.0,0.0,0.0,0.0,0.0,0.0,0.0,0.0,0.0,0.0,0.0,0.0,0.0,0.0,0.0,0.0,0.0,0.0,0.0,0.0,0.0,0.0,0.0,0.0,0.0,0.0,0.0,0.0,0.0,0.0,0.0,0.0,0.0,0.0,0.0,0.0,0.0,0.0,0.0,0.0,0.0,0.0,0.0,0.0,0.0,0.0,0.0,0.0,0.0,0.0,0.0,0.0,0.0,0.0,0.0,0.0,0.0,0.0,0.0,0.0,0.0,0.0,0.0,0.0,0.0,0.0,0.0,-1.4148,-1.4088,0.0,0.0,0.0,0.0,0.0,0.0,0.0,0.0,0.0,0.0,0.0,0.0,0.0,0.0,0.0,0.0,0.0,0.0,0.0,0.0,0.0,0.0,0.0,0.0,0.0,0.0,0.0,0.0,0.0,0.0,0.0,0.0,0.0,0.0,0.0,0.0,0.0,0.0,0.0,0.0,0.0,0.0,0.0,0.0,0.0,0.0,0.0,0.0,0.0,0.0,0.0,0.0,0.0,0.0,0.0,0.0,0.0,0.0,0.0,0.0,0.0,0.0,0.0,0.0,0.0,0.0,0.0,0.0,0.0,0.0,0.0,0.0,0.0,0.0,0.0,0.0,0.0,0.0,0.0,0.0,0.0,0.0,0.0,0.0,0.0,0.0,0.0,0.0,0.0,0.0,0.0,0.0,0.0,0.0,0.0,0.0,0.0,0.0,0.0,0.0,0.0,0.0,0.0,0.0,0.0,0.0,0.0,0.0,-1.4242,-1.4242,-1.4249,-1.4489,-1.4596,-1.4583,-1.4342,-1.4242,-1.4285,-1.4448,0.0,0.0,0.0,0.0,0.0,0.0,0.0,0.0,0.0,0.0,0.0,0.0,0.0,0.0,0.0,0.0,0.0,0.0,0.0,0.0,0.0,0.0,0.0,0.0,0.0,0.0,0.0,0.0,0.0,0.0,0.0,0.0,0.0,0.0,0.0,0.0,0.0,0.0,-1.2519,-1.3208,-1.3135,-1.2482,-1.2482,0.0,0.0,0.0,0.0,0.0,0.0,0.0,0.0,0.0,0.0,0.0,0.0,0.0,0.0,0.0,0.0,0.0,0.0,0.0,0.0,0.0,0.0,0.0,0.0,0.0,0.0,0.0,0.0,0.0,0.0,0.0,0.0,0.0,0.0,0.0,0.0,0.0,0.0,0.0,0.0,0.0,0.0,0.0,-1.5335,-1.4744,0.0,0.0,0.0,0.0,0.0,0.0,0.0,0.0,0.0,0.0,0.0,0.0,0.0,-1.5244,-1.4402,-1.4442,-1.4589,-1.4894,-1.4894,-1.4894,-1.4894,-1.4934,-1.4948,-1.4948,-1.4908,0.0,-1.4932,-1.587,0.0,0.0,0.0,0.0,0.0,0.0,0.0,0.0,0.0,0.0,0.0,0.0,0.0,0.0,0.0,0.0,0.0,0.0,0.0,0.0,0.0,0.0,0.0,0.0,0.0,0.0,0.0,0.0,0.0,0.0,0.0,0.0,0.0,0.0,0.0,0.0,-1.4378,-1.3491,-1.3091,-1.2989,-1.2989,-1.3098,-1.3098,-1.3025,-1.2952,-1.3491,0.0,0.0,0.0,0.0,0.0,0.0,0.0,0.0,0.0,0.0,0.0,0.0,0.0,0.0,0.0,0.0,0.0,0.0,0.0,0.0,0.0,0.0,0.0,0.0,0.0,0.0,0.0,0.0,0.0,0.0,0.0,0.0,0.0,0.0,0.0,0.0,0.0,0.0,0.0,-1.6854,-1.6707,-1.6464,-1.6312,-1.6417,0.0,0.0,0.0,0.0,0.0,0.0,0.0,0.0,0.0,-1.6282,-1.6872,-1.6745,-1.5784,-1.5784,-1.5518,-1.5008,-1.5008,-1.5487,-1.6323,-1.5732,-1.5949,-1.6807,-1.6245,-1.5945,-1.5939,-1.5756,-1.608,-1.6595,0.0,0.0,0.0,0.0,-1.5732,-1.5651,0.0,0.0,0.0,0.0,0.0,0.0,0.0,0.0,0.0,0.0,0.0,0.0,0.0,0.0,0.0,-1.6824,0.0,0.0,0.0,0.0,0.0,0.0,0.0,0.0,0.0,0.0,0.0,0.0,-1.4807,-1.4307,-1.4063,-1.3622,-1.3622,-1.4099,-1.4343,-1.3911,-1.3091,-1.3774,-1.4665,0.0,0.0,0.0,0.0,0.0,0.0,0.0,0.0,0.0,0.0,0.0,0.0,0.0,0.0,0.0,0.0,0.0,0.0,0.0,0.0,0.0,0.0,0.0,0.0,0.0,0.0,0.0,0.0,0.0,0.0,0.0,0.0,0.0,0.0,0.0,0.0,0.0,0.0,-1.7096,-1.7237,-1.7684,-1.6748,-1.6508,0.0,0.0,0.0,0.0,0.0,0.0,-1.7111,-1.6896,-1.7036,-1.7673,-1.828,-1.8292,-1.7544,-1.7325,-1.6748,-1.595,-1.595,-1.6384,-1.7208,-1.7112,-1.7581,-1.8401,-1.7963,-1.7768,-1.7647,-1.6088,-1.5897,-1.6555,-1.6081,-1.6211,-1.6555,-1.6081,-1.5681,-1.5411,0.0,0.0,0.0,0.0,0.0,0.0,0.0,0.0,0.0,0.0,0.0,0.0,0.0,0.0,-1.6843,-1.7314,-1.7734,-1.7988,0.0,0.0,0.0,0.0,0.0,0.0,0.0,0.0,0.0,-1.6532,-1.6498,-1.6,-1.5128,-1.6,-1.593,-1.5163,-1.607,-1.593,-1.5057,-1.5092,-1.5685,-1.6559,0.0,0.0,0.0,0.0,0.0,0.0,0.0,0.0,0.0,0.0,0.0,0.0,0.0,0.0,0.0,0.0,0.0,0.0,0.0,0.0,0.0,0.0,0.0,0.0,0.0,0.0,0.0,0.0,0.0,0.0,0.0,0.0,0.0,0.0,0.0,0.0,0.0,0.0,0.0,-1.7162,-1.6382,0.0,0.0,0.0,0.0,-1.7804,-1.88,-1.8573,-1.6739,-1.7813,-1.7994,-1.6908,-1.843,-1.936,-1.9567,-1.8676,-1.8341,-1.8502,-1.8502,-1.7887,-1.6833,-1.9402,-1.9854,-1.8773,-2.0031,-2.057,-2.0369,-1.7704,-1.6663,-1.6812,-1.7879,-1.7682,-1.6812,-1.7929,-1.7584,-1.662,0.0,0.0,0.0,0.0,0.0,0.0,0.0,0.0,0.0,0.0,0.0,0.0,0.0,-1.675,-1.7217,-1.7406,-1.7764,-1.8008,-1.8008,0.0,0.0,0.0,0.0,0.0,0.0,0.0,-1.6922,-1.6602,-1.6,-1.5825,-1.6105,-1.5834,-1.5825,-1.6105,-1.6454,-1.6886,-1.73,-1.5831,-1.572,-1.6638,-1.7054,-1.7763,0.0,0.0,0.0,0.0,0.0,0.0,0.0,0.0,0.0,0.0,0.0,0.0,0.0,0.0,0.0,0.0,0.0,0.0,0.0,0.0,0.0,0.0,0.0,0.0,0.0,0.0,0.0,0.0,0.0,0.0,0.0,0.0,0.0,0.0,0.0,0.0,0.0,-1.9295,-1.8461,0.0,-1.969,-1.9538,-1.9366,-1.9333,-1.9107,-1.8659,-1.7932,-1.7982,-1.8587,-1.9785,-2.0008,-2.0581,-2.1567,-2.0369,-1.9444,-1.8697,-1.7825,-1.8166,-1.9586,-1.9701,-2.0563,-2.1924,-2.152,-2.1362,-2.1213,-1.9327,-1.8879,-1.9367,-1.9805,-1.9172,-1.8163,-1.9513,-1.9131,-1.7973,0.0,0.0,0.0,0.0,0.0,0.0,0.0,0.0,0.0,0.0,0.0,-1.6153,-1.6279,-1.6943,-1.7441,-1.7578,-1.7852,-1.8008,-1.8008,0.0,0.0,0.0,0.0,0.0,0.0,-1.707,-1.707,-1.707,-1.6437,-1.6472,-1.707,-1.6437,-1.6543,-1.7265,-1.7265,-1.7868,-1.8731,-1.7233,-1.6937,-1.7551,-1.7933,-1.8474,-1.9114,0.0,0.0,0.0,0.0,0.0,0.0,0.0,0.0,0.0,0.0,0.0,0.0,0.0,0.0,0.0,0.0,0.0,0.0,0.0,0.0,0.0,0.0,0.0,0.0,0.0,0.0,0.0,0.0,0.0,0.0,0.0,0.0,0.0,0.0,-1.9461,-1.9457,-2.0654,-1.9525,-1.9399,-2.1244,-2.046,-2.0032,-2.0515,-2.0311,-1.9904,-1.9348,-1.9741,-2.0562,-2.1817,-2.2019,-2.2548,-2.3429,-2.225,-2.099,-1.9709,-1.9269,-1.9626,-2.0638,-2.0704,-2.1787,-2.3633,-2.2767,-2.2617,-2.2976,-2.2064,-2.1977,-2.2311,-2.0933,-2.0105,-1.9766,-2.0253,-2.0105,-1.9709,0.0,0.0,0.0,0.0,0.0,0.0,0.0,0.0,0.0,0.0,-1.6276,-1.6281,-1.6677,-1.7139,-1.7568,-1.7978,-1.8008,-1.8008,-1.8008,-1.8008,0.0,0.0,0.0,0.0,-1.8008,-1.8008,-1.8008,-1.8008,-1.8008,-1.8018,-1.8027,-1.8027,-1.8217,-1.8617,-1.8617,-1.8896,-1.9307,-1.9307,-1.9316,-1.9365,-1.9756,-1.9912,-1.9961,0.0,0.0,0.0,0.0,0.0,0.0,0.0,0.0,0.0,0.0,0.0,0.0,0.0,0.0,0.0,0.0,0.0,0.0,0.0,0.0,0.0,0.0,0.0,0.0,0.0,0.0,0.0,0.0,0.0,0.0,0.0,0.0,0.0,-2.0625,-1.9736,-1.9617,-2.1041,-1.9406,-1.9143,-2.1709,-2.095,-2.061,-2.1364,-2.2539,-2.2576,-2.1007,-2.3074,-2.3858,-2.2717,-2.4221,-2.5088,-2.5135,-2.4198,-2.3026,-2.1819,-2.3044,-2.2291,-1.9864,-2.2501,-2.3777,-2.3777,-2.3777,-2.4548,-2.5732,-2.5684,-2.5684,-2.5362,-2.1363,-2.059,-2.16,-2.029,-2.059,-2.1702,0.0,0.0,0.0,0.0,0.0,0.0,0.0,0.0,0.0,0.0,-1.6392,-1.6719,-1.7158,-1.7588,-1.7881,-1.7998,-1.8008,-1.8008,-1.8008,0.0,0.0,0.0,0.0,0.0,-1.8008,-1.8008,-1.8008,-1.8008,-1.8008,-1.8164,-1.8432,-1.8432,-1.8691,-1.9111,-1.9111,-1.9346,-1.9746,-1.9746,-1.9922,-2.0233,-1.999,-1.9912,-1.9961,0.0,0.0,0.0,0.0,0.0,0.0,0.0,0.0,0.0,0.0,0.0,0.0,0.0,0.0,0.0,0.0,0.0,0.0,0.0,0.0,0.0,0.0,0.0,0.0,0.0,0.0,0.0,0.0,0.0,0.0,0.0,-2.1055,-2.1055,-2.1055,-2.0766,-2.088,-2.1619,-2.1186,-2.1347,-2.2691,-2.2524,-2.2633,-2.3475,-2.388,-2.3886,-2.3439,-2.3399,-2.3709,-2.4402,-2.4216,-2.4538,-2.5557,-2.4298,-2.3677,-2.3591,-2.298,-2.2971,-2.354,-2.4273,-2.5173,-2.6075,-2.6075,-2.6297,-2.6559,-2.5599,-2.5761,-2.6451,-2.4694,-2.3692,-2.3226,-2.3791,-2.3026,-2.1702,0.0,0.0,0.0,0.0,0.0,0.0,0.0,0.0,0.0,0.0,-1.6455,-1.6863,-1.7334,-1.7764,-1.8008,-1.8008,-1.8008,-1.8008,-1.8008,0.0,0.0,0.0,0.0,-1.8008,-1.8008,-1.8008,-1.8008,-1.8008,-1.8184,-1.8364,-1.8607,-1.8792,-1.9141,-1.9551,-1.9551,-1.9785,-2.0185,-2.0185,-2.0332,-2.0586,-2.0283,-2.0185,-2.0215,-2.0507,-2.0605,-2.0605,-2.0605,-2.0605,-2.0605,-2.0605,0.0,0.0,0.0,0.0,0.0,0.0,0.0,0.0,0.0,0.0,0.0,0.0,0.0,0.0,0.0,0.0,0.0,0.0,0.0,0.0,0.0,0.0,0.0,0.0,-2.1346,-2.1572,-2.1707,-2.158,-2.1728,-2.2344,-2.2422,-2.2797,-2.3603,-2.3682,-2.3955,-2.4639,-2.4687,-2.4775,-2.4961,-2.442,-2.4505,-2.5352,-2.5009,-2.5237,-2.6006,-2.5408,-2.4923,-2.4573,-2.4376,-2.4553,-2.502,-2.502,-2.5722,-2.6961,-2.642,-2.6471,-2.6961,-2.6153,-2.6317,-2.6912,0.0,0.0,0.0,0.0,-2.4802,-2.285,0.0,0.0,0.0,0.0,0.0,0.0,0.0,0.0,0.0,0.0,0.0,-1.6882,-1.7402,-1.7793,-1.8008,-1.8008,-1.8008,-1.8008,0.0,0.0,0.0,-1.8008,-1.8008,-1.8008,-1.8008,-1.8008,-1.8008,-1.8008,-1.8393,-1.8627,-1.8685,-1.915,-1.959,-1.999,-1.999,-2.0205,-2.0605,-2.0605,-2.0605,-2.0605,-2.0605,-2.0605,-2.0605,-2.0605,-2.0605,-2.0605,-2.0605,-2.0605,-2.0605,-2.0605,0.0,0.0,0.0,0.0,0.0,0.0,0.0,0.0,0.0,0.0,0.0,0.0,0.0,0.0,0.0,0.0,0.0,0.0,0.0,0.0,0.0,0.0,0.0,0.0,-2.1709,-2.2119,-2.2588,-2.2334,-2.2383,-2.3081,-2.3271,-2.3658,-2.4414,-2.4492,-2.4668,-2.5107,-2.5194,-2.5322,-2.5664,-2.5732,0.0,0.0,0.0,-2.6455,-2.6455,-2.6826,-2.6448,-2.531,-2.6496,-2.6464,-2.5374,-2.5374,-2.6017,-2.7107,-2.5914,-2.6079,-2.7158,-2.7158,-2.7158,-2.7036,-2.5759,-2.5938,-2.7012,-2.7012,-2.5865,-2.4545,0.0,0.0,0.0,0.0,0.0,0.0,0.0,0.0,0.0,-1.749,-1.7026,-1.6999,-1.7803,-1.7959,-1.8008,-1.8008,-1.8008,-1.8008,0.0,0.0,-1.8008,-1.8008,-1.8008,-1.8008,-1.8008,-1.8008,-1.8008,-1.8008,-1.8393,-1.8783,-1.917,-1.959,-2.0019,-2.0478,-2.0478,-2.0527,-2.0605,-2.0605,-2.0605,-2.0605,-2.0605,-2.0605,-2.0605,-2.0605,-2.0605,-2.0605,-2.0605,-2.0605,-2.0605,-2.0605,-2.0605,-2.0605,-2.0605,0.0,0.0,0.0,0.0,0.0,0.0,0.0,0.0,0.0,0.0,0.0,0.0,0.0,0.0,0.0,0.0,0.0,0.0,0.0,0.0,-2.2217,-2.2334,-2.2656,-2.3437,-2.3477,-2.3486,-2.3643,-2.3965,-2.4375,-2.4893,-2.4941,-2.5127,-2.5528,-2.5557,-2.5596,-2.5684,-2.6074,-2.626,-2.626,-2.667,-2.6894,-2.6894,-2.6973,-2.7085,-2.7155,-2.7425,0.0,-2.7656,-2.7656,-2.7815,-2.8047,-2.7762,-2.7815,-2.8047,-2.8047,-2.8047,-2.7978,-2.7008,-2.6746,-2.7012,-2.7012,-2.6096,-2.4911,0.0,0.0,0.0,0.0,0.0,0.0,0.0,0.0,0.0,0.0,-1.7626,-1.7945,-1.7978,-1.8395,-1.8462,-1.8042,-1.8008,0.0,0.0,-1.8008,-1.8008,-1.8008,-1.8008,-1.8008,-1.8008,-1.8008,-1.8008,-1.8008,-1.8393,-1.8822,-1.9297,-1.9717,-2.0146,-2.0605,-2.0605,-2.0605,-2.0605,-2.0605,-2.0605,-2.0605,-2.0605,-2.0605,-2.0605,-2.0605,-2.0605,-2.0605,-2.0605,-2.0605,-2.0605,-2.0605,-2.0605,-2.0605,-2.0605,-2.0605,-2.0605,0.0,0.0,0.0,0.0,0.0,0.0,0.0,0.0,0.0,0.0,0.0,0.0,0.0,0.0,-2.1562,0.0,0.0,-2.2334,-2.2773,-2.3018,-2.3379,-2.4014,-2.4287,-2.4434,-2.4434,-2.4619,-2.4912,-2.5361,-2.54,-2.5498,-2.5674,-2.5693,-2.5781,-2.6055,-2.6269,-2.6484,-2.6699,-2.7119,-2.7344,-2.7344,-2.7549,-2.7764,-2.7978,-2.7978,-2.8086,-2.8291,-2.8291,-2.8291,-2.8291,-2.8291,-2.8291,-2.8291,-2.8291,-2.8291,-2.8252,-2.7822,-2.7656,-2.7656,-2.7656,-2.7083,-2.6361,0.0,0.0,0.0,0.0,0.0,0.0,0.0,0.0,0.0,0.0,-1.828,-1.8819,-1.8069,-1.8787,-1.8944,0.0,0.0,0.0,0.0,-1.8008,-1.8008,-1.8008,-1.8008,-1.8008,-1.8008,-1.8008,-1.8008,-1.8008,-1.8393,-1.8783,-1.917,-1.9678,-2.0098,-2.0478,-2.0566,-2.0605,-2.0605,-2.0605,-2.0605,-2.0605,-2.0605,-2.0605,-2.0605,-2.0605,-2.0605,-2.0605,-2.0605,-2.0605,-2.0605,-2.0605,-2.0605,-2.0605,-2.0605,-2.0605,-2.0605,-2.0605,-2.0605,0.0,0.0,0.0,0.0,0.0,0.0,0.0,0.0,0.0,-2.1787,-2.1395,-2.1709,-2.2012,-2.2012,-2.2422,-2.2871,-2.3276,-2.3633,-2.4062,-2.4482,-2.4844,-2.5145,-2.5233,-2.5195,-2.5342,-2.5654,-2.5693,-2.5723,-2.581,-2.5859,-2.6055,-2.6484,-2.6592,-2.6787,-2.7129,-2.7559,-2.7836,-2.7836,-2.8125,-2.8291,-2.8291,-2.8291,-2.8291,-2.8291,-2.8291,-2.8291,-2.8291,-2.8291,-2.8291,-2.8291,-2.8291,-2.8291,-2.8291,-2.8291,-2.8291,-2.8291,-2.8291,-2.8076,-2.7836,0.0,0.0,0.0,0.0,0.0,0.0,0.0,0.0,0.0,0.0,0.0,0.0,0.0,0.0,0.0,0.0,0.0,0.0,-1.8008,-1.8008,-1.8008,-1.8008,-1.8008,-1.8008,-1.8008,-1.8008,-1.8008,-1.8008,-1.8393,-1.8627,-1.8695,-1.9541,-1.9941,-2.0,-2.0391,-2.0605,-2.0605,-2.0605,-2.0605,-2.0605,-2.0605,-2.0605,-2.0605,-2.0605,-2.0605,-2.0605,-2.0605,-2.0605,-2.0605,-2.0605,-2.0605,-2.0605,-2.0605,-2.0605,-2.0605,-2.0605,0.0,-2.0605,-2.0605,-2.0605,-2.0605,-2.0605,-2.0898,-2.1181,0.0,0.0,-2.1875,-2.1816,-2.2148,-2.2441,-2.2441,-2.3096,-2.3662,-2.3711,-2.4072,-2.4492,-2.4979,-2.5086,-2.5215,-2.5567,-2.5615,-2.5635,-2.5684,-2.5693,-2.5849,-2.6289,-2.6318,-2.6504,-2.6924,-2.7314,-2.7601,-2.764,-2.7998,-2.8223,-2.8223,-2.8271,-2.8291,-2.8291,-2.8291,-2.8291,-2.8291,-2.8291,-2.8291,-2.8291,-2.8291,-2.8291,-2.8291,-2.8291,-2.8291,-2.8291,-2.8291,-2.8291,-2.8291,-2.8291,-2.8262,-2.8223,0.0,0.0,0.0,0.0,0.0,0.0,0.0,0.0,0.0,0.0,0.0,0.0,0.0,0.0,0.0,0.0,0.0,0.0,-1.8042,-1.8008,-1.8008,-1.8008,-1.8008,-1.8008,-1.8008,-1.8008,-1.8008,-1.8008,-1.8184,-1.8364,-1.8607,-1.8968,-1.9397,-1.9922,-2.0107,-2.0322,-2.0605,-2.0605,-2.0605,-2.0605,-2.0605,-2.0605,-2.0605,-2.0605,-2.0605,-2.0605,-2.0605,-2.0605,0.0,0.0,-2.0605,-2.0605,-2.0605,-2.0605,-2.0605,-2.0605,-2.0605,0.0,-2.0605,-2.0605,-2.0664,0.0,-2.1289,-2.1611,-2.1611,-2.2129,-2.2549,-2.2305,-2.2588,-2.2838,-2.2838,-2.3379,-2.3867,0.0,-2.4512,-2.4951,-2.54,-2.5459,-2.5527,-2.5664,-2.5693,-2.5693,-2.5693,-2.5693,-2.5869,-2.6357,-2.6387,-2.668,-2.7363,-2.7568,-2.7836,-2.8027,-2.8203,-2.8291,-2.8291,-2.8291,-2.8291,-2.8291,-2.8291,-2.8291,-2.8291,-2.8291,-2.8291,-2.8291,-2.8291,-2.8291,-2.8291,-2.8291,-2.8291,-2.8291,-2.8291,-2.8291,-2.8291,-2.8291,-2.8291,-2.8291,0.0,0.0,0.0,0.0,0.0,0.0,0.0,0.0,0.0,0.0,0.0,0.0,0.0,0.0,0.0,0.0,0.0,0.0,0.0,-1.8008,-1.8008,-1.8008,-1.8008,-1.8008,-1.8008,-1.8008,-1.8008,-1.8008,-1.8008,-1.8164,-1.8432,-1.8549,-1.8929,-1.9533,-1.9805,-2.0088,-2.0429,-2.0556,-2.0605,-2.0605,-2.0605,-2.0605,-2.0605,-2.0605,-2.0605,-2.0605,-2.0605,-2.0605,0.0,0.0,-2.0605,-2.0605,-2.0605,-2.0605,-2.0605,-2.0605,-2.0693,-2.0752,-2.0752,-2.0879,0.0,-2.1338,-2.1738,-2.206,-2.206,-2.2617,-2.3013,-2.2744,-2.2886,-2.313,-2.3257,-2.3672,-2.4102,-2.4521,-2.4971,-2.5361,-2.5645,-2.5693,-2.5693,-2.5693,-2.5693,-2.5693,-2.5693,-2.5801,-2.6094,-2.6533,-2.667,-2.706,-2.7855,-2.7894,-2.7978,-2.8281,-2.8291,-2.8291,-2.8291,-2.8291,-2.8291,-2.8291,-2.8291,-2.8291,-2.8291,-2.8291,-2.8291,-2.8291,-2.8291,-2.8291,-2.8291,-2.8291,-2.8291,-2.8291,-2.8291,-2.8291,-2.8291,-2.8291,-2.8291,-2.8291,0.0,0.0,0.0,0.0,0.0,0.0,0.0,0.0,0.0,0.0,0.0,0.0,0.0,0.0,0.0,0.0,0.0,0.0,0.0,-1.8008,-1.8008,-1.8008,-1.8008,-1.8008,-1.8008,-1.8008,-1.8008,-1.8008,-1.8008,-1.8018,-1.8037,-1.8412,-1.8617,-1.8676,-1.9504,-1.9922,-1.9961,-2.0429,-2.0605,-2.0605,-2.0605,-2.0605,-2.0605,-2.0605,-2.0605,-2.0605,-2.0605,0.0,0.0,0.0,-2.0605,-2.0605,-2.0605,-2.0605,0.0,-2.0605,-2.0869,-2.1171,-2.1171,0.0,-2.1846,-2.1865,-2.2178,-2.249,-2.249,-2.2779,-2.3091,-2.3081,-2.3081,-2.3227,-2.3691,-2.4111,-2.4541,-2.498,-2.543,-2.5674,-2.5693,-2.5693,-2.5693,-2.5693,-2.5693,-2.5693,-2.5693,-2.6123,-2.6543,-2.6963,-2.7393,-2.7812,-2.8252,-2.8271,-2.8281,-2.8291,-2.8291,-2.8291,-2.8291,-2.8291,-2.8291,-2.8291,-2.8291,-2.8291,-2.8291,-2.8291,-2.8291,-2.8291,-2.8291,-2.8291,-2.8291,-2.8291,-2.8291,-2.8291,-2.8291,-2.8291,-2.8291,-2.8291,-2.8291,-2.8291,0.0,0.0,0.0,0.0,0.0,0.0,0.0,0.0,0.0,0.0,0.0,0.0,0.0,0.0,0.0,0.0,0.0,0.0,0.0,-1.8337,-1.8008,-1.8008,-1.8008,-1.8008,-1.8008,-1.8008,-1.8008,-1.8008,-1.8008,-1.8008,-1.8018,-1.8154,-1.8334,-1.8617,-1.89,-1.9348,-1.9922,-2.0068,-2.0341,-2.0605,-2.0605,-2.0605,-2.0605,-2.0605,-2.0605,-2.0605,0.0,0.0,0.0,0.0,0.0,0.0,-2.0605,0.0,-2.0664,-2.0918,-2.1318,-2.167,-2.167,0.0,-2.1953,-2.2236,-2.2412,-2.2588,-2.2818,-2.2994,-2.3091,-2.3091,-2.3369,-2.3613,-2.376,-2.4365,-2.4893,-2.5086,-2.5449,-2.5693,-2.5693,-2.5693,-2.5693,-2.5693,-2.5693,-2.5693,-2.5693,-2.6133,-2.6562,-2.6982,-2.7412,-2.7904,-2.8271,-2.8291,-2.8291,-2.8291,-2.8291,-2.8291,-2.8291,-2.8291,-2.8291,-2.8291,-2.8291,-2.8291,-2.8291,-2.8291,-2.8291,-2.8291,-2.8291,-2.8291,-2.8291,-2.8291,-2.8291,-2.8291,-2.8291,-2.8291,-2.8291,-2.8291,-2.8291,-2.8291,0.0,0.0,0.0,0.0,0.0,0.0,0.0,0.0,0.0,0.0,0.0,0.0,0.0,0.0,0.0,0.0,0.0,0.0,0.0,0.0,-1.8462,-1.8462,-1.8168,-1.8008,-1.8008,-1.8008,-1.8008,-1.8008,-1.8008,-1.8008,-1.8008,-1.8008,-1.8154,-1.8383,-1.8539,-1.8909,-1.9446,-1.9785,-2.0078,-2.0342,-2.0537,-2.0605,-2.0605,-2.0605,-2.0605,0.0,0.0,0.0,0.0,0.0,0.0,0.0,0.0,-2.0713,-2.083,-2.0957,-2.1523,-2.208,-2.1924,-2.21,-2.2402,-2.2666,-2.2691,-2.2769,-2.3033,-2.3091,-2.3091,-2.3091,-2.3486,-2.3838,-2.3984,-2.459,-2.5165,-2.5283,-2.5547,-2.5693,-2.5693,-2.5693,-2.5693,-2.5693,-2.5693,-2.5693,0.0,-2.6269,-2.6728,-2.6992,-2.7559,-2.8008,-2.8281,-2.8291,-2.8291,-2.8291,-2.8291,-2.8291,-2.8291,-2.8291,-2.8291,-2.8291,-2.8291,-2.8291,-2.8291,-2.8291,-2.8291,-2.8291,-2.8291,-2.8291,-2.8291,-2.8291,-2.8291,-2.8291,-2.8291,-2.8291,-2.8291,-2.8291,-2.8291,-2.8291,0.0,0.0,0.0,0.0,0.0,0.0,0.0,0.0,0.0,0.0,0.0,0.0,0.0,0.0,0.0,0.0,0.0,0.0,0.0,0.0,0.0,-1.9365,-1.8529,-1.8076,-1.8076,-1.8008,-1.8008,-1.8008,-1.8008,-1.8008,-1.8008,-1.8008,-1.8008,-1.8027,-1.8393,-1.8578,-1.8656,-1.9465,-1.9873,-1.9951,-2.0361,-2.0586,-2.0605,-2.0605,0.0,0.0,0.0,0.0,0.0,0.0,0.0,0.0,0.0,-2.0869,-2.1112,-2.0752,-2.1523,-2.2432,-2.2051,-2.2529,-2.3091,-2.3091,-2.3091,-2.3091,-2.3091,-2.3091,-2.3091,-2.3091,-2.3486,-2.3906,0.0,0.0,-2.5205,-2.5635,-2.5674,-2.5693,-2.5693,-2.5693,-2.5693,0.0,0.0,0.0,0.0,0.0,-2.7012,-2.7012,-2.7812,-2.8291,-2.8291,-2.8291,-2.8291,-2.8291,-2.8291,-2.8291,-2.8291,-2.8291,-2.8291,-2.8291,-2.8291,-2.8291,-2.8291,-2.8291,-2.8291,-2.8291,-2.8291,-2.8291,-2.8291,-2.8291,-2.8291,-2.8291,-2.8291,-2.8291,-2.8291,-2.8291,-2.8291,-2.8291,0.0,0.0,0.0,0.0,0.0,0.0,0.0,0.0,0.0,0.0,0.0,0.0,0.0,0.0,0.0,0.0,0.0,0.0,0.0,0.0,0.0,0.0,0.0,0.0,0.0,0.0,0.0,0.0,0.0,-1.8008,-1.8008,-1.8008,-1.8008,-1.8018,-1.8125,-1.8315,-1.8617,-1.8831,-1.9299,-1.9922,0.0,-2.0273,-2.0605,0.0,0.0,0.0,0.0,0.0,0.0,0.0,0.0,0.0,0.0,-2.0869,-2.1239,-2.1484,-2.2002,-2.2559,-2.2721,-2.2925,-2.3091,-2.3091,-2.3091,-2.3091,-2.3091,-2.3091,-2.3091,-2.3091,-2.3486,-2.3828,0.0,0.0,0.0,-2.5215,-2.5518,0.0,-2.5693,-2.5693,0.0,-2.5693,0.0,-2.5693,-2.5693,-2.6514,-2.7012,-2.7012,-2.7812,-2.8291,-2.8291,-2.8291,-2.8291,-2.8291,-2.8291,-2.8291,-2.8291,-2.8291,-2.8291,-2.8291,-2.8291,-2.8291,-2.8291,-2.8291,-2.8291,-2.8291,-2.8291,-2.8291,-2.8291,-2.8291,-2.8291,-2.8291,-2.8291,-2.8291,-2.8291,-2.8291,-2.8291,-2.8291,0.0,0.0,0.0,0.0,0.0,0.0,0.0,0.0,0.0,0.0,0.0,0.0,0.0,0.0,0.0,0.0,0.0,0.0,0.0,0.0,0.0,0.0,0.0,0.0,0.0,0.0,0.0,0.0,0.0,0.0,0.0,-1.8008,-1.8202,-1.8563,-1.8563,-1.8694,-1.8936,-1.9093,0.0,0.0,0.0,0.0,0.0,0.0,0.0,0.0,0.0,0.0,0.0,0.0,0.0,-2.0605,-2.0605,-2.0869,-2.1239,-2.1533,0.0,-2.2568,-2.2803,-2.2955,-2.3091,-2.3091,-2.3091,-2.3091,-2.3091,-2.3091,-2.3091,-2.3091,-2.3486,0.0,-2.3789,-2.4336,0.0,0.0,0.0,0.0,-2.5664,-2.5693,-2.5693,0.0,-2.5693,0.0,-2.5693,-2.6514,-2.7012,-2.7012,-2.7812,-2.8291,-2.8291,-2.8291,-2.8291,-2.8291,-2.8291,-2.8291,-2.8291,-2.8291,-2.8291,-2.8291,-2.8291,-2.8291,-2.8291,-2.8291,-2.8291,-2.8291,-2.8291,-2.8291,-2.8291,-2.8291,-2.8291,-2.8291,-2.8291,-2.8291,-2.8291,-2.8291,-2.8291,-2.8291,0.0,0.0,0.0,0.0,0.0,0.0,0.0,0.0,0.0,0.0,0.0,0.0,0.0,0.0,0.0,0.0,0.0,0.0,0.0,0.0,0.0,0.0,0.0,0.0,0.0,0.0,0.0,0.0,0.0,0.0,0.0,0.0,0.0,0.0,0.0,0.0,0.0,0.0,0.0,0.0,0.0,0.0,0.0,0.0,0.0,0.0,0.0,0.0,0.0,0.0,-2.1375,-2.0605,-2.0605,-2.083,-2.1112,-2.1181,-2.1765,-2.2441,-2.25,-2.2779,-2.3091,-2.3091,-2.3091,-2.3135,-2.3309,-2.3222,-2.3135,-2.3299,0.0,-2.3701,-2.3701,-2.4053,-2.4473,-2.4912,0.0,-2.5225,-2.5625,-2.5693,-2.5693,-2.5693,-2.5693,-2.5693,-2.5693,-2.6514,-2.7012,-2.7012,-2.7812,-2.8291,-2.8291,-2.8291,-2.8291,-2.8291,-2.8291,-2.8291,-2.8291,-2.8291,-2.8291,-2.8291,-2.8291,-2.8291,-2.8291,-2.8291,-2.8291,-2.8291,-2.8291,-2.8291,-2.8291,-2.8291,-2.8291,-2.8291,-2.8291,-2.8291,-2.8291,-2.8291,-2.8291,-2.8291,0.0,0.0,0.0,0.0,0.0,0.0,0.0,0.0,0.0,0.0,0.0,0.0,0.0,0.0,0.0,0.0,0.0,0.0,0.0,0.0,0.0,0.0,0.0,0.0,0.0,0.0,0.0,0.0,0.0,0.0,0.0,0.0,0.0,0.0,0.0,0.0,0.0,0.0,0.0,0.0,0.0,0.0,0.0,0.0,0.0,0.0,0.0,0.0,0.0,0.0,-2.1375,-2.0605,-2.0605,-2.0664,-2.0752,-2.1083,-2.1592,-2.207,-2.2412,-2.2779,-2.3091,-2.3091,-2.3091,-2.3343,-2.4296,-2.38,0.0,0.0,-2.3817,-2.3208,-2.3208,-2.3603,-2.4033,-2.4463,0.0,0.0,0.0,0.0,-2.5693,0.0,-2.5693,-2.5693,-2.5693,-2.6514,-2.7012,-2.7012,-2.7812,-2.8291,-2.8291,-2.8291,-2.8291,-2.8291,-2.8291,-2.8291,-2.8291,-2.8291,-2.8291,-2.8291,-2.8291,-2.8291,-2.8291,-2.8291,-2.8291,-2.8291,-2.8291,-2.8291,-2.8291,-2.8291,-2.8291,-2.8291,-2.8291,-2.8291,-2.8291,-2.8291,-2.8291,-2.8291,0.0,0.0,0.0,0.0,0.0,0.0,0.0,0.0,0.0,0.0,0.0,0.0,0.0,0.0,0.0,0.0,0.0,0.0,0.0,0.0,0.0,0.0,0.0,0.0,0.0,0.0,-2.043,-1.9977,0.0,0.0,0.0,-1.9299,-1.9299,0.0,0.0,0.0,0.0,0.0,0.0,0.0,0.0,0.0,0.0,0.0,0.0,0.0,0.0,0.0,0.0,0.0,-2.2563,-2.1221,-2.075,-2.0605,-2.0693,-2.1064,-2.1346,-2.1689,-2.2334,-2.2656,-2.2818,-2.3042,-2.3091,-2.3387,-2.4542,0.0,0.0,0.0,-2.3877,-2.3091,-2.3091,0.0,0.0,0.0,0.0,0.0,0.0,0.0,0.0,0.0,-2.5693,-2.5693,-2.5693,-2.6514,-2.7012,-2.7012,-2.7812,-2.8291,-2.8291,-2.8291,-2.8291,-2.8291,-2.8291,-2.8291,-2.8291,-2.8291,-2.8291,-2.8291,-2.8291,-2.8291,-2.8291,-2.8291,-2.8291,-2.8291,-2.8291,-2.8291,-2.8291,-2.8291,-2.8291,-2.8291,-2.8291,-2.8291,-2.8291,-2.8291,-2.8291,-2.8291,0.0,0.0,0.0,0.0,0.0,0.0,0.0,0.0,0.0,0.0,0.0,0.0,0.0,0.0,0.0,0.0,0.0,0.0,0.0,0.0,0.0,0.0,0.0,0.0,0.0,0.0,0.0,-2.0878,-2.0878,0.0,0.0,0.0,0.0,0.0,-1.9879,-1.9694,0.0,0.0,0.0,0.0,0.0,-2.1756,0.0,0.0,0.0,0.0,0.0,0.0,0.0,0.0,-2.3963,-2.2478,-2.1527,-2.1088,-2.1003,-2.1558,-2.161,-2.1739,-2.2763,-2.276,-2.266,-2.3321,-2.3256,-2.3474,-2.484,-2.4296,0.0,0.0,-2.4253,-2.3387,-2.3135,0.0,-2.3237,0.0,0.0,0.0,0.0,0.0,0.0,0.0,0.0,0.0,-2.5693,-2.6514,-2.7012,-2.7012,-2.7812,-2.8291,-2.8291,-2.8291,-2.8291,-2.8291,-2.8291,-2.8291,-2.8291,-2.8291,-2.8291,-2.8291,-2.8291,-2.8291,-2.8291,-2.8291,-2.8291,-2.8291,-2.8291,-2.8291,-2.8291,-2.8291,-2.8291,-2.8291,-2.8291,-2.8291,-2.8291,-2.8291,-2.8291,-2.8291,0.0,0.0,0.0,0.0,0.0,0.0,0.0,0.0,0.0,0.0,0.0,0.0,0.0,0.0,0.0,0.0,0.0,0.0,0.0,0.0,0.0,0.0,0.0,0.0,0.0,0.0,0.0,-2.1784,-2.1784,0.0,0.0,0.0,0.0,0.0,0.0,-2.091,-2.1659,-2.1753,0.0,0.0,0.0,0.0,0.0,0.0,0.0,0.0,0.0,0.0,0.0,0.0,0.0,-2.4564,-2.3562,-2.2627,-2.2048,-2.3016,0.0,0.0,-2.4379,-2.3648,-2.2853,-2.4268,-2.3887,-2.3681,-2.585,0.0,0.0,-2.6099,-2.542,-2.4339,-2.3309,-2.3091,-2.3237,0.0,0.0,-2.4131,0.0,0.0,0.0,0.0,0.0,0.0,-2.5693,-2.6514,-2.7012,-2.7012,-2.7812,-2.8291,-2.8291,-2.8291,-2.8291,-2.8291,-2.8291,-2.8291,-2.8291,-2.8291,-2.8291,-2.8291,-2.8291,-2.8291,-2.8291,-2.8291,-2.8291,-2.8291,-2.8291,-2.8291,-2.8291,-2.8291,-2.8291,-2.8291,-2.8291,-2.8291,-2.8291,-2.8291,-2.8291,-2.8291,0.0,0.0,0.0,0.0,0.0,0.0,0.0,0.0,0.0,0.0,0.0,0.0,0.0,0.0,0.0,0.0,0.0,0.0,0.0,0.0,0.0,0.0,0.0,0.0,0.0,0.0,-2.2628,-2.2628,-2.2628,0.0,0.0,0.0,0.0,0.0,0.0,-2.0782,-2.1144,-2.169,0.0,0.0,0.0,0.0,0.0,0.0,0.0,0.0,0.0,0.0,0.0,0.0,0.0,0.0,-2.524,-2.4624,0.0,0.0,-2.3364,-2.3459,-2.4664,-2.4508,-2.4119,-2.4693,-2.4967,-2.5389,-2.6307,0.0,0.0,-2.7238,-2.6584,-2.5462,-2.4339,-2.4125,-2.398,-2.3448,0.0,0.0,0.0,0.0,0.0,0.0,-2.5693,0.0,0.0,-2.6279,-2.6855,-2.7373,-2.7959,-2.8291,-2.8291,-2.8291,-2.8291,-2.8291,-2.8291,-2.8291,-2.8291,-2.8291,-2.8291,-2.8291,-2.8291,-2.8291,-2.8291,-2.8291,-2.8291,-2.8291,-2.8291,-2.8291,-2.8291,-2.8291,-2.8291,-2.8291,-2.8291,-2.8291,-2.8291,-2.8291,-2.8291,-2.8291,0.0,0.0,0.0,0.0,0.0,0.0,0.0,0.0,0.0,0.0,0.0,0.0,0.0,0.0,0.0,0.0,0.0,0.0,0.0,0.0,0.0,0.0,0.0,0.0,0.0,0.0,0.0,-2.3108,-2.3108,-2.3108,0.0,0.0,-2.2249,-2.223,0.0,0.0,0.0,0.0,0.0,0.0,0.0,0.0,0.0,0.0,0.0,0.0,0.0,0.0,0.0,0.0,0.0,0.0,0.0,0.0,0.0,0.0,-2.4181,-2.4217,-2.5576,-2.547,-2.511,-2.567,-2.613,-2.6595,0.0,0.0,0.0,-2.7924,-2.7481,-2.6625,-2.5504,-2.5041,-2.4542,-2.3714,0.0,-2.3789,-2.4336,0.0,0.0,0.0,0.0,-2.5693,-2.5693,-2.624,-2.6875,-2.7669,-2.8057,-2.8291,-2.8291,-2.8291,-2.8291,-2.8291,-2.8291,-2.8291,-2.8291,-2.8291,-2.8291,-2.8291,-2.8291,-2.8291,-2.8291,-2.8291,-2.8291,-2.8291,-2.8291,-2.8291,-2.8291,-2.8291,-2.8291,-2.8291,-2.8291,-2.8291,-2.8291,-2.8291,-2.8291,-2.8291,0.0,0.0,0.0,0.0,0.0,0.0,0.0,0.0,0.0,0.0,0.0,0.0,0.0,0.0,0.0,0.0,0.0,0.0,0.0,0.0,0.0,0.0,0.0,0.0,0.0,0.0,0.0,0.0,0.0,-2.3108,-2.3108,-2.3078,-2.3078,-2.3078,0.0,0.0,0.0,0.0,0.0,0.0,0.0,0.0,0.0,0.0,0.0,0.0,0.0,0.0,0.0,0.0,0.0,0.0,0.0,0.0,0.0,0.0,-2.5769,-2.5457,-2.7505,-2.655,-2.5503,-2.7545,-2.729,-2.676,0.0,0.0,-2.8096,-2.8096,-2.8096,-2.7775,-2.6678,-2.5546,-2.4787,-2.4787,-2.3844,0.0,-2.4297,0.0,0.0,0.0,0.0,-2.5693,-2.5693,-2.6454,-2.7197,-2.7679,-2.8057,-2.8291,-2.8291,-2.8291,-2.8291,-2.8291,-2.8291,-2.8291,-2.8291,-2.8291,-2.8291,-2.8291,-2.8291,-2.8291,-2.8291,-2.8291,-2.8291,-2.8291,-2.8291,-2.8291,-2.8291,-2.8291,-2.8291,-2.8291,-2.8291,-2.8291,-2.8291,-2.8291,-2.8291,-2.8291,0.0,0.0,0.0,0.0,0.0,0.0,0.0,0.0,0.0,0.0,0.0,0.0,0.0,0.0,0.0,0.0,0.0,0.0,0.0,0.0,0.0,0.0,0.0,0.0,0.0,0.0,0.0,0.0,0.0,0.0,0.0,0.0,-2.3108,-2.3108,-2.3108,-2.3108,0.0,0.0,0.0,0.0,0.0,0.0,0.0,0.0,0.0,0.0,0.0,0.0,0.0,0.0,0.0,0.0,0.0,0.0,0.0,0.0,0.0,0.0,-2.7723,-2.7631,-2.7267,-2.7953,-2.8438,-2.8621,-2.8215,0.0,-2.9275,-2.9275,-2.9275,-2.8897,-2.7815,-2.7308,-2.6562,-2.5041,-2.45,0.0,0.0,0.0,0.0,-2.5586,-2.5693,-2.5693,-2.5693,-2.6514,-2.707,-2.7207,-2.7891,-2.8291,-2.8291,-2.8291,-2.8291,-2.8291,-2.8291,-2.8291,-2.8291,-2.8291,-2.8291,-2.8291,-2.8291,-2.8291,-2.8291,-2.8291,-2.8291,-2.8291,-2.8291,-2.8291,-2.8291,-2.8291,-2.8291,-2.8291,-2.8291,-2.8291,-2.8291,-2.8291,-2.8291,-2.8291,0.0,0.0,0.0,0.0,0.0,0.0,0.0,0.0,0.0,0.0,0.0,0.0,0.0,0.0,0.0,0.0,0.0,0.0,0.0,0.0,0.0,0.0,0.0,0.0,0.0,0.0,0.0,0.0,0.0,0.0,0.0,0.0,0.0,0.0,-2.3108,0.0,0.0,0.0,0.0,0.0,0.0,0.0,-2.3108,0.0,0.0,0.0,0.0,0.0,0.0,0.0,0.0,0.0,0.0,0.0,0.0,0.0,-2.6499,0.0,0.0,-2.8109,-2.8213,-2.8629,-2.9275,0.0,0.0,0.0,-2.9792,-2.9792,-2.9792,-2.9573,-2.8858,-2.8386,-2.7631,-2.6273,-2.5703,0.0,0.0,0.0,0.0,-2.5625,0.0,-2.5693,-2.5693,-2.6514,-2.7012,-2.7012,-2.7812,-2.8291,-2.8291,-2.8291,-2.8291,-2.8291,-2.8291,-2.8291,-2.8291,-2.8291,-2.8291,-2.8291,-2.8291,-2.8291,-2.8291,-2.8291,-2.8291,-2.8291,-2.8291,-2.8291,0.0,-2.8291,-2.8291,-2.8291,-2.8291,-2.8291,-2.8291,-2.8291,-2.8291,-2.8291,0.0,0.0,0.0,0.0,0.0,0.0,0.0,0.0,0.0,0.0,0.0,0.0,0.0,0.0,0.0,0.0,0.0,0.0,0.0,0.0,0.0,0.0,0.0,0.0,0.0,0.0,0.0,0.0,-2.3108,-2.3108,-2.3108,0.0,0.0,0.0,0.0,0.0,0.0,0.0,0.0,0.0,0.0,0.0,0.0,0.0,0.0,0.0,0.0,0.0,0.0,0.0,0.0,0.0,0.0,0.0,0.0,0.0,0.0,0.0,0.0,0.0,0.0,0.0,0.0,0.0,0.0,0.0,0.0,-2.9792,-2.9792,-2.9792,-2.9792,-2.8937,-2.8176,-2.8124,-2.725,0.0,0.0,-2.6087,0.0,0.0,-2.5693,-2.5693,-2.5693,-2.6514,-2.7012,-2.7012,-2.7812,-2.8291,-2.8291,-2.8291,-2.8291,-2.8291,-2.8291,-2.8291,-2.8291,-2.8291,-2.8291,-2.8291,-2.8291,-2.8291,-2.8291,-2.8291,-2.8291,-2.8291,-2.8262,-2.8252,-2.8242,-2.8213,-2.8203,-2.8203,-2.8203,-2.8203,-2.8203,-2.8232,-2.8252,-2.8252,0.0,0.0,0.0,0.0,0.0,0.0,0.0,0.0,0.0,0.0,0.0,0.0,0.0,0.0,0.0,0.0,0.0,0.0,0.0,0.0,0.0,0.0,0.0,0.0,0.0,0.0,0.0,-2.3108,-2.3108,-2.3108,-2.3108,-2.3108,0.0,0.0,0.0,0.0,0.0,0.0,0.0,0.0,0.0,0.0,0.0,0.0,0.0,0.0,-2.4387,-2.4788,0.0,0.0,0.0,0.0,0.0,0.0,0.0,0.0,-2.6499,-2.6637,-2.7329,0.0,-2.8273,-2.8925,-2.9465,-2.9792,0.0,0.0,0.0,0.0,0.0,0.0,0.0,0.0,0.0,-2.8255,0.0,0.0,-2.6246,0.0,0.0,-2.5713,-2.5693,-2.5693,-2.5693,-2.6514,-2.7012,-2.7012,-2.7812,-2.8291,-2.8291,-2.8291,-2.8291,-2.8291,-2.8291,-2.8291,-2.8291,-2.8291,-2.8291,-2.8291,-2.8291,-2.8291,-2.8291,-2.8291,-2.8291,-2.8271,-2.7949,-2.7812,-2.7783,-2.7451,-2.7314,-2.7314,-2.7314,-2.7314,-2.7353,-2.7695,-2.7812,-2.7914,0.0,0.0,0.0,0.0,0.0,0.0,0.0,0.0,0.0,0.0,0.0,0.0,0.0,0.0,0.0,0.0,0.0,0.0,0.0,0.0,0.0,0.0,0.0,0.0,0.0,0.0,0.0,0.0,0.0,-2.3108,0.0,0.0,0.0,0.0,0.0,0.0,0.0,0.0,0.0,0.0,-2.3108,0.0,0.0,0.0,0.0,0.0,-2.4387,-2.4788,0.0,-2.6122,-2.6499,-2.6499,0.0,0.0,0.0,0.0,-2.6499,-2.6562,-2.6851,-2.7494,-2.8235,-2.875,-2.9365,-2.9792,0.0,0.0,0.0,0.0,0.0,0.0,0.0,0.0,0.0,0.0,-2.8631,0.0,0.0,0.0,-2.5927,-2.6476,-2.6062,-2.5693,-2.5693,-2.6338,-2.6807,-2.7002,-2.7627,-2.8086,-2.8281,-2.8291,-2.8291,-2.8291,-2.8291,-2.8291,-2.8291,-2.8291,-2.8291,-2.8291,-2.8291,-2.8291,-2.8281,-2.8096,-2.8008,-2.7978,-2.7559,-2.7373,-2.7344,-2.7109,-2.7012,-2.7012,-2.7012,-2.7012,-2.7041,-2.7285,-2.7373,-2.7432,0.0,0.0,0.0,0.0,0.0,0.0,0.0,0.0,0.0,0.0,0.0,0.0,0.0,0.0,0.0,0.0,0.0,0.0,0.0,0.0,0.0,0.0,0.0,0.0,0.0,0.0,0.0,0.0,0.0,0.0,0.0,0.0,0.0,0.0,0.0,0.0,0.0,0.0,0.0,0.0,-2.3108,0.0,0.0,0.0,0.0,0.0,0.0,0.0,0.0,-2.6122,-2.6499,-2.6499,-2.6499,0.0,0.0,0.0,0.0,0.0,-2.6499,-2.7268,-2.8222,-2.865,-2.9302,-2.9792,0.0,0.0,0.0,0.0,0.0,0.0,0.0,0.0,0.0,0.0,0.0,0.0,-2.8366,-2.6967,-2.6342,-2.722,-2.6342,-2.5693,-2.5693,-2.6133,-2.6562,-2.6982,-2.7412,-2.7904,-2.8271,-2.8291,-2.8291,-2.8291,-2.8291,-2.8291,-2.8291,-2.8291,-2.8291,-2.8291,-2.8291,-2.8262,-2.8184,-2.7885,-2.7679,-2.7591,-2.7109,-2.6914,-2.6914,-2.6846,-2.6816,-2.6816,-2.6816,-2.6816,-2.6826,-2.6894,-2.6914,-2.6982,0.0,0.0,0.0,0.0,0.0,0.0,0.0,0.0,0.0,0.0,0.0,0.0,0.0,0.0,0.0,0.0,0.0,0.0,0.0,0.0,0.0,0.0,0.0,0.0,0.0,0.0,0.0,0.0,0.0,0.0,-2.3108,-2.3108,-2.3108,0.0,0.0,0.0,0.0,-2.3108,-2.3108,-2.3108,-2.3108,0.0,0.0,0.0,0.0,0.0,0.0,0.0,0.0,-2.6122,-2.6499,-2.6499,-2.6499,0.0,0.0,0.0,0.0,0.0,-2.6499,-2.7268,-2.8122,-2.821,-2.9013,-2.9792,0.0,0.0,0.0,0.0,0.0,0.0,0.0,0.0,-2.9792,0.0,0.0,-2.8884,0.0,-2.7144,-2.6982,-2.611,-2.583,-2.5693,-2.5693,-2.6133,-2.6562,-2.6982,-2.7412,-2.7904,-2.8271,-2.8291,-2.8291,-2.8291,-2.8291,-2.8291,-2.8291,-2.8291,-2.8291,-2.8291,-2.8291,-2.8105,-2.7816,-2.7748,-2.7461,-2.709,-2.667,-2.6484,-2.6455,-2.6035,-2.5888,-2.5888,-2.5888,-2.5888,-2.5927,-2.6348,-2.6484,-2.6543,0.0,0.0,0.0,0.0,0.0,0.0,0.0,0.0,0.0,0.0,0.0,0.0,0.0,0.0,0.0,0.0,0.0,0.0,0.0,0.0,0.0,0.0,0.0,0.0,0.0,0.0,0.0,0.0,0.0,-2.3108,-2.3108,-2.3108,-2.3108,-2.3108,0.0,0.0,0.0,-2.3108,-2.3108,-2.3108,0.0,0.0,0.0,0.0,0.0,0.0,0.0,0.0,0.0,0.0,-2.6499,-2.6499,-2.6499,0.0,0.0,0.0,0.0,0.0,-2.6499,-2.7268,-2.8109,-2.8109,-2.8963,-2.9792,-2.9792,0.0,0.0,0.0,0.0,0.0,0.0,0.0,-2.9772,-2.9719,0.0,-2.9242,-2.8278,-2.7864,-2.7352,-2.6802,-2.611,-2.5693,-2.5693,-2.5918,-2.6211,-2.6641,-2.707,-2.75,-2.793,-2.8164,-2.8291,-2.8291,-2.8291,-2.8291,-2.8291,-2.8066,-2.8066,-2.8291,-2.8066,-2.7851,-2.7699,-2.7187,-2.6865,-2.665,-2.6221,-2.6035,-2.6025,-2.5771,-2.5693,-2.5693,-2.5693,-2.5693,-2.5713,-2.5967,-2.6182,-2.6416,0.0,0.0,0.0,0.0,0.0,0.0,0.0,0.0,0.0,0.0,0.0,0.0,0.0,0.0,0.0,0.0,0.0,0.0,0.0,0.0,0.0,0.0,0.0,0.0,0.0,0.0,0.0,-2.3108,-2.3108,-2.3108,-2.3108,-2.3108,-2.3108,0.0,0.0,0.0,0.0,-2.3108,-2.3108,-2.3108,0.0,0.0,0.0,0.0,0.0,0.0,0.0,0.0,0.0,0.0,0.0,0.0,0.0,0.0,0.0,-2.6499,-2.6499,-2.6499,-2.6499,-2.7268,-2.8109,-2.8109,0.0,-2.9792,-2.9792,0.0,0.0,0.0,0.0,0.0,0.0,-2.9892,0.0,-2.9648,-2.9941,-2.9907,-2.9101,-2.8402,-2.7814,-2.722,-2.6294,-2.5693,-2.5693,-2.5693,-2.5869,-2.6357,-2.6689,-2.706,-2.749,-2.7822,-2.7988,-2.7988,-2.7988,-2.7988,-2.7988,-2.7676,-2.7725,-2.8135,-2.7715,-2.7513,-2.7344,-2.6689,-2.6338,-2.6221,-2.584,-2.5693,-2.5693,-2.5693,-2.5693,-2.5693,-2.5693,-2.5693,-2.5693,-2.5693,-2.6016,-2.6387,0.0,0.0,0.0,0.0,0.0,0.0,0.0,0.0,0.0,0.0,0.0,0.0,0.0,0.0,0.0,0.0,0.0,0.0,0.0,0.0,0.0,0.0,0.0,0.0,0.0,-2.3108,-2.3108,-2.3108,-2.3108,-2.3108,-2.3108,-2.3108,-2.3108,-2.3108,0.0,0.0,0.0,-2.3108,-2.3108,-2.3108,-2.3108,0.0,0.0,0.0,0.0,0.0,0.0,0.0,0.0,0.0,0.0,0.0,0.0,0.0,-2.6499,-2.6499,-2.6499,-2.6499,-2.6499,-2.7268,-2.8109,-2.8109,0.0,0.0,-2.9792,-2.9792,0.0,-2.9792,0.0,0.0,0.0,-3.0218,-3.0319,-2.9708,-3.0942,-3.1026,-2.8115,-2.8634,-2.8402,-2.61,-2.5781,-2.5693,-2.5693,-2.5693,-2.5869,-2.6357,-2.6416,-2.6621,-2.7041,-2.709,-2.7109,-2.7109,-2.7109,-2.7109,-2.7109,-2.708,-2.7275,-2.7757,-2.7266,-2.6855,-2.6475,-2.6416,-2.6172,-2.5732,-2.5703,-2.5693,-2.5693,-2.5693,-2.5693,-2.5693,-2.5693,-2.5693,-2.5693,-2.5693,-2.6016,-2.6387,0.0,0.0,0.0,0.0,0.0,0.0,0.0,0.0,0.0,0.0,0.0,0.0,0.0,0.0,0.0,0.0,0.0,0.0,0.0,0.0,0.0,0.0,0.0,-2.3108,-2.3108,-2.3108,-2.3108,-2.3108,-2.3108,-2.3108,-2.3108,-2.3108,0.0,0.0,0.0,0.0,0.0,-2.3108,-2.3108,-2.3108,-2.3108,-2.3108,0.0,0.0,0.0,0.0,0.0,0.0,0.0,0.0,-2.6499,-2.6499,0.0,-2.6499,-2.6499,-2.6499,-2.6499,-2.6499,-2.6499,-2.7052,-2.767,-2.8021,0.0,0.0,0.0,0.0,-2.9792,-2.9792,-2.9792,0.0,0.0,0.0,-3.0735,-3.1144,-3.1771,-3.1644,-3.0055,-2.959,-2.9039,-2.8121,-2.7352,-2.6897,-2.6897,-2.7579,-2.7415,-2.6065,-2.693,-2.726,-2.6662,-2.6875,-2.7012,-2.7012,-2.7012,-2.7012,-2.7012,-2.6758,-2.6709,-2.6875,-2.6709,-2.6543,-2.6377,-2.6113,-2.5889,-2.5693,-2.5693,-2.5693,-2.5693,-2.5693,-2.5693,-2.5713,-2.6035,-2.6143,-2.6172,-2.6435,-2.6631,-2.6777,0.0,0.0,0.0,0.0,0.0,0.0,0.0,0.0,0.0,0.0,0.0,0.0,0.0,0.0,0.0,0.0,0.0,0.0,0.0,0.0,0.0,0.0,0.0,-2.3108,-2.3108,-2.3108,-2.3108,-2.3108,-2.3108,-2.3108,-2.3108,0.0,0.0,0.0,0.0,0.0,0.0,0.0,-2.3108,-2.3108,-2.3108,-2.3208,0.0,0.0,0.0,0.0,0.0,0.0,0.0,0.0,-2.6499,0.0,0.0,0.0,-2.6499,-2.6499,-2.6499,-2.6499,-2.6499,-2.7027,-2.7632,0.0,0.0,0.0,0.0,0.0,-2.9792,-2.9792,-2.9792,-2.9905,-3.0281,0.0,-3.1097,-3.1838,-3.2252,-3.2166,-3.1308,-3.0496,-2.9681,-2.8912,-2.8085,-2.7447,-2.703,-2.8132,-2.7945,-2.5878,-2.75,-2.7858,-2.6271,-2.6834,-2.6993,-2.6611,-2.6611,-2.6611,-2.6611,-2.6328,-2.6182,-2.6182,-2.6182,-2.6182,-2.6172,-2.583,-2.5693,-2.5693,-2.5693,-2.5693,-2.5693,-2.5693,-2.5771,-2.5977,-2.6269,-2.6465,-2.6621,-2.6904,-2.71,-2.7217,0.0,0.0,0.0,0.0,0.0,0.0,0.0,0.0,0.0,0.0,0.0,0.0,0.0,0.0,0.0,0.0,0.0,0.0,0.0,0.0,0.0,0.0,0.0,-2.3108,-2.3108,-2.3108,-2.3108,-2.3108,-2.3108,-2.3108,-2.3108,-2.3108,0.0,0.0,0.0,0.0,0.0,0.0,0.0,-2.3108,-2.3108,-2.3459,-2.4004,0.0,0.0,0.0,0.0,0.0,0.0,0.0,-2.6499,-2.6499,0.0,0.0,0.0,-2.6499,-2.6499,-2.6499,-2.6499,-2.7291,-2.8097,0.0,0.0,0.0,0.0,0.0,-2.9792,-2.9792,-2.9792,-2.9792,-2.9804,-3.067,-3.1386,-3.1399,-3.234,-3.2655,-3.1412,-3.1223,-3.0316,-2.7955,-2.7636,-2.7125,-2.5878,-2.6897,-2.7078,-2.583,-2.7981,-2.8308,-2.5868,-2.6897,-2.704,-2.5732,-2.5693,-2.5693,-2.5693,-2.5693,-2.5693,-2.5693,-2.5693,-2.5693,-2.5693,-2.5693,-2.5693,-2.5693,-2.5693,-2.5693,-2.5693,-2.5693,-2.5996,-2.6387,-2.6396,-2.665,-2.7021,-2.7021,-2.7305,-2.7728,0.0,0.0,0.0,0.0,0.0,0.0,0.0,0.0,0.0,0.0,0.0,0.0,0.0,0.0,0.0,0.0,0.0,0.0,0.0,0.0,0.0,0.0,0.0,0.0,0.0,0.0,-2.3108,-2.3108,-2.3108,-2.3108,0.0,0.0,0.0,-2.3108,0.0,0.0,0.0,0.0,0.0,0.0,-2.3547,-2.3841,-2.4079,0.0,0.0,0.0,0.0,0.0,0.0,0.0,0.0,0.0,0.0,0.0,0.0,-2.6499,-2.6499,-2.6499,-2.6499,-2.6738,0.0,0.0,0.0,0.0,0.0,0.0,0.0,0.0,-2.9792,-2.9917,-3.0306,-3.0934,-3.1512,-3.1901,-3.2591,-3.2982,-3.2612,-3.1777,-3.1267,-3.1468,-2.992,-2.8727,-2.8355,-2.8634,-2.8366,-2.7125,-2.8495,-2.8727,-2.7125,-2.74,-2.704,-2.5732,-2.5693,-2.5693,-2.5693,-2.5693,-2.5693,-2.5693,-2.5693,-2.5693,-2.5693,-2.5693,-2.5693,-2.5693,-2.5693,-2.5693,-2.5693,-2.5693,-2.5996,-2.6416,-2.6709,-2.709,-2.751,-2.7803,-2.7998,-2.8105,0.0,0.0,0.0,0.0,0.0,0.0,0.0,0.0,0.0,0.0,0.0,0.0,0.0,0.0,0.0,0.0,0.0,0.0,0.0,0.0,0.0,0.0,0.0,0.0,0.0,-2.3573,-2.3424,0.0,0.0,0.0,0.0,0.0,0.0,-2.3108,0.0,-2.3108,0.0,0.0,0.0,0.0,-2.4307,-2.4934,-2.5698,0.0,0.0,0.0,0.0,0.0,0.0,0.0,0.0,0.0,0.0,0.0,0.0,-2.6499,-2.6499,-2.6499,-2.6499,0.0,0.0,0.0,0.0,0.0,-2.9591,0.0,0.0,0.0,-2.9792,-2.9892,-3.0231,-3.0884,-3.1499,-3.1838,-3.2554,-3.3124,-3.3124,-3.2426,-3.2052,-3.2326,-3.1045,-2.9954,-2.9453,-2.9818,-2.959,-2.8412,-2.9453,-2.9361,-2.7673,-2.7589,-2.704,-2.5732,-2.5693,-2.5693,-2.5693,-2.5693,-2.5693,-2.5693,-2.5693,-2.5693,-2.5693,-2.5693,-2.5693,-2.5693,-2.5693,-2.5693,-2.5693,-2.5693,-2.5996,-2.6426,-2.6846,-2.7285,-2.7767,-2.8135,-2.8291,-2.8291,0.0,0.0,0.0,0.0,0.0,0.0,0.0,0.0,0.0,0.0,0.0,0.0,0.0,0.0,0.0,0.0,0.0,0.0,0.0,0.0,0.0,0.0,0.0,0.0,0.0,0.0,0.0,0.0,0.0,0.0,0.0,0.0,-2.3125,-2.3215,0.0,-2.3198,0.0,0.0,0.0,0.0,-2.5285,-2.6435,-2.8105,-2.7363,0.0,0.0,0.0,0.0,0.0,0.0,0.0,0.0,0.0,0.0,-2.6499,-2.6499,-2.6499,-2.6499,-2.6499,0.0,0.0,0.0,0.0,0.0,-2.9666,-2.9792,-2.9792,-2.9792,0.0,-2.9792,-2.9792,-3.067,-3.1386,-3.1386,-3.234,-3.3124,-3.3124,-3.3124,-3.2655,-3.15,-3.1267,-3.0765,-2.967,-3.0451,-3.0631,-2.9636,-3.0496,-3.009,-2.7861,-2.7683,-2.704,-2.5732,-2.5693,-2.5693,-2.5693,-2.5693,-2.5693,-2.5693,-2.5693,-2.5693,-2.5693,-2.5693,-2.5693,-2.5693,-2.5693,-2.5693,-2.5693,-2.5693,-2.5996,-2.6426,-2.6807,-2.7246,-2.7767,-2.8096,-2.8262,-2.8291,0.0,0.0,0.0,0.0,0.0,0.0,0.0,0.0,0.0,0.0,0.0,0.0,0.0,0.0,0.0,0.0,0.0,0.0,0.0,0.0,0.0,0.0,0.0,0.0,0.0,0.0,0.0,0.0,0.0,0.0,0.0,0.0,0.0,-2.4002,0.0,-2.3754,0.0,0.0,0.0,0.0,-2.6405,-2.7207,-2.8221,-2.8473,-2.8639,0.0,0.0,0.0,0.0,0.0,0.0,0.0,-2.6679,-2.6499,-2.6499,-2.6499,-2.6499,-2.6499,0.0,-2.6587,0.0,0.0,0.0,0.0,-2.9666,-2.9792,-2.9792,-2.9792,-2.9792,-2.9792,-2.9792,-3.067,-3.1386,-3.1386,-3.234,-3.3124,-3.3124,-3.3124,-3.2982,-3.2698,-3.1821,-3.1078,-3.0855,-3.0181,-3.0079,-3.0765,-3.0181,-2.9544,-2.9039,-2.8085,-2.704,-2.5732,-2.5693,-2.5693,-2.5693,-2.5693,-2.5693,-2.5693,-2.5693,-2.5693,-2.5693,-2.5693,-2.5693,-2.5693,-2.5693,-2.5693,-2.5693,-2.5693,-2.5996,-2.6396,-2.6484,-2.6992,-2.7728,-2.7826,-2.8008,-2.8291,0.0,0.0,0.0,0.0,0.0,0.0,0.0,0.0,0.0,0.0,0.0,0.0,0.0,0.0,0.0,0.0,0.0,0.0,0.0,0.0,0.0,0.0,0.0,0.0,0.0,0.0,0.0,0.0,0.0,0.0,0.0,0.0,0.0,-2.3738,0.0,-2.4408,0.0,0.0,0.0,0.0,-2.7856,-2.8729,-2.9778,-2.9669,-2.9628,-2.9628,-2.9628,0.0,0.0,0.0,0.0,0.0,0.0,0.0,-2.7007,-2.6624,-2.6499,-2.6499,0.0,0.0,0.0,0.0,0.0,0.0,-2.9666,-2.9792,-2.9792,-2.9792,-2.9792,-2.9792,-2.9792,-3.047,-3.1097,-3.1348,-3.2102,-3.2754,-3.3074,-3.3124,-3.3124,-3.3124,-3.2513,-3.2096,-3.2096,-3.1557,-3.1424,-3.2052,-3.0956,-3.0271,-3.0271,-2.9131,-2.8179,-2.7484,-2.6887,-2.662,-2.662,-2.6014,-2.5693,-2.5693,-2.5693,-2.5693,-2.5693,-2.5693,-2.5693,-2.5693,-2.5693,-2.5693,-2.5693,-2.5693,-2.582,-2.6103,-2.6309,-2.666,-2.7151,-2.7571,-2.7855,-2.8018,0.0,0.0,0.0,0.0,0.0,0.0,0.0,0.0,0.0,0.0,0.0,0.0,0.0,0.0,0.0,0.0,0.0,0.0,0.0,0.0,0.0,0.0,0.0,0.0,0.0,0.0,0.0,0.0,0.0,0.0,0.0,0.0,0.0,-2.3754,0.0,0.0,0.0,0.0,0.0,0.0,0.0,-3.0295,-3.1438,-3.0777,-3.0524,-3.0494,-3.0359,-2.9473,-2.8298,-2.8019,0.0,0.0,0.0,0.0,-2.7351,-2.6679,-2.6499,-2.6499,0.0,0.0,0.0,0.0,0.0,0.0,-2.9515,-2.9729,-2.9792,-2.9792,-2.9792,-2.9792,-2.9792,-3.0244,-3.0758,-3.1185,-3.1788,-3.2378,-3.2855,-3.3018,-3.3124,-3.3124,-3.3124,-3.3124,-3.3124,-3.3124,-3.3124,-3.3124,-3.1921,-3.1223,-3.1223,-3.0045,-2.9407,-2.9407,-2.8402,-2.7908,-2.7908,-2.6887,-2.6332,-2.6332,-2.6149,-2.5917,-2.5693,-2.5693,-2.5693,-2.5693,-2.5693,-2.5693,-2.5693,-2.5693,-2.5693,-2.5723,-2.6133,-2.6328,-2.6475,-2.7187,-2.7542,-2.7617,0.0,0.0,0.0,0.0,0.0,0.0,0.0,0.0,0.0,0.0,0.0,0.0,0.0,0.0,0.0,0.0,0.0,0.0,-2.76,0.0,0.0,-2.76,-2.7524,0.0,0.0,0.0,0.0,0.0,0.0,0.0,0.0,0.0,0.0,-2.6027,0.0,0.0,0.0,0.0,0.0,0.0,0.0,0.0,-3.1511,-3.138,-3.1351,-3.1248,-3.0554,-3.0614,-3.0777,-2.9317,-2.8844,0.0,0.0,0.0,-2.6658,-2.6521,-2.6499,-2.6499,0.0,0.0,0.0,0.0,0.0,0.0,0.0,0.0,-2.9792,-2.9792,-2.9792,-2.9792,-2.9792,-3.0244,-3.0633,-3.0708,-3.1562,-3.224,-3.2315,-3.2754,-3.3124,-3.3124,-3.3124,-3.3124,-3.3124,-3.3124,-3.3124,-3.3124,-3.1921,-3.1223,-3.1223,-3.0045,-2.9407,-2.9407,-2.9223,-2.9177,-2.9177,-2.8993,-2.8901,-2.8901,-2.7861,-2.6754,-2.5693,-2.5693,-2.5693,-2.5693,-2.5693,-2.5693,-2.5693,-2.5693,-2.5693,-2.5693,-2.5752,-2.6055,-2.6396,-2.6514,-2.6787,-2.7168,0.0,0.0,0.0,0.0,0.0,0.0,0.0,0.0,0.0,0.0,0.0,0.0,0.0,0.0,0.0,-2.76,-2.76,-2.76,-2.76,-2.76,-2.76,-2.76,-2.76,-2.76,0.0,0.0,0.0,0.0,0.0,0.0,0.0,-2.6613,-2.6349,0.0,0.0,0.0,0.0,0.0,0.0,0.0,0.0,0.0,0.0,0.0,-3.1511,-3.1438,-3.1087,-3.0896,-3.0644,-2.9411,-2.9002,-2.878,-2.7451,0.0,0.0,0.0,-2.6499,0.0,0.0,0.0,0.0,0.0,0.0,0.0,-2.8762,0.0,-2.9792,-2.9792,-2.9792,-2.9792,-2.9792,-2.9993,-3.0256,-3.057,-3.1009,-3.1524,-3.2127,-3.2428,-3.2717,-3.3043,-3.3124,-3.3124,-3.3124,-3.3124,-3.3124,-3.3124,-3.2568,-3.2283,-3.2283,-3.1777,-3.1468,-3.1468,-3.0777,-3.0406,-3.0406,-2.9727,-2.9039,-2.8412,-2.7861,-2.6945,-2.5693,-2.5693,-2.5693,-2.5693,-2.5693,-2.5693,-2.5693,-2.5693,-2.5693,-2.5693,-2.5693,-2.581,-2.6055,-2.6299,-2.6504,-2.6728,0.0,0.0,0.0,0.0,0.0,0.0,0.0,0.0,0.0,0.0,0.0,0.0,0.0,0.0,0.0,0.0,-2.76,-2.76,-2.76,-2.76,-2.76,-2.76,-2.76,-2.76,-2.76,0.0,0.0,0.0,0.0,0.0,-2.76,-2.76,-2.7096,0.0,-2.7892,0.0,0.0,0.0,0.0,0.0,0.0,0.0,0.0,0.0,0.0,0.0,-3.119,-3.0807,-3.0208,-2.9535,-2.9317,-2.9097,-2.7855,-2.7571,0.0,0.0,0.0,0.0,0.0,0.0,0.0,0.0,0.0,0.0,0.0,0.0,-2.9616,-2.9767,-2.9792,-2.9792,-2.9792,-2.9792,-2.993,-3.0331,-3.052,-3.0896,-3.1687,-3.1926,-3.2215,-3.2792,-3.2855,-3.2918,-3.3111,-3.3124,-3.3124,-3.3124,-3.3124,-3.3124,-3.3124,-3.3124,-3.3124,-3.3124,-3.2196,-3.1677,-3.1677,-3.0777,-2.9544,-2.8049,-2.8049,-2.721,-2.5693,-2.5693,-2.5693,-2.5693,-2.5693,-2.5693,-2.5693,-2.5693,-2.5693,-2.5693,-2.5693,-2.5693,-2.5732,-2.6103,-2.6221,-2.6289,0.0,0.0,0.0,0.0,0.0,0.0,0.0,0.0,0.0,0.0,0.0,0.0,-2.76,-2.76,-2.76,-2.76,-2.76,-2.76,-2.76,-2.76,-2.76,-2.76,-2.76,0.0,-2.76,0.0,0.0,0.0,0.0,0.0,-2.76,-2.76,-2.7893,-2.8442,-2.8551,-2.8939,-2.9528,0.0,0.0,0.0,0.0,0.0,0.0,0.0,0.0,0.0,-3.0359,-3.0329,-3.0299,-3.0238,-3.0238,-3.0238,-3.0133,-2.9002,-2.7703,0.0,0.0,0.0,0.0,0.0,0.0,0.0,0.0,0.0,0.0,0.0,-2.9126,-2.9679,-2.9792,-2.9792,-2.9792,-2.9792,-2.9804,-2.9829,-3.0281,-3.0633,-3.0696,-3.1122,-3.1637,-3.219,-3.2252,-3.2466,-3.3018,-3.3124,-3.3124,-3.3124,-3.3124,-3.3124,-3.3124,-3.3124,-3.3124,-3.3124,-3.3025,-3.2982,-3.2982,-3.2939,-3.1701,-2.9315,-2.9315,-2.8038,-2.5693,-2.5693,-2.5693,-2.5693,-2.5693,-2.5693,-2.5693,-2.5693,-2.5693,-2.5693,-2.5693,-2.5693,-2.5693,-2.5713,-2.5723,-2.5781,0.0,0.0,0.0,0.0,0.0,0.0,0.0,0.0,0.0,0.0,0.0,0.0,0.0,-2.76,-2.76,-2.76,-2.76,-2.76,-2.76,-2.76,-2.76,-2.76,-2.76,-2.76,-2.76,0.0,0.0,0.0,0.0,-2.76,-2.76,-2.8049,-2.8368,-2.8622,-2.9041,-2.9579,-3.0223,-3.0881,0.0,0.0,0.0,0.0,0.0,0.0,0.0,-3.1058,-3.1058,-3.0748,-3.0208,-2.9659,-2.9097,-2.8524,-2.8019,-2.7417,-2.6939,-2.6939,0.0,0.0,0.0,0.0,0.0,0.0,0.0,-2.7331,-2.7532,-2.8009,-2.8561,-2.9126,-2.9239,-2.9352,-2.9729,-2.9792,-2.9792,-2.9792,-2.9955,-3.0218,-3.057,-3.0783,-3.1097,-3.1625,-3.1687,-3.1901,-3.2466,-3.2516,-3.2679,-3.3056,-3.3124,-3.3124,-3.3124,-3.3124,-3.3124,-3.3124,-3.3124,-3.3124,-3.3124,-3.3124,-3.2239,-3.0541,-3.0541,-2.9269,-2.6897,-2.6897,-2.6476,-2.5693,-2.5693,-2.5693,-2.5693,-2.5693,-2.5693,-2.5693,-2.5693,-2.5693,-2.5693,-2.5693,-2.5693,-2.5713,0.0,0.0,0.0,0.0,0.0,0.0,0.0,0.0,0.0,0.0,0.0,0.0,0.0,0.0,-2.76,-2.76,-2.76,-2.76,-2.76,-2.76,-2.76,-2.76,-2.76,-2.76,-2.76,0.0,0.0,0.0,0.0,0.0,0.0,-2.8382,-2.8831,-2.9265,-2.9699,-3.0118,0.0,0.0,0.0,-3.1511,0.0,0.0,-3.1511,0.0,0.0,-3.1117,-3.1409,-3.097,-3.0208,-2.9628,-2.9066,-2.8492,-2.7953,-2.7571,-2.7229,-2.6692,0.0,0.0,-2.6499,0.0,0.0,0.0,0.0,-2.709,-2.7278,-2.757,-2.7984,-2.8499,-2.8612,-2.8762,-2.9164,-2.9377,-2.9566,-2.9767,-2.9792,-2.9917,-3.0281,-3.0331,-3.0532,-3.1072,-3.1135,-3.1336,-3.1888,-3.1938,-3.2102,-3.2478,-3.2679,-3.278,-3.278,-3.2968,-3.3124,-3.3124,-3.3124,-3.3124,-3.3124,-3.3124,-3.2469,-3.1223,-3.1223,-3.0135,-2.8179,-2.8179,-2.7542,-2.6342,-2.6342,-2.611,-2.5693,-2.5693,-2.5693,-2.5693,-2.5693,-2.5693,-2.5693,-2.5693,-2.5693,-2.5693,0.0,0.0,0.0,0.0,0.0,0.0,0.0,0.0,0.0,-2.8606,0.0,0.0,0.0,0.0,0.0,-2.7625,-2.7625,-2.76,-2.76,-2.76,-2.76,-2.76,-2.76,-2.76,-2.76,0.0,0.0,0.0,0.0,0.0,0.0,0.0,-2.9325,0.0,-3.0522,-3.0537,-3.0567,0.0,-3.1511,-3.1511,0.0,-3.1511,-3.1511,0.0,-3.1029,-3.0419,-3.1219,-3.097,-3.0299,-3.0299,-3.0269,-3.0238,-3.0208,-2.9597,0.0,0.0,0.0,0.0,0.0,0.0,0.0,0.0,0.0,0.0,-2.7165,-2.7291,-2.7419,-2.7971,-2.8084,-2.8084,-2.8109,-2.8549,-2.9051,-2.9679,-2.9779,-2.9792,-2.9792,-2.9792,-2.9993,-3.052,-3.0595,-3.0796,-3.1311,-3.1361,-3.1373,-3.1386,-3.1888,-3.219,-3.219,-3.2742,-3.3056,-3.3056,-3.3111,-3.3124,-3.3124,-3.3124,-3.2469,-3.1267,-3.1267,-3.0631,-2.9453,-2.9407,-2.8727,-2.7589,-2.7542,-2.6849,-2.5693,-2.5693,-2.5693,-2.5693,-2.5693,-2.5693,-2.5693,-2.5693,-2.5693,-2.5693,0.0,0.0,0.0,0.0,0.0,0.0,0.0,0.0,0.0,0.0,0.0,0.0,-2.7625,-2.76,-2.7785,-2.8198,-2.786,-2.76,-2.76,-2.76,-2.76,-2.76,-2.76,-2.76,-2.76,0.0,0.0,0.0,0.0,0.0,0.0,0.0,0.0,0.0,-3.1002,-3.1212,-3.1241,-3.1421,0.0,-3.1511,-3.1511,-3.1511,0.0,-3.1511,-3.1351,-3.119,-3.1409,-3.097,-3.0299,-3.0299,-2.9473,-2.833,-2.7736,0.0,0.0,0.0,0.0,0.0,-2.6499,0.0,0.0,0.0,0.0,0.0,-2.6688,-2.6725,-2.6876,-2.7394,-2.7507,-2.7632,-2.8034,-2.8235,-2.8511,-2.9076,-2.9515,-2.9792,-2.9792,-2.9792,-2.9854,-2.9993,-3.0018,-3.0231,-3.0783,-3.0834,-3.0984,-3.1361,-3.1537,-3.1625,-3.1625,-3.2152,-3.2453,-3.2453,-3.2855,-3.3124,-3.3124,-3.3124,-3.2927,-3.2568,-3.2568,-3.1921,-3.0676,-2.9818,-2.8727,-2.7542,-2.662,-2.6014,-2.5693,-2.5693,-2.5693,-2.5693,-2.5693,-2.5693,-2.5693,-2.5693,-2.5693,-2.5693,0.0,0.0,0.0,0.0,0.0,0.0,0.0,0.0,0.0,0.0,0.0,0.0,-2.8042,-2.776,-2.7735,-2.8091,-2.781,-2.76,-2.76,-2.76,-2.76,-2.76,-2.76,-2.76,-2.76,0.0,0.0,0.0,0.0,0.0,0.0,0.0,0.0,0.0,0.0,0.0,0.0,0.0,0.0,0.0,-3.1511,-3.1511,-3.1511,-3.1511,-3.1511,-3.1511,-3.1511,-3.119,-3.0748,-3.0419,-2.9628,-2.8524,-2.6973,-2.6973,-2.7417,-2.6714,0.0,0.0,0.0,0.0,0.0,-2.6499,0.0,0.0,-2.6499,-2.6499,-2.6587,-2.6901,-2.6977,-2.7065,-2.7356,-2.7607,-2.7871,-2.8185,-2.8725,-2.9252,-2.9729,-2.9792,-2.9792,-2.9792,-2.9792,-2.9917,-3.0244,-3.0269,-3.0394,-3.0696,-3.0934,-3.116,-3.1386,-3.17,-3.1863,-3.1863,-3.2416,-3.2717,-3.2717,-3.2955,-3.3124,-3.3124,-3.3124,-3.2711,-3.1965,-3.0721,-2.9498,-2.8272,-2.703,-2.6197,-2.5693,-2.5693,-2.5693,-2.5693,-2.5693,-2.5693,-2.5693,-2.5693,-2.5693,-2.5693,0.0,0.0,0.0,0.0,0.0,0.0,0.0,0.0,0.0,0.0,-3.0187,-2.9695,-2.863,-2.7944,-2.7625,-2.7685,-2.765,-2.763,-2.7705,-2.7705,-2.775,-2.7824,-2.7824,-2.7824,-2.7824,0.0,0.0,0.0,0.0,0.0,0.0,0.0,0.0,0.0,0.0,0.0,0.0,0.0,0.0,-3.1511,-3.1511,-3.1511,-3.1511,-3.1511,-3.1511,-3.1511,-3.1511,-3.1511,-3.138,-3.0584,-3.0299,-2.9858,-2.7417,-2.767,-2.8556,-2.6973,-2.6499,0.0,0.0,0.0,0.0,-2.6499,-2.6499,0.0,-2.6499,-2.6499,-2.6499,-2.6499,-2.6499,-2.6499,-2.6499,-2.6901,-2.7241,-2.7268,-2.7695,-2.8411,-2.9541,-2.9691,-2.9716,-2.9779,-2.9792,-2.9792,-2.9792,-2.9792,-2.9792,-2.9792,-3.0244,-3.0721,-3.1185,-3.1273,-3.1298,-3.1298,-3.1838,-3.2152,-3.2215,-3.2717,-3.3018,-3.3124,-3.3124,-3.3124,-3.3068,-3.1633,-3.0406,-2.9315,-2.7945,-2.6754,-2.5693,-2.5693,-2.5693,-2.5693,-2.5693,-2.5693,-2.5693,-2.5693,-2.5693,-2.5693,-3.119,0.0,0.0,0.0,0.0,0.0,0.0,0.0,0.0,0.0,-2.9451,-2.8756,-2.8535,-2.7944,-2.781,-2.8271,-2.7885,-2.7839,-2.8368,-2.8397,-2.8637,-2.9202,-2.9217,-2.9217,-2.9217,-2.9352,0.0,0.0,0.0,0.0,0.0,0.0,0.0,0.0,0.0,0.0,0.0,0.0,0.0,-3.1511,-3.1511,-3.1511,-3.1511,-3.1511,-3.1511,-3.1511,-3.1511,-3.1511,-3.138,-3.0584,-3.0299,-2.9981,-2.8051,-2.7703,-2.7769,-2.6782,-2.6499,-2.6499,-2.6499,-2.6499,-2.6499,-2.6499,-2.6499,0.0,-2.6499,-2.6499,-2.6499,-2.6499,-2.6499,-2.6499,-2.6499,-2.6587,-2.6801,-2.7241,-2.7369,-2.7833,-2.89,-2.9063,-2.9277,-2.9741,-2.9792,-2.9792,-2.9792,-2.9792,-2.9792,-2.9792,-2.9892,-2.9993,-3.0093,-3.052,-3.0771,-3.0771,-3.1273,-3.1763,-3.2202,-3.2328,-3.2616,-3.3124,-3.3124,-3.3124,-3.3025,-3.0777,-2.9636,-2.9269,-2.702,-2.5917,-2.5693,-2.5693,-2.5693,-2.5693,-2.5693,-2.5693,-2.5693,-2.5693,-2.5693,-2.5693,-3.119,0.0,0.0,0.0,0.0,0.0,0.0,0.0,0.0,0.0,-2.9957,-2.9406,-2.9406,-2.8902,-2.8669,-2.8974,-2.8738,-2.8753,-2.9071,-2.9086,-2.9235,-2.9592,-2.9606,-2.9606,-2.9606,-2.9879,-3.0043,0.0,0.0,0.0,0.0,0.0,0.0,0.0,0.0,0.0,0.0,0.0,-3.1511,-3.1511,-3.1511,-3.1511,-3.1511,-3.1511,-3.1511,-3.1511,-3.1511,-3.1511,-3.138,-3.0584,-3.0584,-3.0614,-2.8907,-2.833,-2.8182,-2.7351,-2.6816,-2.6499,-2.6499,-2.6499,-2.6499,-2.6499,-2.6499,0.0,0.0,-2.6499,-2.6499,-2.6499,-2.6499,-2.6499,-2.6499,-2.6499,-2.6587,-2.6864,-2.6901,-2.719,-2.7996,-2.8348,-2.8624,-2.8913,-2.9202,-2.9365,-2.9365,-2.9616,-2.9792,-2.9792,-2.9792,-2.9792,-2.9792,-3.0055,-3.0206,-3.0206,-3.0721,-3.1135,-3.1411,-3.1938,-3.2353,-3.2654,-3.2943,-3.3124,-3.3025,-3.1134,-2.9954,-2.9315,-2.7437,-2.6294,-2.5693,-2.5693,-2.5693,-2.5693,-2.5693,-2.5693,-2.5693,-2.5693,-2.5693,-2.5693,-3.119,0.0,0.0,0.0,0.0,0.0,0.0,0.0,0.0,0.0,-3.0497,-3.013,-3.0131,-2.9659,-2.9371,-2.951,-2.9554,-2.9651,-2.9786,-2.9786,-2.9819,-2.9953,-2.9968,-2.9968,-2.9968,-3.0447,-3.0702,0.0,0.0,0.0,0.0,0.0,0.0,0.0,0.0,0.0,0.0,0.0,0.0,-3.1511,-3.1511,-3.1511,-3.1511,-3.1511,-3.1511,-3.1511,-3.1511,-3.1511,-3.1424,-3.0879,-3.1073,-3.1278,-2.9862,-2.9338,-2.9066,-2.8019,-2.7229,-2.6679,-2.6521,-2.6499,-2.6499,-2.6499,-2.6499,-2.6499,0.0,0.0,0.0,-2.6499,-2.6499,-2.6499,-2.6499,-2.6499,-2.6461,-2.6348,-2.6424,-2.6612,-2.6917,-2.7444,-2.7871,-2.8084,-2.8461,-2.8737,-2.8737,-2.9289,-2.9666,-2.9779,-2.9792,-2.9792,-2.9792,-2.9792,-2.9792,-2.9792,-3.0231,-3.0507,-3.062,-3.1474,-3.2014,-3.2227,-3.2692,-3.2968,-3.3081,-3.1777,-3.0676,-2.9681,-2.8226,-2.704,-2.6062,-2.5781,-2.5693,-2.5693,-2.5693,-2.5693,-2.5693,-2.5693,-2.5693,-2.5693,-3.119,-3.119,0.0,0.0,0.0,0.0,0.0,0.0,0.0,0.0,0.0,-2.9533,-2.9576,-2.9068,-2.8948,-2.9549,-2.9589,-2.9846,-3.0357,-3.0402,-3.0672,-3.1256,-3.1286,-3.1286,-3.1286,-3.1346,-3.1391,-3.1391,0.0,0.0,0.0,0.0,0.0,0.0,-3.1511,0.0,0.0,0.0,-3.1511,-3.1511,-3.1511,-3.1511,-3.1511,-3.1511,-3.1511,-3.1511,-3.1511,-3.1511,-3.1571,-3.208,-3.193,-3.144,-3.1087,-3.0594,-2.9827,-2.8182,-2.7637,-2.7417,-2.6679,-2.6499,-2.6499,-2.6499,-2.6499,-2.6499,-2.6499,0.0,-2.6499,-2.6499,0.0,-2.6499,-2.6499,0.0,0.0,-2.5774,-2.616,-2.6336,-2.585,-2.6323,-2.704,-2.7996,-2.816,-2.8197,-2.8197,-2.8662,-2.9239,-2.9754,-2.9792,-2.9792,-2.9792,-2.9792,-2.9792,-2.9792,-2.9854,-3.0118,-3.0608,-3.0733,-3.1273,-3.2215,-3.2277,-3.2579,-3.3081,-3.1777,-3.1134,-3.0855,-2.8588,-2.7494,-2.7315,-2.6149,-2.5693,-2.5693,-2.5693,-2.5693,-2.5693,-2.5693,-2.5693,-2.5693,-3.119,-3.119,0.0,0.0,0.0,0.0,0.0,0.0,0.0,0.0,0.0,-3.1726,-3.1755,-3.1565,-3.1397,-3.1296,-3.1332,-3.1265,-3.1076,-3.1077,-3.1212,-3.1496,-3.1511,-3.1511,-3.1511,-3.1511,-3.1511,-3.1511,-3.1511,0.0,0.0,0.0,0.0,0.0,-3.1511,0.0,-3.1511,0.0,-3.1511,-3.1511,-3.1511,-3.1511,-3.1511,-3.1511,-3.1735,-3.2123,-3.2512,-3.2677,-3.2706,-3.2991,-3.2901,-3.2587,-3.2107,-3.1417,-3.0623,-2.954,-2.8492,-2.7637,-2.7284,-2.685,-2.6499,-2.6499,-2.6738,-2.6964,-2.6964,-2.6964,-2.6964,-2.6964,0.0,0.0,0.0,0.0,0.0,0.0,-2.6336,-2.6411,-2.6172,-2.6336,-2.6663,-2.7128,-2.7431,-2.7758,-2.8072,-2.831,-2.8687,-2.9252,-2.9289,-2.944,-2.9779,-2.9792,-2.9792,-2.9792,-2.9792,-2.9905,-3.0131,-3.0457,-3.0846,-3.1298,-3.1913,-3.234,-3.2591,-3.2364,-3.1909,-3.1122,-3.0135,-2.8912,-2.7542,-2.703,-2.639,-2.5693,-2.5693,-2.5693,-2.5693,-2.5693,-2.5693,-2.5693,-3.1799,0.0,0.0,0.0,0.0,0.0,0.0,0.0,-3.2615,-3.2615,-3.2925,-3.3223,-3.3403,-3.3162,-3.2861,-3.2568,-3.2373,-3.2064,-3.1539,-3.1697,-3.171,-3.1511,-3.1866,-3.2007,-3.1796,-3.1964,-3.2076,-3.2076,0.0,0.0,0.0,0.0,0.0,0.0,0.0,-3.1511,-3.1511,0.0,-3.1511,-3.1511,-3.1511,-3.1615,-3.1765,-3.1765,-3.2183,-3.2841,-3.332,-3.3499,-3.3529,-3.3709,-3.3649,-3.344,-3.314,-3.2477,-3.1662,-3.0793,-2.9649,-2.8565,-2.8157,-2.7555,-2.7067,-2.7067,-2.7291,-2.7507,-2.7507,-2.7507,-2.7469,-2.7318,-2.7002,0.0,0.0,0.0,-2.6449,-2.6285,0.0,-2.6436,-2.6285,-2.6399,-2.6499,-2.6499,-2.6851,-2.7268,-2.7821,-2.7883,-2.8109,-2.8624,-2.8813,-2.9076,-2.9528,-2.9704,-2.9792,-2.9792,-2.9792,-2.9792,-2.9792,-3.0193,-3.047,-3.062,-3.1549,-3.2064,-3.2227,-3.2805,-3.2612,-3.1689,-3.1356,-3.0226,-2.8541,-2.7861,-2.7078,-2.6207,-2.583,-2.5693,-2.5693,-2.5693,-2.5693,-2.5693,-3.3339,-3.2188,0.0,0.0,0.0,0.0,0.0,-3.3355,-3.3372,-3.3372,-3.2867,-3.2776,-3.3423,-3.2392,-3.1922,-3.2548,-3.1951,-3.1539,-3.1511,-3.2176,-3.2244,-3.1524,-3.2826,-3.3235,-3.2574,-3.3209,-3.3531,-3.3531,0.0,0.0,0.0,0.0,0.0,0.0,-3.1511,-3.1511,-3.1511,-3.1511,-3.1511,-3.1511,-3.1511,-3.1884,-3.2482,-3.2482,-3.2886,-3.3469,-3.3484,-3.3499,-3.3589,-3.4264,-3.4054,-3.3604,-3.4249,-3.3978,-3.3121,-3.1615,-3.1118,-3.0771,-2.9344,-2.8689,-2.8426,-2.8426,-2.8248,-2.8084,-2.8084,-2.8084,-2.7921,-2.7394,-2.7304,-2.7128,-2.66,-2.6499,-2.6311,-2.5711,-2.6135,0.0,0.0,-2.6135,-2.6499,-2.6499,-2.6512,-2.6738,-2.7256,-2.7341,-2.7544,-2.8097,-2.8624,-2.89,-2.8913,-2.949,-2.9792,-2.9792,-2.9792,-2.9792,-2.9792,-2.9817,-3.0093,-3.062,-3.116,-3.17,-3.2227,-3.2805,-3.3081,-3.2982,-3.1733,-3.1178,-3.0899,-2.8541,-2.7589,-2.741,-2.6197,-2.5693,-2.5693,-2.5693,-2.5693,-2.5693,0.0,0.0,0.0,0.0,0.0,0.0,-3.3372,-3.3812,-3.4134,-3.4134,-3.4386,-3.4639,-3.4868,-3.4499,-3.4357,-3.4635,-3.3967,-3.3566,-3.3603,-3.336,-3.3103,-3.2879,-3.2894,-3.2801,-3.2602,-3.2339,-3.2201,-3.2201,-3.1979,0.0,0.0,0.0,0.0,0.0,0.0,-3.1511,0.0,0.0,0.0,-3.154,-3.1974,-3.2841,-3.3814,-3.3814,-3.3948,-3.4234,-3.4651,-3.4831,-3.4861,-3.5085,-3.5011,-3.4786,-3.4578,-3.4354,-3.3977,-3.3013,-3.2311,-3.1766,-3.1265,-3.0332,-2.9422,-2.9215,-2.9074,-2.8908,-2.8673,-2.8612,-2.8499,-2.7946,-2.7544,-2.7153,-2.66,-2.6499,-2.6436,-2.6235,-2.6361,-2.6424,0.0,-2.6373,-2.6499,-2.6499,-2.6499,-2.6562,-2.6751,-2.6776,-2.7002,-2.7519,-2.7733,-2.816,-2.885,-2.9076,-2.9402,-2.9779,-2.9792,-2.9792,-2.9792,-2.9792,-2.988,-3.008,-3.062,-3.1148,-3.1687,-3.2252,-3.2717,-3.3081,-3.2655,-3.1965,-3.1134,-3.0316,-2.9039,-2.7542,-2.7125,-2.6428,-2.5693,-2.5693,-2.5693,-2.5693,-3.4163,0.0,0.0,0.0,-3.3626,-3.388,-3.4129,-3.459,-3.4895,-3.4895,-3.5554,-3.6028,-3.6028,-3.6024,-3.6043,-3.6084,-3.5439,-3.5045,-3.5096,-3.4829,-3.4595,-3.4402,-3.4169,-3.3939,-3.371,-3.2989,-3.2594,-3.2594,-3.2132,-3.1881,0.0,0.0,0.0,0.0,0.0,-3.1511,-3.1511,-3.1511,-3.1645,-3.1929,-3.2856,-3.3724,-3.4533,-3.4741,-3.4846,-3.4906,-3.534,-3.5504,-3.5504,-3.5504,-3.5504,-3.5429,-3.4981,-3.4846,-3.4711,-3.4038,-3.3471,-3.2972,-3.272,-3.1883,-3.0945,-3.0383,-3.0015,-2.9653,-2.9277,-2.9038,-2.8737,-2.8222,-2.7821,-2.7344,-2.6637,-2.6499,-2.6499,-2.6499,-2.6499,-2.6499,0.0,-2.6499,-2.6499,-2.6499,-2.6499,-2.6499,-2.6499,-2.6499,-2.6637,-2.7002,-2.7168,-2.7595,-2.8298,-2.8675,-2.9063,-2.9478,-2.9691,-2.9792,-2.9792,-2.9792,-2.9792,-2.9804,-3.0357,-3.0884,-3.1411,-3.1964,-3.2528,-3.3124,-3.3124,-3.2612,-3.1821,-3.14,-3.0259,-2.8773,-2.7955,-2.7078,-2.6342,-2.5878,-2.5693,-2.5693,-3.56,-3.56,-3.516,-3.3761,-3.4083,-3.4793,-3.5481,-3.5633,-3.565,-3.565,-3.6349,-3.6846,-3.6846,-3.686,-3.6852,-3.6927,-3.6283,-3.5911,-3.597,-3.6525,-3.6561,-3.5921,-3.6489,-3.6477,-3.5754,-3.5004,-3.4577,-3.4569,-3.3224,0.0,0.0,0.0,0.0,0.0,-3.1511,0.0,-3.1511,-3.1511,-3.1899,-3.2677,-3.3963,-3.4533,-3.4638,-3.525,-3.5504,-3.5504,-3.5504,-3.5504,-3.5504,-3.5504,-3.5504,-3.5504,-3.5504,-3.5504,-3.537,-3.4758,-3.4563,-3.4414,-3.3769,-3.3395,-3.2935,-3.1958,-3.1121,-3.0411,-2.9986,-2.9441,-2.8837,-2.8296,-2.8146,-2.777,-2.6769,-2.6521,-2.6499,-2.6499,-2.6499,-2.6499,-2.6499,-2.6499,-2.6499,-2.6499,-2.6499,-2.6499,-2.6499,-2.6499,-2.6499,-2.6499,-2.6977,-2.7256,-2.7281,-2.8298,-2.8863,-2.8888,-2.949,-2.9792,-2.9792,-2.9792,-2.9792,-2.9804,-3.0331,-3.0859,-3.1411,-3.1938,-3.2503,-3.3124,-3.3124,-3.3124,-3.3025,-3.1777,-3.1267,-3.0989,-2.868,-2.7731,-2.7458,-2.6149,-2.5693,-2.5693,-3.56,-3.56,-3.5481,-3.5092,-3.5177,-3.538,-3.5566,-3.6113,-3.6485,-3.6485,-3.7144,-3.7618,-3.7618,-3.761,-3.7833,-3.8395,-3.7794,-3.7594,-3.8129,-3.7772,-3.7472,-3.7369,-3.7009,-3.6702,-3.6521,-3.5307,-3.4418,-3.3914,-3.3037,0.0,-3.1768,0.0,0.0,0.0,0.0,0.0,-3.1511,-3.1511,-3.2168,-3.332,-3.4174,-3.4786,-3.5265,-3.5429,-3.5504,-3.5504,-3.5504,-3.5504,-3.5504,-3.5504,-3.5504,-3.5504,-3.5504,-3.5504,-3.5474,-3.5295,-3.5235,-3.5205,-3.504,-3.4567,-3.4018,-3.3532,-3.2897,-3.2145,-3.1098,-3.0716,-3.0325,-2.9285,-2.8543,-2.7938,-2.747,-2.6905,-2.6499,-2.6499,-2.6499,-2.6499,-2.6499,-2.6499,-2.6499,-2.6499,-2.6499,-2.6499,-2.6499,-2.6499,-2.6499,-2.6499,-2.6625,-2.6889,-2.7291,-2.7946,-2.8511,-2.8875,-2.949,-2.9792,-2.9792,-2.9792,-2.9792,-2.9792,-2.993,-3.0495,-3.1399,-3.1537,-3.2139,-3.3124,-3.3124,-3.3124,-3.3068,-3.2754,-3.2052,-3.1122,-3.0541,-2.9177,-2.7458,-2.6149,-2.5693,-2.5693,-3.56,-3.5893,-3.6129,-3.6129,-3.64,-3.6495,-3.618,-3.6772,-3.728,-3.728,-3.7922,-3.8379,-3.8379,-3.8667,-3.9022,-3.9453,-3.9089,-3.9039,-3.9445,-3.9059,-3.8824,-3.887,-3.815,-3.776,-3.7761,-3.635,-3.5128,-3.4144,-3.3711,-3.281,-3.1511,0.0,0.0,0.0,0.0,-3.1511,-3.154,-3.2123,-3.2976,-3.3978,-3.4666,-3.516,0.0,-3.5504,-3.5504,-3.5504,-3.5504,-3.5504,-3.5504,-3.5504,-3.5504,-3.5504,-3.5504,-3.5504,-3.5504,-3.5504,-3.5504,-3.5504,-3.5504,-3.522,-3.4803,-3.4158,-3.3566,-3.2929,-3.2005,-3.1313,-3.0771,-3.0519,-2.9495,-2.8688,-2.8698,-2.7774,-2.6905,-2.6555,-2.6499,-2.6499,-2.6499,-2.6499,-2.6499,-2.6499,-2.6499,-2.6499,-2.6499,-2.6499,-2.6499,-2.6499,-2.6499,-2.6625,-2.6939,-2.7444,-2.7996,-2.8512,-2.9114,-2.9528,-2.9792,-2.9792,-2.9792,-2.9792,-2.9792,-3.0357,-3.1386,-3.1386,-3.2001,-3.3124,-3.3124,-3.3124,-3.3124,-3.3124,-3.2655,-3.1965,-3.14,-3.0045,-2.8226,-2.6982,-2.6197,-2.5693,-3.5735,-3.64,-3.6948,-3.6948,-3.755,-3.7838,-3.7202,-3.7635,-3.8041,-3.8041,-3.8684,-3.914,-3.914,-3.9723,-4.0096,-4.0096,-4.0096,-4.0096,-4.0096,-4.0096,-4.0096,-4.0096,-3.9503,-3.914,-3.914,-3.7795,-3.6458,-3.5138,-3.5015,-3.3896,0.0,0.0,0.0,0.0,0.0,0.0,0.0,-3.3066,-3.3979,-3.4563,-3.5235,-3.5504,-3.5504,-3.5504,-3.5504,-3.5504,-3.5504,-3.5504,-3.5504,-3.5504,-3.5504,-3.5504,-3.5504,-3.5504,-3.5504,-3.5504,-3.5504,-3.5504,-3.5504,-3.5504,-3.5279,-3.4428,-3.3839,-3.3398,-3.2905,-3.1796,-3.106,-3.1841,-3.0779,-2.9824,-3.0233,-2.8942,-2.7562,-2.6794,-2.6555,-2.6521,-2.6658,-2.6555,-2.6499,-2.6499,-2.6499,0.0,-2.6499,-2.6499,-2.6499,-2.6499,-2.6499,-2.6499,-2.6499,-2.7014,-2.7544,-2.8084,-2.8599,-2.9202,-2.9779,-2.9792,-2.9792,-2.9792,-2.9792,-3.0357,-3.1386,-3.1386,-3.2001,-3.3124,-3.3124,-3.3124,-3.3124,-3.3124,-3.3124,-3.2982,-3.1689,-3.0541,-2.9498,-2.8272,-2.7125,-2.6149,-3.6451,-3.7178,-3.7719,-3.7719,-3.8311,-3.8751,-3.8616,-3.8717,-3.8802,-3.8802,-3.9445,-3.991,-3.991,-4.0028,-4.0096,-4.0096,-4.0096,-4.0096,-4.0096,-4.0096,-4.0096,-4.0096,-3.9977,-3.991,-3.991,-3.9058,-3.8238,-3.7429,-3.6763,-3.5358,0.0,0.0,0.0,0.0,0.0,0.0,-3.2392,-3.3739,-3.4399,-3.4563,-3.5235,-3.5504,-3.5504,-3.5504,-3.5504,-3.5504,-3.5504,-3.5504,-3.5504,-3.5504,-3.5504,-3.5504,-3.5504,-3.5504,-3.5504,-3.5504,-3.5504,-3.5504,-3.5504,-3.5504,-3.5472,-3.5279,-3.5157,-3.4853,-3.3964,-3.3551,-3.3269,-3.2954,-3.2086,-3.1466,-3.176,-3.0017,-2.829,-2.7583,-2.6939,-2.6714,-2.7384,-2.6905,-2.6499,-2.6499,-2.6499,-2.6499,-2.6499,-2.6499,-2.6499,-2.6499,-2.6499,-2.6499,-2.6499,-2.7014,-2.7544,-2.8084,-2.8599,-2.9202,-2.9779,-2.9792,-2.9792,-2.9792,-2.9792,-3.0357,-3.1386,-3.1386,-3.2001,-3.3124,-3.3124,-3.3124,-3.3124,-3.3124,-3.3124,-3.2982,-3.1689,-3.1078,-3.0721,-2.9544,-2.8947,-2.8448,-3.7297,-3.7956,-3.8464,-3.8464,-3.9073,-3.9571,-3.9571,-3.9884,-4.0003,-3.9622,-4.0206,-4.0663,-4.0663,-4.1001,-4.1247,-4.1247,-4.1247,-4.1247,-4.1247,-4.0865,-4.0663,-4.0663,-4.0316,-4.0096,-4.0096,-3.9757,-3.9068,-3.8008,-3.7952,-3.687,-3.4774,-3.4762,0.0,0.0,0.0,-3.2916,0.0,-3.4234,-3.4713,-3.504,-3.537,-3.5504,-3.5504,-3.5504,-3.5504,-3.5504,-3.5504,-3.5504,-3.5504,-3.5504,-3.5504,-3.5504,-3.5504,-3.5504,-3.5504,-3.5504,-3.5504,-3.5504,-3.5504,-3.5504,-3.5504,-3.5504,-3.5504,-3.5359,-3.4872,-3.4361,-3.4057,-3.431,-3.335,-3.2425,-3.2224,-3.0987,-2.9743,-2.8994,-2.8284,-2.792,-2.833,-2.7637,-2.7129,-2.7129,-2.6748,-2.6499,-2.6499,-2.6499,-2.6499,-2.6499,-2.6499,-2.6499,-2.6499,-2.6751,-2.7278,-2.8084,-2.836,-2.8913,-2.9779,-2.9792,-2.9792,-2.9792,-2.9792,-3.0357,-3.1386,-3.1386,-3.2001,-3.3124,-3.3124,-3.3124,-3.3124,-3.3124,-3.3124,-3.3025,-3.2426,-3.2196,-3.2052,-3.0765,-3.0316,-2.9988,-3.8142,-3.8717,-3.9225,-3.9225,-3.9859,-4.0333,-4.0333,-4.095,-4.117,-4.0434,-4.0967,-4.1441,-4.1441,-4.1948,-4.2286,-4.2286,-4.2286,-4.2286,-4.2286,-4.1762,-4.1373,-4.1221,-4.0629,-4.0265,-4.0096,-4.0096,-3.9564,-3.8465,-3.8984,-3.8136,-3.6002,-3.5947,-3.541,-3.4414,-3.3925,-3.4024,-3.4518,-3.4668,-3.5011,-3.5504,-3.5504,-3.5504,-3.5504,-3.5504,-3.5504,-3.5504,-3.5504,-3.5504,-3.5504,-3.5504,-3.5504,-3.5504,-3.5504,-3.5504,-3.5504,-3.5504,-3.5504,-3.5504,-3.5504,-3.5504,-3.5504,-3.5504,-3.5504,-3.5504,-3.5504,-3.4872,-3.4543,-3.5359,-3.4489,-3.338,-3.2569,-3.1988,-3.132,-3.0413,-2.966,-2.925,-2.9268,-2.8524,-2.7986,-2.7986,-2.7263,-2.6748,-2.6748,-2.6748,-2.6748,-2.6748,-2.6589,-2.6499,-2.6499,-2.6499,-2.7002,-2.8072,-2.8109,-2.8649,-2.9779,-2.9792,-2.9792,-2.9792,-2.9917,-3.047,-3.1386,-3.1512,-3.2114,-3.3124,-3.3124,-3.3124,-3.3124,-3.3124,-3.3124,-3.3124,-3.3124,-3.3124,-3.2982,-3.1965,-3.1589,-3.1267,-3.8886,-3.9503,-3.9994,-3.9994,-4.0595,-4.1102,-4.1102,-4.1711,-4.1931,-4.1187,-4.1728,-4.2185,-4.2185,-4.2252,-4.2286,-4.2286,-4.2286,-4.2286,-4.2286,-4.2236,-4.1897,-4.1238,-4.1136,-4.0781,-4.0113,-4.0096,-4.0054,-3.9919,-3.9969,-3.8866,-3.6724,-3.6702,-3.5595,-3.3637,-3.4175,-3.4444,-3.4548,-3.5145,-3.5444,-3.5504,-3.5504,-3.5504,-3.5504,-3.5504,-3.5504,-3.5504,-3.5504,-3.5504,-3.5504,-3.5504,-3.5504,-3.5504,-3.5504,-3.5504,-3.5504,-3.5504,-3.5504,-3.5504,-3.5504,-3.5504,-3.5504,-3.5504,-3.5504,-3.5504,-3.5504,-3.5439,-3.5392,-3.5472,-3.5379,-3.4851,-3.3365,-3.3046,-3.2594,-3.1286,-3.0411,-2.9977,-3.0158,-2.9442,-2.8876,-2.8876,-2.8117,-2.7571,-2.7571,-2.7571,-2.7571,-2.7571,-2.6905,-2.6499,-2.6499,-2.6499,-2.7002,-2.8072,-2.8109,-2.8649,-2.9779,-2.9792,-2.9792,-2.9804,-3.0306,-3.0834,-3.1411,-3.1901,-3.2478,-3.3124,-3.3124,-3.3124,-3.3124,-3.3124,-3.3124,-3.3124,-3.3124,-3.3124,-3.3081,-3.2982,-3.2927,-3.2698,-4.0324,-4.0899,-4.1433,-4.1433,-4.166,-4.1863,-4.1863,-4.2489,-4.2861,-4.2574,-4.2794,-4.2963,-4.2963,-4.3386,-4.3684,-4.3684,-4.3684,-4.3684,-4.3684,-4.3234,-4.2844,-4.2513,-4.1677,-4.1068,-4.0764,-4.0333,-4.0096,-4.0096,-3.961,-3.8937,-3.8035,-3.7128,-3.5952,-3.4711,-3.4981,-3.51,-3.5115,-3.5385,-3.5504,-3.5504,-3.5504,-3.5504,-3.5504,-3.5504,-3.5504,-3.5504,-3.5504,-3.5504,-3.5504,-3.5504,-3.5504,-3.5504,-3.5504,-3.5504,-3.5504,-3.5504,-3.5504,-3.5504,-3.5504,-3.5504,-3.5504,-3.5504,-3.5504,-3.5504,-3.5504,-3.5504,-3.5504,-3.5504,-3.5504,-3.5317,-3.4679,-3.4262,-3.3805,-3.3273,-3.2579,-3.1986,-3.1662,-3.0877,-3.0179,-2.9825,-2.9002,-2.8492,-2.8492,-2.8492,-2.8492,-2.8492,-2.7703,-2.7229,-2.7229,-2.7065,-2.7306,-2.8084,-2.8423,-2.8988,-2.9779,-2.9792,-2.9792,-2.9804,-3.0357,-3.0884,-3.1411,-3.1964,-3.2528,-3.3124,-3.3124,-3.3124,-3.3124,-3.3124,-3.3124,-3.3124,-3.3124,-3.3124,-3.3124,-3.3124,-3.3124,-3.3025,-4.1525,-4.1931,-4.2286,-4.2286,-4.2472,-4.2625,-4.2625,-4.3267,-4.3758,-4.3758,-4.3758,-4.3758,-4.3758,-4.4248,-4.4615,-4.4615,-4.4615,-4.4615,-4.4615,-4.4062,-4.3656,-4.3409,-4.2405,-4.1762,-4.1525,-4.0798,-4.0409,-4.0409,-3.9633,-3.9146,-3.8894,-3.7568,-3.6551,-3.5831,-3.6085,-3.591,-3.5504,-3.5718,-3.5701,-3.5504,-3.5504,-3.5504,-3.5504,-3.5504,-3.5504,-3.5504,-3.5504,-3.5504,-3.5504,-3.5504,-3.5504,-3.5504,-3.5504,-3.5504,-3.5504,-3.5504,-3.5504,-3.5504,-3.5504,-3.5504,-3.5504,-3.5504,-3.5504,-3.5504,-3.5504,-3.5504,-3.5504,-3.5504,-3.5504,-3.5504,-3.5504,-3.51,-3.4711,-3.4533,-3.4114,-3.3559,-3.2901,-3.209,-3.1432,-3.1009,-3.0033,-2.938,-2.938,-2.938,-2.9324,-2.9251,-2.8652,-2.8206,-2.794,-2.7748,-2.7868,-2.8323,-2.8687,-2.9202,-2.9779,-2.9792,-2.9792,-2.9804,-3.0507,-3.1035,-3.1411,-3.2139,-3.2692,-3.3124,-3.3124,-3.3124,-3.3124,-3.3124,-3.3124,-3.3124,-3.3124,-3.3124,-3.3124,-3.3124,-3.3124,-3.3124,-4.2286,-4.2286,-4.2286,-4.2286,-4.2912,-4.3375,-4.3375,-4.4062,-4.4598,-4.4598,-4.4598,-4.4598,-4.4598,-4.4598,-4.4615,-4.4615,-4.4615,-4.4615,-4.4615,-4.4598,-4.4215,-4.3426,-4.3375,-4.3047,-4.2286,-4.1559,-4.1187,-4.1187,-4.0443,-3.9715,-3.898,-3.8164,-3.7371,-3.66,-3.7427,-3.692,-3.5569,-3.6275,-3.6165,-3.5504,-3.5504,-3.5504,-3.5504,-3.5504,-3.5504,-3.5504,-3.5504,-3.5504,-3.5504,-3.5504,-3.5504,-3.5504,-3.5504,-3.5504,-3.5504,-3.5504,-3.5504,-3.5504,-3.5504,-3.5504,-3.5504,-3.5504,-3.5504,-3.5504,-3.5504,-3.5504,-3.5504,-3.5504,-3.5504,-3.5504,-3.5504,-3.5489,-3.5265,-3.4623,-3.4503,-3.4264,-3.3574,-3.2916,-3.2482,-3.2467,-3.1188,-3.0269,-3.0269,-3.0269,-3.0145,-2.9812,-2.9788,-2.938,-2.8541,-2.8486,-2.862,-2.8875,-2.8888,-2.9202,-2.9779,-2.9792,-2.9792,-2.9804,-3.0871,-3.1386,-3.1436,-3.2554,-3.3111,-3.3124,-3.3124,-3.3124,-3.3124,-3.3124,-3.3124,-3.3124,-3.3124,-3.3124,-3.3124,-3.3124,-3.3124,-3.3124,-4.3064,-4.3487,-4.3887,-4.3887,-4.4045,-4.4215,-4.4215,-4.4445,-4.4615,-4.4615,-4.4615,-4.4615,-4.4615,-4.4615,-4.4615,-4.4615,-4.4615,-4.4615,-4.4615,-4.4615,-4.4496,-4.4215,-4.3707,-4.3274,-4.3064,-4.2337,-4.1694,-4.1204,-4.0471,-3.9429,-3.8187,-3.7938,-3.7668,-3.7397,-3.7114,-3.701,-3.7011,-3.618,-3.6006,-3.6196,-3.5701,-3.5504,-3.5504,-3.5504,-3.5504,-3.5504,-3.5504,-3.5504,-3.5504,-3.5504,-3.5504,-3.5504,-3.5504,-3.5504,-3.5504,-3.5504,-3.5504,-3.5504,-3.5504,-3.5504,-3.5504,-3.5504,-3.5504,-3.5504,-3.5504,-3.5504,-3.5504,-3.5504,-3.5504,-3.5504,-3.5504,-3.5504,-3.5429,-3.522,-3.5175,-3.4936,-3.4294,-3.3978,-3.3679,-3.3245,-3.2763,-3.2478,-3.2478,-3.2478,-3.2429,-3.2326,-3.2309,-3.1375,-2.9231,-2.8895,-2.8795,-2.8875,-2.9315,-2.9603,-2.9792,-2.9792,-2.998,-3.0357,-3.106,-3.18,-3.2554,-3.2918,-3.3124,-3.3124,-3.3124,-3.3124,-3.3124,-3.3124,-3.3124,-3.3124,-3.3124,-3.3124,-3.3124,-3.3124,-3.3124,-3.3124,-4.3859,-4.4248,-4.4615,-4.4615,-4.4615,-4.4615,-4.4615,-4.4615,-4.4615,-4.4615,-4.4615,-4.4615,-4.4615,-4.4615,-4.4615,-4.4615,-4.4615,-4.4615,-4.4615,-4.4615,-4.4615,-4.4615,-4.4113,-4.3859,-4.3859,-4.3098,-4.2489,-4.2033,-4.1,-4.0034,-3.9061,-3.8782,-3.8513,-3.8189,-3.8003,-3.7876,-3.7764,-3.7086,-3.6722,-3.6554,-3.6086,-3.5765,-3.5504,-3.5504,-3.5504,-3.5504,-3.5504,-3.5504,-3.5504,-3.5504,-3.5504,-3.5504,-3.5504,-3.5504,-3.5504,-3.5504,-3.5504,-3.5504,-3.5504,-3.5504,-3.5504,-3.5504,-3.5504,-3.5504,-3.5504,-3.5504,-3.5504,-3.5504,-3.5504,-3.5504,-3.5504,-3.5504,-3.5504,-3.5504,-3.5504,-3.5355,-3.4921,-3.4668,-3.4354,-3.3918,-3.3649,-3.3499,-3.3499,-3.3499,-3.3466,-3.3345,-3.3328,-3.2551,-3.071,-3.0171,-2.9722,-2.9252,-2.9603,-2.9792,-2.9792,-2.9792,-3.0068,-3.062,-3.1348,-3.219,-3.3124,-3.3124,-3.3124,-3.3124,-3.3124,-3.3124,-3.3124,-3.3124,-3.3124,-3.3124,-3.3124,-3.3124,-3.3124,-3.3124,-3.3124,-3.3124,-4.4615,-4.4615,-4.4615,-4.4615,-4.4615,-4.4615,-4.4615,-4.4615,-4.4615,-4.4615,-4.4615,-4.4615,-4.4615,-4.4615,-4.4615,-4.4615,-4.4615,-4.4615,-4.4615,-4.4615,-4.4615,-4.4615,-4.4615,-4.4615,-4.4615,-4.3876,-4.3443,-4.3392,-4.1982,-4.1288,-4.1271,-4.0587,-3.9822,-3.9098,-3.9798,-3.9302,-3.8007,-3.858,-3.8015,-3.6752,-3.6691,-3.6228,-3.5587,-3.5587,-3.5522,-3.5504,-3.5504,-3.5504,-3.5519,-3.5549,-3.5579,-3.5579,-3.5624,-3.5639,-3.5624,-3.5594,-3.5579,-3.5579,-3.5624,-3.5639,-3.5624,-3.5579,-3.5534,-3.5504,-3.5504,-3.5504,-3.5504,-3.5504,-3.5504,-3.5504,-3.5504,-3.5504,-3.5504,-3.5504,-3.5504,-3.5504,-3.5504,-3.4951,-3.4578,-3.4578,-3.4008,-3.3634,-3.3634,-3.3634,-3.353,-3.3295,-3.3273,-3.31,-3.2721,-3.2103,-3.1191,-2.996,-2.9895,-2.9869,-2.9792,-2.9829,-3.0143,-3.0733,-3.1775,-3.2554,-3.3124,-3.3124,-3.3124,-3.3124,-3.3124,-3.3124,-3.3124,-3.3124,-3.3124,-3.3124,-3.3124,-3.3124,-3.3124,-3.3124,-3.3124,-3.3124,-4.4615,-4.4615,-4.4615,-4.4615,-4.4615,-4.4615,-4.4615,-4.4615,-4.4615,-4.4615,-4.4615,-4.4615,-4.4615,-4.4615,-4.4615,-4.4615,-4.4615,-4.4615,-4.4615,-4.4615,-4.4615,-4.4615,-4.4615,-4.4615,-4.4615,-4.4401,-4.4012,-4.3392,-4.2489,-4.2033,-4.2033,-4.1847,-4.1379,-4.0639,-4.0261,-3.9891,-3.948,-3.8486,-3.8161,-3.8314,-3.7732,-3.704,-3.6337,-3.6337,-3.6006,-3.5504,-3.5504,-3.5504,-3.5579,-3.6088,-3.6252,-3.6327,-3.6806,-3.6956,-3.6866,-3.6387,-3.6252,-3.6357,-3.6836,-3.6956,-3.6851,-3.6372,-3.5878,-3.5504,-3.5504,-3.5504,-3.5504,-3.5504,-3.5504,-3.5504,-3.5504,-3.5504,-3.5504,-3.5504,-3.5504,-3.5504,-3.5504,-3.537,-3.5265,-3.5265,-3.5115,-3.504,-3.504,-3.504,-3.4989,-3.4943,-3.491,-3.4545,-3.3691,-3.3528,-3.2632,-3.0932,-3.0871,-3.052,-2.9792,-3.0218,-3.0896,-3.1838,-3.2541,-3.2943,-3.3124,-3.3124,-3.3124,-3.3124,-3.3124,-3.3124,-3.3124,-3.3124,-3.3124,-3.3124,-3.3124,-3.3124,-3.3124,-3.3124,-3.3124,-3.3124,-4.4615,-4.4615,-4.4615,-4.4615,-4.4615,-4.4615,-4.4615,-4.4615,-4.4615,-4.4615,-4.4615,-4.4615,-4.4615,-4.4615,-4.4615,-4.4615,-4.4615,-4.4615,-4.4615,-4.4615,-4.4615,-4.4615,-4.4615,-4.4615,-4.4615,-4.4615,-4.4395,-4.3944,-4.3183,-4.2811,-4.2811,-4.2455,-4.2083,-4.1711,-4.1272,-4.1124,-4.1059,-4.0204,-3.9885,-3.9929,-3.9508,-3.8868,-3.8102,-3.7717,-3.7323,-3.6919,-3.6523,-3.6372,-3.6432,-3.6791,-3.6911,-3.6971,-3.73,-3.7404,-3.7404,-3.736,-3.715,-3.6985,-3.7315,-3.7404,-3.733,-3.6985,-3.6432,-3.5953,-3.5953,-3.5729,-3.5504,-3.5504,-3.5504,-3.5504,-3.5504,-3.5504,-3.5504,-3.5504,-3.5504,-3.5504,-3.5504,-3.5504,-3.5504,-3.5504,-3.5504,-3.5504,-3.5504,-3.5504,-3.5504,-3.5504,-3.5504,-3.5246,-3.4725,-3.4691,-3.3822,-3.1888,-3.1852,-3.1498,-3.0791,-3.1175,-3.1637,-3.2227,-3.2805,-3.3124,-3.3124,-3.3124,-3.3124,-3.3124,-3.3124,-3.3124,-3.3124,-3.3124,-3.3124,-3.3124,-3.3124,-3.3124,-3.3124,-3.3124,-3.3124,-3.3124,-4.4615,-4.4615,-4.4615,-4.4615,-4.4615,-4.4615,-4.4615,-4.4615,-4.4615,-4.4615,-4.4615,-4.4615,-4.4615,-4.4615,-4.4615,-4.4615,-4.4615,-4.4615,-4.4615,-4.4615,-4.4615,-4.4615,-4.4615,-4.4615,-4.4615,-4.4615,-4.4615,-4.4615,-4.3927,-4.3589,-4.3589,-4.2929,-4.2574,-4.2472,-4.2472,-4.2388,-4.2286,-4.2286,-4.1946,-4.1359,-4.1359,-4.0898,-4.0112,-3.9361,-3.8998,-3.8774,-3.7901,-3.7594,-3.7575,-3.7558,-3.7554,-3.7584,-3.7674,-3.7719,-3.7823,-3.8377,-3.8153,-3.7719,-3.7719,-3.7644,-3.7554,-3.7554,-3.709,-3.6626,-3.6626,-3.6133,-3.5654,-3.5654,-3.5579,-3.5504,-3.5504,-3.5504,-3.5504,-3.5504,-3.5504,-3.5504,-3.5504,-3.5504,-3.5504,-3.5504,-3.5504,-3.5504,-3.5504,-3.5504,-3.5504,-3.5504,-3.5504,-3.5504,-3.5504,-3.5504,-3.4783,-3.3241,-3.303,-3.2823,-3.2518,-3.2476,-3.2491,-3.2579,-3.2915,-3.3124,-3.3124,-3.3124,-3.3124,-3.3124,-3.3124,-3.3124,-3.3124,-3.3124,-3.3124,-3.3124,-3.3124,-3.3124,-3.3124,-3.3124,-3.3124,-3.3124,-4.4615,-4.4615,-4.4615,-4.4615,-4.4615,-4.4615,-4.4615,-4.4615,-4.4615,-4.4615,-4.4615,-4.4615,-4.4615,-4.4615,-4.4615,-4.4615,-4.4615,-4.4615,-4.4615,-4.4615,-4.4615,-4.4615,-4.4615,-4.4615,-4.4615,-4.4615,-4.4615,-4.4615,-4.4479,-4.4401,-4.4401,-4.431,-4.3876,-4.325,-4.325,-4.2878,-4.2286,-4.2286,-4.2233,-4.2136,-4.2136,-4.1666,-4.1001,-4.084,-4.0397,-3.967,-3.8806,-3.8498,-3.846,-3.831,-3.8242,-3.8332,-3.8931,-3.9074,-3.9125,-3.9194,-3.9185,-3.9074,-3.9074,-3.8676,-3.8242,-3.8242,-3.7749,-3.727,-3.727,-3.6791,-3.6327,-3.6327,-3.5893,-3.5504,-3.5504,-3.5504,-3.5504,-3.5504,-3.5504,-3.5504,-3.5504,-3.5504,-3.5504,-3.5504,-3.5504,-3.5504,-3.5504,-3.5504,-3.5504,-3.5504,-3.5504,-3.5504,-3.5504,-3.5504,-3.5612,-3.59,-3.5091,-3.4723,-3.486,-3.3993,-3.3827,-3.4297,-3.3475,-3.3124,-3.3124,-3.3124,-3.3124,-3.3124,-3.3124,-3.3124,-3.3124,-3.3124,-3.3124,-3.3124,-3.3124,-3.3124,-3.3124,-3.3124,-3.3124,-3.3124,-4.4615,-4.4615,-4.4615,-4.4615,-4.4615,-4.4615,-4.4615,-4.4615,-4.4615,-4.4615,-4.4615,-4.4615,-4.4615,-4.4615,-4.4615,-4.4615,-4.4615,-4.4615,-4.4615,-4.4615,-4.4615,-4.4615,-4.4615,-4.4615,-4.4615,-4.4615,-4.4615,-4.4615,-4.4615,-4.4615,-4.4615,-4.4615,-4.4412,-4.4045,-4.4045,-4.3842,-4.3548,-4.3548,-4.3548,-4.3548,-4.3548,-4.3356,-4.2986,-4.2522,-4.2108,-4.1655,-4.0801,-4.0174,-3.9758,-3.9657,-3.9325,-3.899,-3.932,-3.9388,-3.9388,-3.9388,-3.9388,-3.9388,-3.9388,-3.9185,-3.8945,-3.8945,-3.8437,-3.7943,-3.7943,-3.7449,-3.6881,-3.6552,-3.6237,-3.5923,-3.5564,-3.5504,-3.5504,-3.5504,-3.5504,-3.5504,-3.5504,-3.5504,-3.5504,-3.5504,-3.5504,-3.5504,-3.5504,-3.5504,-3.5504,-3.5504,-3.5504,-3.5504,-3.5504,-3.5833,-3.6178,-3.6477,-3.6164,-3.6041,-3.6165,-3.5437,-3.5223,-3.5507,-3.447,-3.3953,-3.3953,-3.3356,-3.3124,-3.3124,-3.3124,-3.3124,-3.3124,-3.3124,-3.3124,-3.3124,-3.3124,-3.3124,-3.3124,-3.3124,-3.3124,-3.3124,-4.4615,-4.4615,-4.4615,-4.4615,-4.4615,-4.4615,-4.4615,-4.4615,-4.4615,-4.4615,-4.4615,-4.4615,-4.4615,-4.4615,-4.4615,-4.4615,-4.4615,-4.4615,-4.4615,-4.4615,-4.4615,-4.4615,-4.4615,-4.4615,-4.4615,-4.4615,-4.4615,-4.4615,-4.4615,-4.4615,-4.4615,-4.4615,-4.4615,-4.4615,-4.4615,-4.4615,-4.4615,-4.4615,-4.4615,-4.4615,-4.4615,-4.4615,-4.4514,-4.3844,-4.3591,-4.3502,-4.2614,-4.1739,-4.0979,-4.0758,-4.0115,-3.9388,-3.9388,-3.9388,-3.9388,-3.9388,-3.9388,-3.9388,-3.9388,-3.9388,-3.9388,-3.9388,-3.902,-3.8631,-3.8631,-3.8108,-3.7509,-3.703,-3.6686,-3.6327,-3.5833,-3.5609,-3.5504,-3.5504,-3.5504,-3.5504,-3.5504,-3.5504,-3.5504,-3.5504,-3.5504,-3.5504,-3.5504,-3.5504,-3.5504,-3.5504,-3.5654,-3.5729,-3.5729,-3.6342,-3.6776,-3.6926,-3.7072,-3.7266,-3.7389,-3.6844,-3.6565,-3.6565,-3.5561,-3.5047,-3.5007,-3.3953,-3.3471,-3.3484,-3.3197,-3.3124,-3.3124,-3.3124,-3.3124,-3.3124,-3.3124,-3.3124,-3.3124,-3.3124,-3.3124,-3.3124,-4.4615,-4.4615,-4.4615,-4.4615,-4.4615,-4.4615,-4.4615,-4.4615,-4.4615,-4.4615,-4.4615,-4.4615,-4.4615,-4.4615,-4.4615,-4.4615,-4.4615,-4.4615,-4.4615,-4.4615,-4.4615,-4.4615,-4.4615,-4.4615,-4.4615,-4.4615,-4.4615,-4.4615,-4.4615,-4.4615,-4.4615,-4.4615,-4.4615,-4.4615,-4.4615,-4.4615,-4.4615,-4.4615,-4.4615,-4.4615,-4.4615,-4.4615,-4.4598,-4.4542,-4.4514,-4.4384,-4.3532,-4.2645,-4.1772,-4.0979,-4.0115,-3.9388,-3.9388,-3.9388,-3.9388,-3.9388,-3.9388,-3.9388,-3.9388,-3.9388,-3.9388,-3.9388,-3.9343,-3.9349,-3.9349,-3.8811,-3.8302,-3.8257,-3.7315,-3.6477,-3.6432,-3.5908,-3.5504,-3.5504,-3.5504,-3.5504,-3.5504,-3.5504,-3.5504,-3.5504,-3.5504,-3.5504,-3.5504,-3.5504,-3.5504,-3.5504,-3.6073,-3.6417,-3.6417,-3.7,-3.7629,-3.8227,-3.8262,-3.8585,-3.9175,-3.819,-3.7663,-3.7663,-3.6604,-3.6093,-3.6053,-3.5047,-3.4594,-3.4553,-3.3513,-3.3124,-3.3124,-3.3124,-3.3124,-3.3124,-3.3124,-3.3124,-3.3124,-3.3124,-3.3124,-3.3124,-4.4682,-4.4615,-4.4615,-4.4615,-4.4615,-4.4615,-4.4615,-4.4615,-4.4615,-4.4615,-4.4615,-4.4615,-4.4615,-4.4615,-4.4615,-4.4615,-4.4615,-4.4615,-4.4615,-4.4615,-4.4615,-4.4615,-4.4615,-4.4615,-4.4615,-4.4615,-4.4615,-4.4615,-4.4615,-4.4615,-4.4615,-4.4615,-4.4615,-4.4615,-4.4615,-4.4615,-4.4615,-4.4615,-4.4615,-4.4615,-4.4615,-4.4615,-4.4615,-4.4615,-4.4615,-4.4542,-4.4224,-4.3545,-4.2754,-4.241,-4.1739,-4.0995,-4.0995,-4.0995,-4.0894,-4.0378,-4.0603,-4.0894,-4.0343,-3.9793,-3.9388,-3.9388,-3.9388,-3.9388,-3.9388,-3.9215,-3.8901,-3.8482,-3.8003,-3.7539,-3.7135,-3.6851,-3.6567,-3.6178,-3.6118,-3.5968,-3.5564,-3.5504,-3.5504,-3.5504,-3.5504,-3.5669,-3.6073,-3.6118,-3.6267,-3.6656,-3.6911,-3.706,-3.706,-3.7659,-3.8332,-3.9005,-3.9035,-3.9155,-3.9388,-3.898,-3.8782,-3.8782,-3.7701,-3.7175,-3.7175,-3.6107,-3.5628,-3.5588,-3.454,-3.4066,-3.4037,-3.3356,-3.3124,-3.3124,-3.3124,-3.3124,-3.3124,-3.3124,-3.3124,-3.3124,-4.4944,-4.472,-4.4615,-4.4615,-4.4615,-4.4615,-4.4615,-4.4615,-4.4615,-4.4615,-4.4615,-4.4615,-4.4615,-4.4615,-4.4615,-4.4615,-4.4615,-4.4615,-4.4615,-4.4615,-4.4615,-4.4615,-4.4615,-4.4615,-4.4615,-4.4615,-4.4615,-4.4615,-4.4615,-4.4615,-4.4615,-4.4615,-4.4615,-4.4615,-4.4615,-4.4615,-4.4615,-4.4615,-4.4615,-4.4615,-4.4615,-4.4615,-4.4615,-4.4615,-4.4615,-4.4615,-4.4615,-4.4035,-4.3306,-4.3306,-4.2707,-4.1997,-4.1997,-4.1997,-4.1901,-4.128,-4.1543,-4.1869,-4.128,-4.0672,-4.0165,-3.9864,-3.9793,-3.9737,-3.9445,-3.961,-3.9602,-3.8882,-3.8542,-3.8257,-3.7808,-3.7539,-3.727,-3.6851,-3.6776,-3.6611,-3.6163,-3.6103,-3.6103,-3.6103,-3.6103,-3.6282,-3.6731,-3.6776,-3.6941,-3.7375,-3.7599,-3.7808,-3.8033,-3.8467,-3.8931,-3.9373,-3.9388,-3.9388,-3.9388,-3.9388,-3.9388,-3.9388,-3.8671,-3.8308,-3.8271,-3.7175,-3.6682,-3.6657,-3.5641,-3.517,-3.5129,-3.4374,-3.4053,-3.4053,-3.4053,-3.3869,-3.3598,-3.3598,-3.3398,-3.3124,-4.5511,-4.5025,-4.4615,-4.4615,-4.4615,-4.4615,-4.4615,-4.4615,-4.4615,-4.4615,-4.4615,-4.4615,-4.4615,-4.4615,-4.4615,-4.4615,-4.4615,-4.4615,-4.4615,-4.4615,-4.4615,-4.4615,-4.4615,-4.4615,-4.4615,-4.4615,-4.4615,-4.4615,-4.4615,-4.4615,-4.4615,-4.4615,-4.4615,-4.4615,-4.4615,-4.4615,-4.4615,-4.4615,-4.4615,-4.4615,-4.4615,-4.4615,-4.4615,-4.4615,-4.4615,-4.4615,-4.4615,-4.4035,-4.3306,-4.3306,-4.2754,-4.2029,-4.2029,-4.2029,-4.2029,-4.2029,-4.2029,-4.2029,-4.2029,-4.1997,-4.1804,-4.0912,-4.0724,-4.0466,-3.961,-4.008,-4.0466,-3.9574,-3.8871,-3.8407,-3.8407,-3.7853,-3.7419,-3.7419,-3.7419,-3.7419,-3.7404,-3.7404,-3.7404,-3.7404,-3.7404,-3.7404,-3.7419,-3.7419,-3.7419,-3.7419,-3.8033,-3.8691,-3.9343,-3.9388,-3.9388,-3.9388,-3.9388,-3.9388,-3.9388,-3.9388,-3.9388,-3.9388,-3.9388,-3.9388,-3.9337,-3.8308,-3.7791,-3.7753,-3.6682,-3.6198,-3.6198,-3.6198,-3.6198,-3.6198,-3.6198,-3.5588,-3.4705,-3.4705,-3.4037,-3.3124,-4.5673,-4.5372,-4.5089,-4.4682,-4.4615,-4.4615,-4.4615,-4.4615,-4.4615,-4.4615,-4.4615,-4.4615,-4.4615,-4.4615,-4.4615,-4.4615,-4.4615,-4.4615,-4.4615,-4.4615,-4.4615,-4.4615,-4.4615,-4.4615,-4.4615,-4.4615,-4.4615,-4.4615,-4.4615,-4.4615,-4.4615,-4.4615,-4.4615,-4.4615,-4.4615,-4.4615,-4.4615,-4.4615,-4.4615,-4.4615,-4.4615,-4.4615,-4.4615,-4.4615,-4.4615,-4.4615,-4.4615,-4.444,-4.4196,-4.4196,-4.4035,-4.3827,-4.3827,-4.3827,-4.371,-4.3092,-4.335,-4.371,-4.3078,-4.2909,-4.2707,-4.1836,-4.1609,-4.1379,-4.05,-4.0519,-4.0466,-3.9574,-3.926,-3.911,-3.911,-3.8945,-3.8661,-3.8182,-3.8093,-3.7943,-3.7479,-3.7404,-3.7404,-3.7404,-3.7404,-3.7584,-3.8048,-3.8093,-3.8302,-3.8781,-3.9005,-3.92,-3.9373,-3.9388,-3.9388,-3.9388,-3.9388,-3.9388,-3.9388,-3.9388,-3.9388,-3.9388,-3.9388,-3.9388,-3.9388,-3.9068,-3.8907,-3.887,-3.7776,-3.7305,-3.7252,-3.6526,-3.6198,-3.6198,-3.6198,-3.6013,-3.5668,-3.4979,-3.4511,-3.4108,-4.6401,-4.6039,-4.5732,-4.5372,-4.5115,-4.4961,-4.4961,-4.4748,-4.4615,-4.4615,-4.4615,-4.4615,-4.4615,-4.4615,-4.4615,-4.4615,-4.4615,-4.4615,-4.4615,-4.4615,-4.4615,-4.4615,-4.4615,-4.4615,-4.4615,-4.4615,-4.4615,-4.4615,-4.4615,-4.4615,-4.4615,-4.4615,-4.4615,-4.4615,-4.4615,-4.4615,-4.4615,-4.4615,-4.4615,-4.4615,-4.4615,-4.4615,-4.4615,-4.4615,-4.4615,-4.4615,-4.4615,-4.4615,-4.4615,-4.4615,-4.4615,-4.4615,-4.4615,-4.4615,-4.4514,-4.3977,-4.4196,-4.4485,-4.3977,-4.3814,-4.368,-4.3152,-4.2769,-4.2189,-4.0979,-4.0979,-4.086,-3.9646,-3.9388,-3.9388,-3.9388,-3.9388,-3.929,-3.8871,-3.8796,-3.8661,-3.8257,-3.8197,-3.8197,-3.8197,-3.8197,-3.8362,-3.8751,-3.8796,-3.8975,-3.9394,-3.9388,-3.9388,-3.9388,-3.9388,-3.9388,-3.9388,-3.9388,-3.9388,-3.9388,-3.9388,-3.9388,-3.9388,-3.9388,-3.9388,-3.9388,-3.9388,-3.9388,-3.9337,-3.8708,-3.8435,-3.8383,-3.7724,-3.7482,-3.7482,-3.7482,-3.7214,-3.6774,-3.616,-3.5655,-3.5197,-4.7406,-4.691,-4.6478,-4.6407,-4.589,-4.5511,-4.5511,-4.4998,-4.4615,-4.4615,-4.4615,-4.4615,-4.4615,-4.4615,-4.4615,-4.4615,-4.4615,-4.4615,-4.4615,-4.4615,-4.4615,-4.4615,-4.4615,-4.4615,-4.4615,-4.4615,-4.4615,-4.4615,-4.4615,-4.4615,-4.4615,-4.4615,-4.4615,-4.4615,-4.4615,-4.4615,-4.4615,-4.4615,-4.4615,-4.4615,-4.4615,-4.4615,-4.4615,-4.4615,-4.4615,-4.4615,-4.4615,-4.4615,-4.4615,-4.4615,-4.4615,-4.4615,-4.4615,-4.4615,-4.4615,-4.4615,-4.4615,-4.4615,-4.4615,-4.4615,-4.4615,-4.4615,-4.4006,-4.297,-4.1313,-4.1543,-4.1642,-3.997,-3.9646,-3.9646,-3.9646,-3.9646,-3.9646,-3.9646,-3.9574,-3.9517,-3.9517,-3.9445,-3.9388,-3.9388,-3.9388,-3.9388,-3.9388,-3.9388,-3.9388,-3.9388,-3.9388,-3.9388,-3.9388,-3.9388,-3.9388,-3.9388,-3.9388,-3.9388,-3.9388,-3.9388,-3.9388,-3.9388,-3.9388,-3.9388,-3.9388,-3.9388,-3.9388,-3.9388,-3.9388,-3.9388,-3.9388,-3.9388,-3.9388,-3.9388,-3.9388,-3.8782,-3.7919,-3.7829,-3.7175,-3.633,-4.7491,-4.7281,-4.7021,-4.6501,-4.589,-4.5511,-4.5511,-4.4998,-4.4615,-4.4615,-4.4615,-4.4615,-4.4615,-4.4615,-4.4615,-4.4615,-4.4615,-4.4615,-4.4615,-4.4615,-4.4615,-4.4615,-4.4615,-4.4615,-4.4615,-4.4615,-4.4615,-4.4615,-4.4615,-4.4615,-4.4615,-4.4615,-4.4615,-4.4615,-4.4615,-4.4615,-4.4615,-4.4615,-4.4615,-4.4615,-4.4615,-4.4615,-4.4615,-4.4615,-4.4615,-4.4615,-4.4615,-4.4615,-4.4615,-4.4615,-4.4615,-4.4615,-4.4615,-4.4615,-4.4615,-4.4615,-4.4615,-4.4615,-4.4615,-4.4615,-4.4615,-4.4615,-4.4457,-4.4035,-4.297,-4.2878,-4.2724,-4.1642,-4.1445,-4.1445,-4.1445,-4.1445,-4.1445,-4.1445,-4.086,-4.0432,-4.0432,-3.9829,-3.9388,-3.9388,-3.9388,-3.9388,-3.9388,-3.9388,-3.9388,-3.9388,-3.9388,-3.9388,-3.9388,-3.9388,-3.9388,-3.9388,-3.9388,-3.9388,-3.9388,-3.9388,-3.9388,-3.9388,-3.9388,-3.9388,-3.9388,-3.9388,-3.9388,-3.9388,-3.9388,-3.9388,-3.9388,-3.9388,-3.9388,-3.9388,-3.9388,-3.9265,-3.8943,-3.8107,-3.7663,-3.7343,-4.7897,-4.7818,-4.7736,-4.7367,-4.6819,-4.6401,-4.6401,-4.5858,-4.5372,-4.5062,-4.5025,-4.4934,-4.4626,-4.4615,-4.4615,-4.4615,-4.4615,-4.4615,-4.4615,-4.4615,-4.4615,-4.4615,-4.4615,-4.4615,-4.4615,-4.4615,-4.4615,-4.4615,-4.4615,-4.4615,-4.4615,-4.4615,-4.4615,-4.4615,-4.4615,-4.4615,-4.4615,-4.4615,-4.4615,-4.4615,-4.4615,-4.4615,-4.4615,-4.4615,-4.4615,-4.4615,-4.4615,-4.4615,-4.4615,-4.4615,-4.4615,-4.4615,-4.4615,-4.4615,-4.4615,-4.4615,-4.4615,-4.4615,-4.4615,-4.4615,-4.4615,-4.4615,-4.4615,-4.4384,-4.3502,-4.3306,-4.3047,-4.2189,-4.1997,-4.1997,-4.1997,-4.1997,-4.1997,-4.1997,-4.1609,-4.1313,-4.1313,-4.0569,-4.0025,-4.0025,-3.9631,-3.9388,-3.9388,-3.9388,-3.9388,-3.9388,-3.9388,-3.9388,-3.9388,-3.9388,-3.9388,-3.9388,-3.9388,-3.9388,-3.9388,-3.9388,-3.9388,-3.9388,-3.9388,-3.9388,-3.9388,-3.9388,-3.9388,-3.9388,-3.9388,-3.9388,-3.9388,-3.9388,-3.9388,-3.9388,-3.9388,-3.9388,-3.9337,-3.8782,-3.8546,-3.8457,-4.8306,-4.8306,-4.8306,-4.8306,-4.7797,-4.7406,-4.7406,-4.6842,-4.6216,-4.5707,-4.5648,-4.5407,-4.4814,-4.4654,-4.4615,-4.4615,-4.4615,-4.4615,-4.4615,-4.4615,-4.4615,-4.4615,-4.4615,-4.4615,-4.4615,-4.4615,-4.4615,-4.4615,-4.4615,-4.4615,-4.4615,-4.4615,-4.4615,-4.4615,-4.4615,-4.4615,-4.4615,-4.4615,-4.4615,-4.4615,-4.4615,-4.4615,-4.4615,-4.4615,-4.4615,-4.4615,-4.4615,-4.4615,-4.4615,-4.4615,-4.4615,-4.4615,-4.4615,-4.4615,-4.4615,-4.4615,-4.4615,-4.4615,-4.4615,-4.4615,-4.4615,-4.4615,-4.4615,-4.4412,-4.368,-4.3532,-4.3336,-4.2583,-4.2442,-4.2442,-4.2442,-4.2442,-4.2442,-4.2442,-4.2316,-4.2221,-4.2221,-4.1346,-4.069,-4.069,-3.992,-3.9388,-3.9388,-3.9388,-3.9388,-3.9388,-3.9388,-3.9388,-3.9388,-3.9388,-3.9388,-3.9388,-3.9388,-3.9388,-3.9388,-3.9388,-3.9388,-3.9388,-3.9388,-3.9388,-3.9388,-3.9388,-3.9388,-3.9388,-3.9388,-3.9388,-3.9388,-3.9388,-3.9388,-3.9388,-3.9388,-3.9388,-3.9388,-3.9388,-3.9388,-3.9388,-4.8306,-4.8306,-4.8306,-4.8306,-4.7797,-4.7406,-4.7406,-4.6842,-4.6383,-4.6288,-4.6288,-4.6063,-4.5433,-4.4906,-4.4615,-4.4615,-4.4615,-4.4615,-4.4615,-4.4615,-4.4615,-4.4615,-4.4615,-4.4615,-4.4615,-4.4615,-4.4615,-4.4615,-4.4615,-4.4615,-4.4615,-4.4615,-4.4615,-4.4615,-4.4615,-4.4615,-4.4615,-4.4615,-4.4615,-4.4615,-4.4615,-4.4615,-4.4615,-4.4615,-4.4615,-4.4615,-4.4615,-4.4615,-4.4615,-4.4615,-4.4615,-4.4615,-4.4615,-4.4615,-4.4615,-4.4615,-4.4615,-4.4615,-4.4615,-4.4615,-4.4615,-4.4615,-4.4615,-4.457,-4.4457,-4.4412,-4.4384,-4.4281,-4.4253,-4.4253,-4.4253,-4.4253,-4.4253,-4.4253,-4.3621,-4.3108,-4.3108,-4.1723,-4.069,-4.069,-3.992,-3.9388,-3.9388,-3.9388,-3.9388,-3.9388,-3.9388,-3.9388,-3.9388,-3.9388,-3.9388,-3.9388,-3.9388,-3.9388,-3.9388,-3.9388,-3.9388,-3.9388,-3.9388,-3.9388,-3.9388,-3.9388,-3.9388,-3.9388,-3.9388,-3.9388,-3.9388,-3.9388,-3.9388,-3.9388,-3.9388,-3.9388,-3.9388,-3.9388,-3.9388,-3.9388,-4.8306,-4.8306,-4.8306,-4.8306,-4.8075,-4.7897,-4.7897,-4.7656,-4.7345,-4.6999,-4.6955,-4.671,-4.607,-4.5459,-4.5115,-4.5115,-4.4786,-4.4615,-4.4615,-4.4615,-4.4615,-4.4615,-4.4615,-4.4615,-4.4615,-4.4615,-4.4615,-4.4615,-4.4615,-4.4615,-4.4615,-4.4615,-4.4615,-4.4615,-4.4615,-4.4615,-4.4615,-4.4615,-4.4615,-4.4615,-4.4615,-4.4615,-4.4615,-4.4615,-4.4615,-4.4615,-4.4615,-4.4615,-4.4615,-4.4615,-4.4615,-4.4615,-4.4615,-4.4615,-4.4615,-4.4615,-4.4615,-4.4615,-4.4615,-4.4615,-4.4615,-4.4615,-4.4615,-4.4615,-4.4615,-4.4615,-4.4615,-4.4615,-4.4615,-4.4615,-4.4615,-4.4615,-4.4615,-4.4615,-4.4281,-4.4035,-4.4035,-4.2939,-4.1965,-4.1462,-4.1095,-4.0842,-4.0842,-4.0842,-4.0842,-4.0842,-4.0413,-4.0115,-4.0115,-3.9666,-3.9388,-3.9388,-3.9388,-3.9388,-3.9388,-3.9388,-3.9388,-3.9388,-3.9388,-3.9388,-3.9388,-3.9388,-3.9388,-3.9388,-3.9388,-3.9388,-3.9388,-3.9388,-3.9388,-3.9388,-3.9388,-3.9388,-3.9388,-3.9388,-3.9388,-3.9388]},{"header":{"parameterUnit":"m.s-1","parameterCategory":1,"la1":30.6,"la2":28.766,"lo1":-90.7593,"lo2":-88.6598,"dy":0.0162,"dx":0.0183,"nx":116,"ny":114,"refTime":"2023-06-26T12:00:00:Z","depth":0,"parameterNumber":3,"parameterNumberName":"V-component_of_WINDS"},"data":[0.0,0.0,0.0,0.0,0.0,0.0,0.0,0.0,0.0,0.0,0.0,0.0,0.0,0.0,0.0,0.0,0.0,0.0,0.0,0.0,0.0,0.0,0.0,0.0,0.0,0.0,0.0,0.0,0.0,0.0,0.0,0.0,0.0,0.0,0.0,0.0,0.0,0.0,0.0,0.0,0.0,0.0,0.0,0.0,0.0,0.0,0.0,0.0,0.0,0.0,0.0,0.0,0.0,0.0,0.0,0.0,0.0,0.0,0.0,0.0,0.0,0.0,0.0,0.0,0.0,0.0,0.0,0.0,0.0,0.0,0.0,0.0,0.0,0.0,0.0,0.0,0.0,0.0,0.0,0.0,0.0,0.0,0.0,0.0,0.0,0.0,0.0,0.0,0.0,0.0,0.0,0.0,0.0,0.0,0.0,0.0,0.0,0.0,0.0,0.0,0.0,0.0,0.0,0.0,0.0,0.0,0.0,0.0,0.0,0.0,0.0,0.0,0.0,0.0,0.0,0.0,0.0,0.0,0.0,0.0,0.0,0.0,0.0,0.0,0.0,0.0,0.0,0.0,0.0,0.0,0.0,0.0,0.0,0.0,0.0,0.0,0.0,0.0,0.0,0.0,0.0,0.0,0.0,0.0,0.0,0.0,0.0,0.0,0.0,0.0,0.0,0.0,0.0,0.0,0.0,0.0,0.0,0.0,0.0,0.0,0.0,0.0,0.0,0.0,0.0,0.0,0.0,0.0,0.0,0.0,0.0,0.0,0.0,0.0,0.0,0.0,0.0,0.0,0.0,0.0,0.0,0.0,0.0,0.0,0.0,0.0,0.0,0.0,0.0,0.0,0.0,0.0,0.0,0.0,0.0,0.0,0.0,0.0,0.0,0.0,0.0,0.0,0.0,0.0,0.0,0.0,0.0,0.0,0.0,0.0,0.0,0.0,0.0,0.0,0.0,0.0,0.0,0.0,0.0,0.0,0.0,0.0,0.0,0.0,0.0,0.0,0.0,0.0,0.0,0.0,0.0,0.0,0.0,0.0,0.0,0.0,0.0,0.0,0.0,0.0,0.0,0.0,0.0,0.0,0.0,0.0,0.0,0.0,0.0,0.0,0.0,0.0,0.0,0.0,0.0,0.0,0.0,0.0,0.0,0.0,0.0,0.0,0.0,0.0,0.0,0.0,0.0,0.0,0.0,0.0,0.0,0.0,0.0,0.0,0.0,0.0,0.0,0.0,0.0,0.0,0.0,0.0,0.0,0.0,0.0,0.0,0.0,0.0,0.0,0.0,0.0,0.0,0.0,0.0,0.0,0.0,0.0,0.0,0.0,0.0,0.0,0.0,0.0,0.0,0.0,0.0,0.0,0.0,0.0,0.0,0.0,0.0,0.0,0.0,0.0,0.0,0.0,0.0,0.0,0.0,0.0,0.0,0.0,0.0,0.0,0.0,0.0,0.0,0.0,0.0,0.0,0.0,0.0,0.0,0.0,0.0,0.0,0.0,0.0,0.0,0.0,0.0,0.0,0.0,0.0,0.0,0.0,0.0,0.0,0.0,0.0,0.0,0.0,0.0,0.0,0.0,0.0,0.0,0.0,0.0,0.0,0.0,0.0,0.0,0.0,0.0,0.0,0.0,0.0,0.0,0.0,0.0,0.0,0.0,0.0,0.0,0.0,0.0,0.0,0.0,0.0,0.0,0.0,0.0,0.0,0.0,0.0,0.0,0.0,0.0,0.0,0.0,0.0,0.0,0.0,0.0,0.0,0.0,0.0,0.0,0.0,0.0,0.0,0.0,0.0,0.0,0.0,0.0,0.0,0.0,0.0,0.0,0.0,0.0,0.0,0.0,0.0,0.0,0.0,0.0,0.0,0.0,0.0,0.0,0.0,0.0,0.0,0.0,0.0,0.0,0.0,0.0,0.0,0.0,0.0,0.0,0.0,0.0,0.0,0.0,0.0,0.0,0.0,0.0,0.0,0.0,0.0,0.0,0.0,0.0,0.0,0.0,0.0,0.0,0.0,0.0,0.0,0.0,0.0,0.0,0.0,0.0,0.0,0.0,0.0,0.0,0.0,0.0,0.0,0.0,0.0,0.0,0.0,0.0,0.0,0.0,0.0,0.0,0.0,0.0,0.0,0.0,0.0,0.0,0.0,0.0,0.0,0.0,0.0,0.0,0.0,0.0,0.0,0.0,0.0,0.0,0.0,0.0,0.0,0.0,0.0,0.0,0.0,0.0,0.0,0.0,0.0,0.0,0.0,0.0,0.0,0.0,0.0,0.0,0.0,0.0,0.0,0.0,0.0,0.0,0.0,0.0,0.0,0.0,0.0,0.0,0.0,0.0,0.0,0.0,0.0,0.0,0.0,0.0,0.0,0.0,0.0,0.0,0.0,0.0,0.0,0.0,0.0,0.0,0.0,0.0,0.0,0.0,0.0,0.0,0.0,0.0,0.0,0.0,0.0,0.0,0.0,0.0,0.0,0.0,0.0,0.0,0.0,0.0,0.0,0.0,0.0,0.0,0.0,0.0,0.0,0.0,0.0,0.0,0.0,0.0,0.0,0.0,0.0,0.0,0.0,0.0,0.0,0.0,0.0,0.0,0.0,0.0,0.0,0.0,0.0,0.0,0.0,0.0,0.0,0.0,0.0,0.0,0.0,0.0,0.0,0.0,0.0,0.0,0.0,0.0,0.0,0.0,0.0,0.0,0.0,0.0,0.0,0.0,0.0,0.0,0.0,0.0,0.0,0.0,0.0,0.0,0.0,0.0,0.0,0.0,0.0,0.0,0.0,0.0,0.0,0.0,0.0,0.0,0.0,0.0,0.0,0.0,0.0,0.0,0.0,0.0,0.0,0.0,0.0,0.0,0.0,0.0,0.0,0.0,0.0,0.0,0.0,0.0,0.0,0.0,0.0,0.0,0.0,0.0,0.0,0.0,0.0,0.0,0.0,0.0,0.0,0.0,0.0,0.0,0.0,0.0,0.0,0.0,0.0,0.0,0.0,0.0,0.0,0.0,0.0,0.0,0.0,0.0,0.0,0.0,0.0,0.0,0.0,0.0,0.0,0.0,0.0,0.0,0.0,0.0,0.0,0.0,0.0,0.0,0.0,0.0,0.0,0.0,0.0,0.0,0.0,0.0,0.0,0.0,0.0,0.0,0.0,0.0,0.0,0.0,0.0,0.0,0.0,0.0,0.0,0.0,0.0,0.0,0.0,0.0,0.0,0.0,0.0,0.0,0.0,0.0,0.0,0.0,0.0,0.0,0.0,0.0,0.0,0.0,0.0,0.0,0.0,0.0,0.0,0.0,0.0,0.0,0.0,0.0,0.0,0.0,0.0,0.0,0.0,0.0,0.0,0.0,0.0,0.0,0.0,0.0,0.0,0.0,0.0,0.0,0.0,0.0,0.0,0.0,0.0,0.0,0.0,0.0,0.0,0.0,0.0,0.0,0.0,0.0,0.0,0.0,0.0,0.0,0.0,0.0,0.0,0.0,0.0,0.0,0.0,0.0,0.0,0.0,0.0,0.0,0.0,0.0,0.0,0.0,0.0,0.0,0.0,0.0,0.0,0.0,0.0,0.0,0.0,0.0,0.0,0.0,0.0,0.0,0.0,0.0,0.0,0.0,0.0,0.0,0.0,0.0,0.0,0.0,0.0,0.0,0.0,0.0,0.0,0.0,0.0,0.0,0.0,0.0,0.0,0.0,0.0,0.0,0.0,0.0,0.0,0.0,0.0,0.0,0.0,0.0,0.0,0.0,0.0,0.0,0.0,0.0,0.0,0.0,0.0,0.0,0.0,0.0,0.0,0.0,0.0,0.0,0.0,0.0,0.0,0.0,0.0,0.0,0.0,0.0,0.0,0.0,0.0,0.0,0.0,0.0,0.0,0.0,0.0,0.0,0.0,0.0,0.0,0.0,0.0,0.0,0.0,0.0,0.0,0.0,0.0,0.0,0.0,0.0,0.0,0.0,0.0,0.0,0.0,0.0,0.0,0.0,0.0,0.0,0.0,0.0,0.0,0.0,0.0,0.0,0.0,0.0,0.0,0.0,0.0,0.0,0.0,0.0,0.0,0.0,0.0,0.0,0.0,0.0,0.0,0.0,0.0,0.0,0.0,0.0,0.0,0.0,0.0,0.0,0.0,0.0,0.0,0.0,0.0,0.0,0.0,0.0,0.0,0.0,0.0,0.0,0.0,0.0,0.0,0.0,0.0,0.0,0.0,0.0,0.0,0.0,0.0,0.0,0.0,0.0,0.0,0.0,0.0,0.0,0.0,0.0,0.0,0.0,0.0,0.0,0.0,0.0,0.0,0.0,0.0,0.0,0.0,0.0,0.0,0.0,0.0,0.0,0.0,0.0,0.0,0.0,0.0,0.0,0.0,0.0,0.0,0.0,0.0,0.0,0.0,0.0,0.0,0.0,0.0,0.0,0.0,0.0,0.0,0.0,0.0,0.0,0.0,0.0,0.0,0.0,0.0,0.0,0.0,0.0,0.0,0.0,0.0,0.0,0.0,0.0,0.0,0.0,0.0,0.0,0.0,0.0,0.0,0.0,0.0,0.0,0.0,0.0,0.0,0.0,0.0,0.0,0.0,0.0,0.0,0.0,0.0,0.0,0.0,0.0,0.0,0.0,0.0,0.0,0.0,0.0,0.0,0.0,0.0,0.0,0.0,0.0,0.0,0.0,0.0,0.0,0.0,0.0,0.0,0.0,0.0,0.0,0.0,0.0,0.0,0.0,0.0,0.0,0.0,0.0,0.0,0.0,0.0,0.0,0.0,0.0,0.0,0.0,0.0,0.0,0.0,0.0,0.0,0.0,0.0,0.0,0.0,0.0,0.0,0.0,0.0,0.0,0.0,0.0,0.0,0.0,0.0,0.0,0.0,0.0,0.0,0.0,0.0,0.0,0.0,0.0,0.0,0.0,0.0,0.0,0.0,0.0,0.0,0.0,0.0,0.0,0.0,0.0,0.0,0.0,0.0,0.0,0.0,0.0,0.0,0.0,0.0,0.0,0.0,0.0,0.0,0.0,0.0,0.0,0.0,0.0,0.0,0.0,0.0,0.0,0.0,0.0,0.0,0.0,0.0,0.0,0.0,0.0,0.0,0.0,0.0,0.0,0.0,0.0,0.0,0.0,0.0,0.0,0.0,0.0,0.0,0.0,0.0,0.0,0.0,0.0,0.0,0.0,0.0,0.0,0.0,0.0,0.0,0.0,0.0,0.0,0.0,0.0,0.0,0.0,0.0,0.0,0.0,0.0,0.0,0.0,0.0,0.0,0.0,0.0,0.0,0.0,0.0,0.0,0.0,0.0,0.0,0.0,0.0,0.0,0.0,0.0,0.0,0.0,0.0,0.0,0.0,0.0,0.0,0.0,0.0,0.0,0.0,0.0,0.0,0.0,0.0,0.0,0.0,0.0,0.0,0.0,0.0,0.0,0.0,0.0,0.0,0.0,0.0,0.0,0.0,0.0,0.0,0.0,0.0,0.0,0.0,0.0,0.0,0.0,0.0,0.0,0.0,0.0,0.0,0.0,0.0,0.0,0.0,0.0,0.0,0.0,0.0,0.0,0.0,0.0,0.0,0.0,0.0,0.0,0.0,0.0,0.0,0.0,0.0,0.0,0.0,0.0,0.0,0.0,0.0,0.0,0.0,0.0,0.0,0.0,0.0,0.0,0.0,0.0,0.0,0.0,0.0,0.0,0.0,0.0,0.0,0.0,0.0,0.0,0.0,0.0,0.0,0.0,0.0,0.0,0.0,0.0,0.0,0.0,0.0,0.0,0.0,0.0,0.0,0.0,0.0,0.0,0.0,0.0,0.0,0.0,0.0,0.0,0.0,0.0,0.0,0.0,0.0,0.0,0.0,0.0,0.0,0.0,0.0,0.0,0.0,0.0,0.0,0.0,0.0,0.0,0.0,0.0,0.0,0.0,0.0,0.0,0.0,0.0,0.0,0.0,0.0,0.0,0.0,0.0,0.0,0.0,0.0,0.0,0.0,0.0,0.0,0.0,0.0,0.0,0.0,0.0,0.0,0.0,0.0,0.0,0.0,0.0,0.0,0.0,0.0,0.0,0.0,0.0,0.0,0.0,0.0,0.0,0.0,0.0,-3.8193,-3.8193,0.0,0.0,0.0,0.0,0.0,0.0,0.0,0.0,0.0,0.0,0.0,0.0,0.0,0.0,0.0,0.0,0.0,0.0,0.0,0.0,0.0,0.0,0.0,0.0,0.0,0.0,0.0,0.0,0.0,0.0,0.0,0.0,0.0,0.0,0.0,0.0,0.0,0.0,0.0,0.0,0.0,0.0,0.0,0.0,0.0,0.0,0.0,0.0,0.0,0.0,0.0,0.0,0.0,0.0,0.0,0.0,0.0,0.0,0.0,0.0,0.0,0.0,0.0,0.0,0.0,0.0,0.0,0.0,0.0,0.0,0.0,0.0,0.0,0.0,0.0,0.0,0.0,0.0,0.0,0.0,0.0,0.0,0.0,0.0,0.0,0.0,0.0,0.0,0.0,0.0,0.0,0.0,0.0,0.0,0.0,0.0,0.0,0.0,0.0,0.0,0.0,0.0,0.0,0.0,0.0,0.0,0.0,0.0,0.0,0.0,0.0,0.0,0.0,0.0,-3.8872,-3.8707,0.0,0.0,0.0,0.0,0.0,0.0,0.0,0.0,0.0,0.0,0.0,0.0,0.0,0.0,0.0,0.0,0.0,0.0,0.0,0.0,0.0,0.0,0.0,0.0,0.0,0.0,0.0,0.0,0.0,0.0,0.0,0.0,0.0,0.0,0.0,0.0,0.0,0.0,0.0,0.0,0.0,0.0,0.0,0.0,0.0,0.0,0.0,0.0,0.0,0.0,0.0,0.0,0.0,0.0,0.0,0.0,0.0,0.0,0.0,0.0,0.0,0.0,0.0,0.0,0.0,0.0,0.0,0.0,0.0,0.0,0.0,0.0,0.0,0.0,0.0,0.0,0.0,0.0,0.0,0.0,0.0,0.0,0.0,0.0,0.0,0.0,0.0,0.0,0.0,0.0,0.0,0.0,0.0,0.0,0.0,0.0,0.0,0.0,0.0,0.0,0.0,0.0,0.0,0.0,0.0,0.0,0.0,0.0,-3.9129,-3.9129,-3.9148,-3.9808,-4.0102,-4.0065,-3.9405,-3.9129,-3.9114,-3.9033,0.0,0.0,0.0,0.0,0.0,0.0,0.0,0.0,0.0,0.0,0.0,0.0,0.0,0.0,0.0,0.0,0.0,0.0,0.0,0.0,0.0,0.0,0.0,0.0,0.0,0.0,0.0,0.0,0.0,0.0,0.0,0.0,0.0,0.0,0.0,0.0,0.0,0.0,-3.3707,-3.3422,-3.3451,-3.3721,-3.3721,0.0,0.0,0.0,0.0,0.0,0.0,0.0,0.0,0.0,0.0,0.0,0.0,0.0,0.0,0.0,0.0,0.0,0.0,0.0,0.0,0.0,0.0,0.0,0.0,0.0,0.0,0.0,0.0,0.0,0.0,0.0,0.0,0.0,0.0,0.0,0.0,0.0,0.0,0.0,0.0,0.0,0.0,0.0,-3.3943,-3.5053,0.0,0.0,0.0,0.0,0.0,0.0,0.0,0.0,0.0,0.0,0.0,0.0,0.0,-3.833,-3.957,-3.968,-4.0084,-4.0783,-4.0783,-4.0783,-4.0783,-4.0893,-4.093,-4.093,-4.082,0.0,-4.0749,-4.0288,0.0,0.0,0.0,0.0,0.0,0.0,0.0,0.0,0.0,0.0,0.0,0.0,0.0,0.0,0.0,0.0,0.0,0.0,0.0,0.0,0.0,0.0,0.0,0.0,0.0,0.0,0.0,0.0,0.0,0.0,0.0,0.0,0.0,0.0,0.0,0.0,-3.2872,-3.3288,-3.3447,-3.3508,-3.3508,-3.3465,-3.3465,-3.3494,-3.3522,-3.3288,0.0,0.0,0.0,0.0,0.0,0.0,0.0,0.0,0.0,0.0,0.0,0.0,0.0,0.0,0.0,0.0,0.0,0.0,0.0,0.0,0.0,0.0,0.0,0.0,0.0,0.0,0.0,0.0,0.0,0.0,0.0,0.0,0.0,0.0,0.0,0.0,0.0,0.0,0.0,-3.3346,-3.416,-3.4711,-3.4783,-3.4712,0.0,0.0,0.0,0.0,0.0,0.0,0.0,0.0,0.0,-3.8474,-3.8688,-3.9211,-4.007,-4.007,-4.0425,-4.1095,-4.1095,-4.1147,-4.1306,-4.2077,-4.2517,-4.2668,-4.3449,-4.3809,-4.3645,-4.1588,-4.0562,-4.0312,0.0,0.0,0.0,0.0,-4.0719,-4.0771,0.0,0.0,0.0,0.0,0.0,0.0,0.0,0.0,0.0,0.0,0.0,0.0,0.0,0.0,0.0,-2.9213,0.0,0.0,0.0,0.0,0.0,0.0,0.0,0.0,0.0,0.0,0.0,0.0,-3.2681,-3.2903,-3.3029,-3.3192,-3.3192,-3.3014,-3.2887,-3.3072,-3.3447,-3.3151,-3.2745,0.0,0.0,0.0,0.0,0.0,0.0,0.0,0.0,0.0,0.0,0.0,0.0,0.0,0.0,0.0,0.0,0.0,0.0,0.0,0.0,0.0,0.0,0.0,0.0,0.0,0.0,0.0,0.0,0.0,0.0,0.0,0.0,0.0,0.0,0.0,0.0,0.0,0.0,-3.4383,-3.4858,-3.4896,-3.5311,-3.5403,0.0,0.0,0.0,0.0,0.0,0.0,-3.7984,-3.8742,-3.9064,-3.878,-3.9425,-4.0022,-4.059,-4.0938,-4.1452,-4.2099,-4.2099,-4.2268,-4.2592,-4.3304,-4.379,-4.4151,-4.5025,-4.5397,-4.5234,-4.3174,-4.2098,-4.176,-4.2029,-4.1958,-4.176,-4.2029,-4.2221,-4.2341,0.0,0.0,0.0,0.0,0.0,0.0,0.0,0.0,0.0,0.0,0.0,0.0,0.0,0.0,-2.9247,-2.9989,-3.0717,-3.1157,0.0,0.0,0.0,0.0,0.0,0.0,0.0,0.0,0.0,-3.1843,-3.1861,-3.2092,-3.2534,-3.2092,-3.2127,-3.2517,-3.2057,-3.2127,-3.2567,-3.255,-3.2247,-3.1895,0.0,0.0,0.0,0.0,0.0,0.0,0.0,0.0,0.0,0.0,0.0,0.0,0.0,0.0,0.0,0.0,0.0,0.0,0.0,0.0,0.0,0.0,0.0,0.0,0.0,0.0,0.0,0.0,0.0,0.0,0.0,0.0,0.0,0.0,0.0,0.0,0.0,0.0,0.0,-3.7016,-3.7453,0.0,0.0,0.0,0.0,-3.8182,-3.781,-3.8292,-4.004,-3.966,-3.9599,-4.0075,-4.0324,-4.0817,-4.1605,-4.2951,-4.4007,-4.4807,-4.4807,-4.5119,-4.5627,-4.4488,-4.4331,-4.4906,-4.4337,-4.4112,-4.4183,-4.5233,-4.5627,-4.5572,-4.5101,-4.5178,-4.5572,-4.5081,-4.5217,-4.5663,0.0,0.0,0.0,0.0,0.0,0.0,0.0,0.0,0.0,0.0,0.0,0.0,0.0,-2.8939,-2.982,-3.0072,-3.0768,-3.119,-3.119,0.0,0.0,0.0,0.0,0.0,0.0,0.0,-3.166,-3.1807,-3.2092,-3.2179,-3.2039,-3.2196,-3.2179,-3.2039,-3.1862,-3.201,-3.2366,-3.2458,-3.223,-3.1876,-3.2673,-3.2715,0.0,0.0,0.0,0.0,0.0,0.0,0.0,0.0,0.0,0.0,0.0,0.0,0.0,0.0,0.0,0.0,0.0,0.0,0.0,0.0,0.0,0.0,0.0,0.0,0.0,0.0,0.0,0.0,0.0,0.0,0.0,0.0,0.0,0.0,0.0,0.0,0.0,-3.6194,-3.6626,0.0,-3.6935,-3.7037,-3.7502,-3.8461,-3.8639,-3.9009,-3.9692,-4.0867,-4.1261,-4.0678,-4.2066,-4.2788,-4.2672,-4.3558,-4.4321,-4.5001,-4.5395,-4.5533,-4.5452,-4.5445,-4.5383,-4.5328,-4.55,-4.5552,-4.5622,-4.6516,-4.6003,-4.4674,-4.4482,-4.4758,-4.524,-4.461,-4.4797,-4.5337,0.0,0.0,0.0,0.0,0.0,0.0,0.0,0.0,0.0,0.0,0.0,-2.7908,-2.8197,-2.9347,-3.0209,-3.0446,-3.092,-3.119,-3.119,0.0,0.0,0.0,0.0,0.0,0.0,-3.1603,-3.1603,-3.1603,-3.1914,-3.1896,-3.1603,-3.1914,-3.2035,-3.1963,-3.1963,-3.2234,-3.269,-3.2755,-3.2623,-3.2408,-3.3201,-3.3328,-3.319,0.0,0.0,0.0,0.0,0.0,0.0,0.0,0.0,0.0,0.0,0.0,0.0,0.0,0.0,0.0,0.0,0.0,0.0,0.0,0.0,0.0,0.0,0.0,0.0,0.0,0.0,0.0,0.0,0.0,0.0,0.0,0.0,0.0,0.0,-3.5749,-3.6306,-3.6045,-3.6624,-3.7067,-3.717,-3.7585,-3.8278,-3.9304,-3.9542,-4.0032,-4.0909,-4.1976,-4.2276,-4.1687,-4.3099,-4.3662,-4.3263,-4.4143,-4.4885,-4.5462,-4.5672,-4.5817,-4.5949,-4.5962,-4.5805,-4.552,-4.5915,-4.5989,-4.5833,-4.6257,-4.5563,-4.4265,-4.489,-4.5289,-4.5459,-4.5223,-4.5289,-4.5462,0.0,0.0,0.0,0.0,0.0,0.0,0.0,0.0,0.0,0.0,-2.7088,-2.8128,-2.8959,-2.9685,-3.0429,-3.114,-3.119,-3.119,-3.119,-3.119,0.0,0.0,0.0,0.0,-3.119,-3.119,-3.119,-3.119,-3.119,-3.1207,-3.1224,-3.1224,-3.1633,-3.2327,-3.2327,-3.273,-3.344,-3.344,-3.3457,-3.3541,-3.4218,-3.4489,-3.4573,0.0,0.0,0.0,0.0,0.0,0.0,0.0,0.0,0.0,0.0,0.0,0.0,0.0,0.0,0.0,0.0,0.0,0.0,0.0,0.0,0.0,0.0,0.0,0.0,0.0,0.0,0.0,0.0,0.0,0.0,0.0,0.0,0.0,-3.5633,-3.6067,-3.6509,-3.6814,-3.7679,-3.8185,-3.7984,-3.8385,-3.9276,-4.0822,-4.0453,-4.1258,-4.3797,-4.2943,-4.2602,-4.3178,-4.3361,-4.3453,-4.3426,-4.48,-4.5808,-4.6395,-4.5843,-4.6213,-4.7371,-4.6133,-4.5555,-4.5555,-4.5555,-4.5211,-4.4682,-4.471,-4.471,-4.4827,-4.6607,-4.6932,-4.6454,-4.7084,-4.6932,-4.6407,0.0,0.0,0.0,0.0,0.0,0.0,0.0,0.0,0.0,0.0,-2.8108,-2.8958,-2.9719,-3.0463,-3.097,-3.1173,-3.119,-3.119,-3.119,0.0,0.0,0.0,0.0,0.0,-3.119,-3.119,-3.119,-3.119,-3.119,-3.1461,-3.2005,-3.2005,-3.2374,-3.3102,-3.3102,-3.3508,-3.4201,-3.4201,-3.4506,-3.4957,-3.4624,-3.4489,-3.4573,0.0,0.0,0.0,0.0,0.0,0.0,0.0,0.0,0.0,0.0,0.0,0.0,0.0,0.0,0.0,0.0,0.0,0.0,0.0,0.0,0.0,0.0,0.0,0.0,0.0,0.0,0.0,0.0,0.0,0.0,0.0,-3.6468,-3.6468,-3.6468,-3.661,-3.6905,-3.754,-3.7831,-3.8412,-3.9402,-3.961,-4.0311,-4.181,-4.1782,-4.2004,-4.2723,-4.3434,-4.3666,-4.335,-4.4369,-4.4727,-4.4265,-4.5102,-4.5849,-4.6551,-4.6856,-4.7229,-4.7603,-4.7255,-4.6849,-4.6442,-4.6442,-4.6362,-4.6235,-4.6662,-4.6595,-4.6162,-4.5598,-4.5511,-4.5707,-4.5459,-4.5808,-4.6407,0.0,0.0,0.0,0.0,0.0,0.0,0.0,0.0,0.0,0.0,-2.8501,-2.9281,-3.0023,-3.0768,-3.119,-3.119,-3.119,-3.119,-3.119,0.0,0.0,0.0,0.0,-3.119,-3.119,-3.119,-3.119,-3.119,-3.1495,-3.1887,-3.231,-3.2632,-3.3152,-3.3863,-3.3863,-3.4269,-3.4962,-3.4962,-3.5216,-3.5566,-3.5131,-3.4962,-3.5013,-3.543,-3.56,-3.56,-3.56,-3.56,-3.56,-3.56,0.0,0.0,0.0,0.0,0.0,0.0,0.0,0.0,0.0,0.0,0.0,0.0,0.0,0.0,0.0,0.0,0.0,0.0,0.0,0.0,0.0,0.0,0.0,0.0,-3.7066,-3.7364,-3.7692,-3.7472,-3.7635,-3.87,-3.8836,-3.9386,-4.0882,-4.1018,-4.1491,-4.2675,-4.276,-4.2912,-4.3234,-4.4055,-4.4321,-4.391,-4.5002,-4.5412,-4.5043,-4.5719,-4.6384,-4.7078,-4.7202,-4.7419,-4.7682,-4.7682,-4.7374,-4.6815,-4.7055,-4.7026,-4.6815,-4.7182,-4.7113,-4.673,0.0,0.0,0.0,0.0,-4.5917,-4.6463,0.0,0.0,0.0,0.0,0.0,0.0,0.0,0.0,0.0,0.0,0.0,-2.9314,-3.0142,-3.0818,-3.119,-3.119,-3.119,-3.119,0.0,0.0,0.0,-3.119,-3.119,-3.119,-3.119,-3.119,-3.119,-3.119,-3.1938,-3.2344,-3.2446,-3.3169,-3.3931,-3.4624,-3.4624,-3.4996,-3.56,-3.56,-3.56,-3.56,-3.56,-3.56,-3.56,-3.56,-3.56,-3.56,-3.56,-3.56,-3.56,-3.56,0.0,0.0,0.0,0.0,0.0,0.0,0.0,0.0,0.0,0.0,0.0,0.0,0.0,0.0,0.0,0.0,0.0,0.0,0.0,0.0,0.0,0.0,0.0,0.0,-3.7601,-3.8311,-3.9123,-3.8684,-3.8768,-4.0079,-4.0307,-4.0874,-4.2286,-4.2422,-4.2726,-4.3487,-4.3527,-4.3859,-4.4564,-4.4682,0.0,0.0,0.0,-4.5821,-4.5821,-4.6464,-4.7106,-4.7727,-4.7191,-4.7254,-4.7848,-4.7848,-4.7546,-4.7069,-4.7603,-4.7535,-4.7039,-4.7039,-4.7039,-4.7065,-4.7442,-4.7278,-4.6786,-4.6786,-4.6783,-4.6652,0.0,0.0,0.0,0.0,0.0,0.0,0.0,0.0,0.0,-2.7855,-2.8619,-2.9517,-3.0835,-3.1106,-3.119,-3.119,-3.119,-3.119,0.0,0.0,-3.119,-3.119,-3.119,-3.119,-3.119,-3.119,-3.119,-3.119,-3.1938,-3.2615,-3.3203,-3.3931,-3.4675,-3.538,-3.538,-3.5464,-3.56,-3.56,-3.56,-3.56,-3.56,-3.56,-3.56,-3.56,-3.56,-3.56,-3.56,-3.56,-3.56,-3.56,-3.56,-3.56,-3.56,0.0,0.0,0.0,0.0,0.0,0.0,0.0,0.0,0.0,0.0,0.0,0.0,0.0,0.0,0.0,0.0,0.0,0.0,0.0,0.0,-3.8481,-3.8684,-3.9242,-4.0595,-4.0663,-4.0679,-4.095,-4.1508,-4.2219,-4.3115,-4.32,-4.3521,-4.4327,-4.4378,-4.4445,-4.4598,-4.5162,-4.5483,-4.5483,-4.6194,-4.6583,-4.6583,-4.6718,-4.7149,-4.7874,-4.7742,0.0,-4.8757,-4.8757,-4.8666,-4.8578,-4.8697,-4.8666,-4.8578,-4.8578,-4.8578,-4.846,-4.7373,-4.6915,-4.6786,-4.6786,-4.7079,-4.7474,0.0,0.0,0.0,0.0,0.0,0.0,0.0,0.0,0.0,0.0,-2.8345,-2.8929,-3.0982,-3.0918,-3.0878,-3.1171,-3.119,0.0,0.0,-3.119,-3.119,-3.119,-3.119,-3.119,-3.119,-3.119,-3.119,-3.119,-3.1938,-3.2682,-3.3423,-3.415,-3.4895,-3.56,-3.56,-3.56,-3.56,-3.56,-3.56,-3.56,-3.56,-3.56,-3.56,-3.56,-3.56,-3.56,-3.56,-3.56,-3.56,-3.56,-3.56,-3.56,-3.56,-3.56,-3.56,0.0,0.0,0.0,0.0,0.0,0.0,0.0,0.0,0.0,0.0,0.0,0.0,0.0,0.0,-3.7347,0.0,0.0,-3.8684,-3.9445,-3.9868,-4.0493,-4.1593,-4.2066,-4.232,-4.232,-4.2642,-4.3149,-4.3927,-4.3995,-4.4164,-4.4581,-4.4615,-4.4767,-4.5128,-4.55,-4.5872,-4.6244,-4.6972,-4.7361,-4.7361,-4.7716,-4.8088,-4.846,-4.846,-4.8646,-4.9001,-4.9001,-4.9001,-4.9001,-4.9001,-4.9001,-4.9001,-4.9001,-4.9001,-4.8934,-4.8189,-4.7902,-4.7902,-4.7902,-4.7869,-4.7803,0.0,0.0,0.0,0.0,0.0,0.0,0.0,0.0,0.0,0.0,-2.7882,-2.8298,-3.0906,-3.0658,-3.0539,0.0,0.0,0.0,0.0,-3.119,-3.119,-3.119,-3.119,-3.119,-3.119,-3.119,-3.119,-3.119,-3.1938,-3.2615,-3.3203,-3.4083,-3.481,-3.538,-3.5532,-3.56,-3.56,-3.56,-3.56,-3.56,-3.56,-3.56,-3.56,-3.56,-3.56,-3.56,-3.56,-3.56,-3.56,-3.56,-3.56,-3.56,-3.56,-3.56,-3.56,-3.56,-3.56,0.0,0.0,0.0,0.0,0.0,0.0,0.0,0.0,0.0,-3.7736,-3.7151,-3.7601,-3.8125,-3.8125,-3.8836,-3.9614,-4.0214,-4.0933,-4.1677,-4.2405,-4.3031,-4.3443,-4.3595,-4.3639,-4.3893,-4.4547,-4.4615,-4.4666,-4.4818,-4.479,-4.5128,-4.5872,-4.6058,-4.6397,-4.6989,-4.7733,-4.8091,-4.8091,-4.8714,-4.9001,-4.9001,-4.9001,-4.9001,-4.9001,-4.9001,-4.9001,-4.9001,-4.9001,-4.9001,-4.9001,-4.9001,-4.9001,-4.9001,-4.9001,-4.9001,-4.9001,-4.9001,-4.8629,-4.8091,0.0,0.0,0.0,0.0,0.0,0.0,0.0,0.0,0.0,0.0,0.0,0.0,0.0,0.0,0.0,0.0,0.0,0.0,-3.119,-3.119,-3.119,-3.119,-3.119,-3.119,-3.119,-3.119,-3.119,-3.119,-3.1938,-3.2344,-3.2462,-3.3846,-3.4539,-3.4641,-3.5318,-3.56,-3.56,-3.56,-3.56,-3.56,-3.56,-3.56,-3.56,-3.56,-3.56,-3.56,-3.56,-3.56,-3.56,-3.56,-3.56,-3.56,-3.56,-3.56,-3.56,-3.56,0.0,-3.56,-3.56,-3.56,-3.56,-3.56,-3.6197,-3.6778,0.0,0.0,-3.7889,-3.7787,-3.8362,-3.887,-3.887,-4.0003,-4.0984,-4.1068,-4.1694,-4.2422,-4.3156,-4.3341,-4.3673,-4.4395,-4.4479,-4.4513,-4.4598,-4.4615,-4.4886,-4.5534,-4.5585,-4.5906,-4.6633,-4.731,-4.7686,-4.7753,-4.8494,-4.8883,-4.8883,-4.8968,-4.9001,-4.9001,-4.9001,-4.9001,-4.9001,-4.9001,-4.9001,-4.9001,-4.9001,-4.9001,-4.9001,-4.9001,-4.9001,-4.9001,-4.9001,-4.9001,-4.9001,-4.9001,-4.8951,-4.8883,0.0,0.0,0.0,0.0,0.0,0.0,0.0,0.0,0.0,0.0,0.0,0.0,0.0,0.0,0.0,0.0,0.0,0.0,-3.1171,-3.119,-3.119,-3.119,-3.119,-3.119,-3.119,-3.119,-3.119,-3.119,-3.1495,-3.1887,-3.231,-3.2936,-3.3681,-3.4506,-3.4827,-3.5199,-3.56,-3.56,-3.56,-3.56,-3.56,-3.56,-3.56,-3.56,-3.56,-3.56,-3.56,-3.56,0.0,0.0,-3.56,-3.56,-3.56,-3.56,-3.56,-3.56,-3.56,0.0,-3.56,-3.56,-3.5701,0.0,-3.6874,-3.7432,-3.7432,-3.8328,-3.9056,-3.8633,-3.9123,-3.9656,-3.9656,-4.0493,-4.1339,0.0,-4.2455,-4.3217,-4.3995,-4.4096,-4.4215,-4.4564,-4.4615,-4.4615,-4.4615,-4.4615,-4.4919,-4.5652,-4.5703,-4.621,-4.7394,-4.775,-4.8091,-4.8545,-4.8849,-4.9001,-4.9001,-4.9001,-4.9001,-4.9001,-4.9001,-4.9001,-4.9001,-4.9001,-4.9001,-4.9001,-4.9001,-4.9001,-4.9001,-4.9001,-4.9001,-4.9001,-4.9001,-4.9001,-4.9001,-4.9001,-4.9001,-4.9001,0.0,0.0,0.0,0.0,0.0,0.0,0.0,0.0,0.0,0.0,0.0,0.0,0.0,0.0,0.0,0.0,0.0,0.0,0.0,-3.119,-3.119,-3.119,-3.119,-3.119,-3.119,-3.119,-3.119,-3.119,-3.119,-3.1461,-3.2005,-3.2209,-3.2869,-3.3918,-3.4303,-3.4793,-3.5295,-3.5515,-3.56,-3.56,-3.56,-3.56,-3.56,-3.56,-3.56,-3.56,-3.56,-3.56,0.0,0.0,-3.56,-3.56,-3.56,-3.56,-3.56,-3.56,-3.5752,-3.5943,-3.5943,-3.6073,0.0,-3.6958,-3.7652,-3.821,-3.821,-3.9174,-3.996,-3.9394,-3.974,-4.0163,-4.0383,-4.1001,-4.1745,-4.2472,-4.325,-4.3927,-4.453,-4.4615,-4.4615,-4.4615,-4.4615,-4.4615,-4.4615,-4.4801,-4.5196,-4.5957,-4.6194,-4.687,-4.8125,-4.8193,-4.846,-4.8984,-4.9001,-4.9001,-4.9001,-4.9001,-4.9001,-4.9001,-4.9001,-4.9001,-4.9001,-4.9001,-4.9001,-4.9001,-4.9001,-4.9001,-4.9001,-4.9001,-4.9001,-4.9001,-4.9001,-4.9001,-4.9001,-4.9001,-4.9001,-4.9001,0.0,0.0,0.0,0.0,0.0,0.0,0.0,0.0,0.0,0.0,0.0,0.0,0.0,0.0,0.0,0.0,0.0,0.0,0.0,-3.119,-3.119,-3.119,-3.119,-3.119,-3.119,-3.119,-3.119,-3.119,-3.119,-3.1207,-3.1241,-3.1972,-3.2327,-3.2429,-3.3867,-3.4506,-3.4573,-3.5295,-3.56,-3.56,-3.56,-3.56,-3.56,-3.56,-3.56,-3.56,-3.56,0.0,0.0,0.0,-3.56,-3.56,-3.56,-3.56,0.0,-3.56,-3.6146,-3.6761,-3.6761,0.0,-3.7838,-3.7872,-3.8413,-3.8954,-3.8954,-3.9554,-4.0096,-4.0079,-4.0079,-4.0333,-4.1035,-4.1762,-4.2506,-4.3267,-4.4045,-4.4581,-4.4615,-4.4615,-4.4615,-4.4615,-4.4615,-4.4615,-4.4615,-4.5246,-4.5974,-4.6701,-4.7445,-4.8173,-4.8934,-4.8968,-4.8984,-4.9001,-4.9001,-4.9001,-4.9001,-4.9001,-4.9001,-4.9001,-4.9001,-4.9001,-4.9001,-4.9001,-4.9001,-4.9001,-4.9001,-4.9001,-4.9001,-4.9001,-4.9001,-4.9001,-4.9001,-4.9001,-4.9001,-4.9001,-4.9001,-4.9001,0.0,0.0,0.0,0.0,0.0,0.0,0.0,0.0,0.0,0.0,0.0,0.0,0.0,0.0,0.0,0.0,0.0,0.0,0.0,-3.0975,-3.119,-3.119,-3.119,-3.119,-3.119,-3.119,-3.119,-3.119,-3.119,-3.119,-3.1207,-3.1444,-3.1836,-3.2327,-3.2818,-3.3596,-3.4506,-3.4759,-3.5143,-3.56,-3.56,-3.56,-3.56,-3.56,-3.56,-3.56,0.0,0.0,0.0,0.0,0.0,0.0,-3.56,0.0,-3.5701,-3.6231,-3.6924,-3.7533,-3.7533,0.0,-3.8024,-3.8514,-3.8819,-3.9123,-3.9622,-3.9926,-4.0096,-4.0096,-4.0476,-4.0899,-4.1153,-4.2202,-4.3115,-4.3341,-4.4079,-4.4615,-4.4615,-4.4615,-4.4615,-4.4615,-4.4615,-4.4615,-4.4615,-4.5263,-4.6007,-4.6735,-4.7479,-4.821,-4.8968,-4.9001,-4.9001,-4.9001,-4.9001,-4.9001,-4.9001,-4.9001,-4.9001,-4.9001,-4.9001,-4.9001,-4.9001,-4.9001,-4.9001,-4.9001,-4.9001,-4.9001,-4.9001,-4.9001,-4.9001,-4.9001,-4.9001,-4.9001,-4.9001,-4.9001,-4.9001,-4.9001,0.0,0.0,0.0,0.0,0.0,0.0,0.0,0.0,0.0,0.0,0.0,0.0,0.0,0.0,0.0,0.0,0.0,0.0,0.0,0.0,-3.0878,-3.0878,-3.1075,-3.119,-3.119,-3.119,-3.119,-3.119,-3.119,-3.119,-3.119,-3.119,-3.1444,-3.1921,-3.2192,-3.2835,-3.3766,-3.4269,-3.4776,-3.5233,-3.5481,-3.56,-3.56,-3.56,-3.56,0.0,0.0,0.0,0.0,0.0,0.0,0.0,0.0,-3.5785,-3.6079,-3.6299,-3.728,-3.8244,-3.7973,-3.8278,-3.8802,-3.9259,-3.9402,-3.9537,-3.9994,-4.0096,-4.0096,-4.0096,-4.0679,-4.1288,-4.1542,-4.2591,-4.3477,-4.3792,-4.4248,-4.4615,-4.4615,-4.4615,-4.4615,-4.4615,-4.4615,-4.4615,0.0,-4.55,-4.6295,-4.6752,-4.7733,-4.8511,-4.8984,-4.9001,-4.9001,-4.9001,-4.9001,-4.9001,-4.9001,-4.9001,-4.9001,-4.9001,-4.9001,-4.9001,-4.9001,-4.9001,-4.9001,-4.9001,-4.9001,-4.9001,-4.9001,-4.9001,-4.9001,-4.9001,-4.9001,-4.9001,-4.9001,-4.9001,-4.9001,-4.9001,0.0,0.0,0.0,0.0,0.0,0.0,0.0,0.0,0.0,0.0,0.0,0.0,0.0,0.0,0.0,0.0,0.0,0.0,0.0,0.0,0.0,-3.0251,-3.0838,-3.1151,-3.1151,-3.119,-3.119,-3.119,-3.119,-3.119,-3.119,-3.119,-3.119,-3.1224,-3.1938,-3.2259,-3.2395,-3.38,-3.4421,-3.4556,-3.5267,-3.5566,-3.56,-3.56,0.0,0.0,0.0,0.0,0.0,0.0,0.0,0.0,0.0,-3.6146,-3.666,-3.5943,-3.728,-3.8853,-3.8193,-3.9022,-4.0096,-4.0096,-4.0096,-4.0096,-4.0096,-4.0096,-4.0096,-4.0096,-4.0679,-4.1407,0.0,0.0,-4.3656,-4.4401,-4.4581,-4.4615,-4.4615,-4.4615,-4.4615,0.0,0.0,0.0,0.0,0.0,-4.6786,-4.6786,-4.8173,-4.9001,-4.9001,-4.9001,-4.9001,-4.9001,-4.9001,-4.9001,-4.9001,-4.9001,-4.9001,-4.9001,-4.9001,-4.9001,-4.9001,-4.9001,-4.9001,-4.9001,-4.9001,-4.9001,-4.9001,-4.9001,-4.9001,-4.9001,-4.9001,-4.9001,-4.9001,-4.9001,-4.9001,-4.9001,0.0,0.0,0.0,0.0,0.0,0.0,0.0,0.0,0.0,0.0,0.0,0.0,0.0,0.0,0.0,0.0,0.0,0.0,0.0,0.0,0.0,0.0,0.0,0.0,0.0,0.0,0.0,0.0,0.0,-3.119,-3.119,-3.119,-3.119,-3.1207,-3.1393,-3.1802,-3.2327,-3.2699,-3.3512,-3.4506,0.0,-3.5115,-3.56,0.0,0.0,0.0,0.0,0.0,0.0,0.0,0.0,0.0,0.0,-3.6146,-3.688,-3.7212,-3.8108,-3.9073,-3.9453,-3.9808,-4.0096,-4.0096,-4.0096,-4.0096,-4.0096,-4.0096,-4.0096,-4.0096,-4.0679,-4.1271,0.0,0.0,0.0,-4.3673,-4.4198,0.0,-4.4615,-4.4615,0.0,-4.4615,0.0,-4.4615,-4.4615,-4.5923,-4.6786,-4.6786,-4.8173,-4.9001,-4.9001,-4.9001,-4.9001,-4.9001,-4.9001,-4.9001,-4.9001,-4.9001,-4.9001,-4.9001,-4.9001,-4.9001,-4.9001,-4.9001,-4.9001,-4.9001,-4.9001,-4.9001,-4.9001,-4.9001,-4.9001,-4.9001,-4.9001,-4.9001,-4.9001,-4.9001,-4.9001,-4.9001,0.0,0.0,0.0,0.0,0.0,0.0,0.0,0.0,0.0,0.0,0.0,0.0,0.0,0.0,0.0,0.0,0.0,0.0,0.0,0.0,0.0,0.0,0.0,0.0,0.0,0.0,0.0,0.0,0.0,0.0,0.0,-3.119,-3.1055,-3.0818,-3.0818,-3.1035,-3.1437,-3.1775,0.0,0.0,0.0,0.0,0.0,0.0,0.0,0.0,0.0,0.0,0.0,0.0,0.0,-3.56,-3.56,-3.6146,-3.688,-3.7297,0.0,-3.9089,-3.9495,-3.9859,-4.0096,-4.0096,-4.0096,-4.0096,-4.0096,-4.0096,-4.0096,-4.0096,-4.0679,0.0,-4.1204,-4.2151,0.0,0.0,0.0,0.0,-4.4564,-4.4615,-4.4615,0.0,-4.4615,0.0,-4.4615,-4.5923,-4.6786,-4.6786,-4.8173,-4.9001,-4.9001,-4.9001,-4.9001,-4.9001,-4.9001,-4.9001,-4.9001,-4.9001,-4.9001,-4.9001,-4.9001,-4.9001,-4.9001,-4.9001,-4.9001,-4.9001,-4.9001,-4.9001,-4.9001,-4.9001,-4.9001,-4.9001,-4.9001,-4.9001,-4.9001,-4.9001,-4.9001,-4.9001,0.0,0.0,0.0,0.0,0.0,0.0,0.0,0.0,0.0,0.0,0.0,0.0,0.0,0.0,0.0,0.0,0.0,0.0,0.0,0.0,0.0,0.0,0.0,0.0,0.0,0.0,0.0,0.0,0.0,0.0,0.0,0.0,0.0,0.0,0.0,0.0,0.0,0.0,0.0,0.0,0.0,0.0,0.0,0.0,0.0,0.0,0.0,0.0,0.0,0.0,-3.5052,-3.56,-3.56,-3.6079,-3.666,-3.6778,-3.7794,-3.887,-3.8971,-3.9554,-4.0096,-4.0096,-4.0096,-4.007,-3.9969,-4.002,-4.007,-3.9952,0.0,-4.1052,-4.1052,-4.166,-4.2388,-4.3149,0.0,-4.369,-4.4496,-4.4615,-4.4615,-4.4615,-4.4615,-4.4615,-4.4615,-4.5923,-4.6786,-4.6786,-4.8173,-4.9001,-4.9001,-4.9001,-4.9001,-4.9001,-4.9001,-4.9001,-4.9001,-4.9001,-4.9001,-4.9001,-4.9001,-4.9001,-4.9001,-4.9001,-4.9001,-4.9001,-4.9001,-4.9001,-4.9001,-4.9001,-4.9001,-4.9001,-4.9001,-4.9001,-4.9001,-4.9001,-4.9001,-4.9001,0.0,0.0,0.0,0.0,0.0,0.0,0.0,0.0,0.0,0.0,0.0,0.0,0.0,0.0,0.0,0.0,0.0,0.0,0.0,0.0,0.0,0.0,0.0,0.0,0.0,0.0,0.0,0.0,0.0,0.0,0.0,0.0,0.0,0.0,0.0,0.0,0.0,0.0,0.0,0.0,0.0,0.0,0.0,0.0,0.0,0.0,0.0,0.0,0.0,0.0,-3.5052,-3.56,-3.56,-3.5701,-3.5943,-3.6609,-3.7398,-3.8227,-3.8819,-3.9554,-4.0096,-4.0096,-4.0096,-3.9927,-3.9262,-3.961,0.0,0.0,-3.9737,-4.0299,-4.0299,-4.0882,-4.1627,-4.2371,0.0,0.0,0.0,0.0,-4.4615,0.0,-4.4615,-4.4615,-4.4615,-4.5923,-4.6786,-4.6786,-4.8173,-4.9001,-4.9001,-4.9001,-4.9001,-4.9001,-4.9001,-4.9001,-4.9001,-4.9001,-4.9001,-4.9001,-4.9001,-4.9001,-4.9001,-4.9001,-4.9001,-4.9001,-4.9001,-4.9001,-4.9001,-4.9001,-4.9001,-4.9001,-4.9001,-4.9001,-4.9001,-4.9001,-4.9001,-4.9001,0.0,0.0,0.0,0.0,0.0,0.0,0.0,0.0,0.0,0.0,0.0,0.0,0.0,0.0,0.0,0.0,0.0,0.0,0.0,0.0,0.0,0.0,0.0,0.0,0.0,0.0,-2.9518,-2.9827,0.0,0.0,0.0,-3.0293,-3.0293,0.0,0.0,0.0,0.0,0.0,0.0,0.0,0.0,0.0,0.0,0.0,0.0,0.0,0.0,0.0,0.0,0.0,-3.4252,-3.5144,-3.5492,-3.56,-3.5752,-3.6575,-3.7066,-3.7567,-3.8684,-3.9242,-3.9622,-4.0011,-4.0096,-3.9901,-3.9086,0.0,0.0,0.0,-3.9542,-4.0096,-4.0096,0.0,0.0,0.0,0.0,0.0,0.0,0.0,0.0,0.0,-4.4615,-4.4615,-4.4615,-4.5923,-4.6786,-4.6786,-4.8173,-4.9001,-4.9001,-4.9001,-4.9001,-4.9001,-4.9001,-4.9001,-4.9001,-4.9001,-4.9001,-4.9001,-4.9001,-4.9001,-4.9001,-4.9001,-4.9001,-4.9001,-4.9001,-4.9001,-4.9001,-4.9001,-4.9001,-4.9001,-4.9001,-4.9001,-4.9001,-4.9001,-4.9001,-4.9001,0.0,0.0,0.0,0.0,0.0,0.0,0.0,0.0,0.0,0.0,0.0,0.0,0.0,0.0,0.0,0.0,0.0,0.0,0.0,0.0,0.0,0.0,0.0,0.0,0.0,0.0,0.0,-2.9203,-2.9203,0.0,0.0,0.0,0.0,0.0,-2.9892,-3.0038,0.0,0.0,0.0,0.0,0.0,-2.9069,0.0,0.0,0.0,0.0,0.0,0.0,0.0,0.0,-3.3287,-3.4284,-3.4958,-3.527,-3.548,-3.5968,-3.6323,-3.6814,-3.7978,-3.8639,-3.9149,-3.9691,-3.9978,-3.985,-3.8897,-3.9262,0.0,0.0,-3.9289,-3.9901,-4.007,0.0,-4.035,0.0,0.0,0.0,0.0,0.0,0.0,0.0,0.0,0.0,-4.4615,-4.5923,-4.6786,-4.6786,-4.8173,-4.9001,-4.9001,-4.9001,-4.9001,-4.9001,-4.9001,-4.9001,-4.9001,-4.9001,-4.9001,-4.9001,-4.9001,-4.9001,-4.9001,-4.9001,-4.9001,-4.9001,-4.9001,-4.9001,-4.9001,-4.9001,-4.9001,-4.9001,-4.9001,-4.9001,-4.9001,-4.9001,-4.9001,-4.9001,0.0,0.0,0.0,0.0,0.0,0.0,0.0,0.0,0.0,0.0,0.0,0.0,0.0,0.0,0.0,0.0,0.0,0.0,0.0,0.0,0.0,0.0,0.0,0.0,0.0,0.0,0.0,-2.8583,-2.8583,0.0,0.0,0.0,0.0,0.0,0.0,-2.918,-2.8677,-2.8606,0.0,0.0,0.0,0.0,0.0,0.0,0.0,0.0,0.0,0.0,0.0,0.0,0.0,-3.2895,-3.3572,-3.4186,-3.4609,-3.4043,0.0,0.0,-3.5974,-3.748,-3.8991,-3.9027,-3.9558,-3.9705,-3.8234,0.0,0.0,-3.8064,-3.8497,-3.9236,-3.9969,-4.0096,-4.035,0.0,0.0,-4.1796,0.0,0.0,0.0,0.0,0.0,0.0,-4.4615,-4.5923,-4.6786,-4.6786,-4.8173,-4.9001,-4.9001,-4.9001,-4.9001,-4.9001,-4.9001,-4.9001,-4.9001,-4.9001,-4.9001,-4.9001,-4.9001,-4.9001,-4.9001,-4.9001,-4.9001,-4.9001,-4.9001,-4.9001,-4.9001,-4.9001,-4.9001,-4.9001,-4.9001,-4.9001,-4.9001,-4.9001,-4.9001,-4.9001,0.0,0.0,0.0,0.0,0.0,0.0,0.0,0.0,0.0,0.0,0.0,0.0,0.0,0.0,0.0,0.0,0.0,0.0,0.0,0.0,0.0,0.0,0.0,0.0,0.0,0.0,-2.7944,-2.7944,-2.7944,0.0,0.0,0.0,0.0,0.0,0.0,-2.9271,-2.9035,-2.8654,0.0,0.0,0.0,0.0,0.0,0.0,0.0,0.0,0.0,0.0,0.0,0.0,0.0,0.0,-3.2379,-3.2826,0.0,0.0,-3.3995,-3.4616,-3.5471,-3.6335,-3.7318,-3.8574,-3.8816,-3.8541,-3.7921,0.0,0.0,-3.7233,-3.7703,-3.8469,-3.9236,-3.9368,-3.9616,-4.0408,0.0,0.0,0.0,0.0,0.0,0.0,-4.4615,0.0,0.0,-4.5517,-4.6515,-4.7411,-4.8426,-4.9001,-4.9001,-4.9001,-4.9001,-4.9001,-4.9001,-4.9001,-4.9001,-4.9001,-4.9001,-4.9001,-4.9001,-4.9001,-4.9001,-4.9001,-4.9001,-4.9001,-4.9001,-4.9001,-4.9001,-4.9001,-4.9001,-4.9001,-4.9001,-4.9001,-4.9001,-4.9001,-4.9001,-4.9001,0.0,0.0,0.0,0.0,0.0,0.0,0.0,0.0,0.0,0.0,0.0,0.0,0.0,0.0,0.0,0.0,0.0,0.0,0.0,0.0,0.0,0.0,0.0,0.0,0.0,0.0,0.0,-2.76,-2.76,-2.76,0.0,0.0,-2.8222,-2.8262,0.0,0.0,0.0,0.0,0.0,0.0,0.0,0.0,0.0,0.0,0.0,0.0,0.0,0.0,0.0,0.0,0.0,0.0,0.0,0.0,0.0,0.0,-3.313,-3.3562,-3.4722,-3.5379,-3.6112,-3.779,-3.8019,-3.7719,0.0,0.0,0.0,-3.6722,-3.7054,-3.7674,-3.8442,-3.8745,-3.9086,-3.9662,0.0,-4.1204,-4.2151,0.0,0.0,0.0,0.0,-4.4615,-4.4615,-4.5449,-4.6549,-4.7804,-4.8595,-4.9001,-4.9001,-4.9001,-4.9001,-4.9001,-4.9001,-4.9001,-4.9001,-4.9001,-4.9001,-4.9001,-4.9001,-4.9001,-4.9001,-4.9001,-4.9001,-4.9001,-4.9001,-4.9001,-4.9001,-4.9001,-4.9001,-4.9001,-4.9001,-4.9001,-4.9001,-4.9001,-4.9001,-4.9001,0.0,0.0,0.0,0.0,0.0,0.0,0.0,0.0,0.0,0.0,0.0,0.0,0.0,0.0,0.0,0.0,0.0,0.0,0.0,0.0,0.0,0.0,0.0,0.0,0.0,0.0,0.0,0.0,0.0,-2.76,-2.76,-2.7625,-2.7625,-2.7625,0.0,0.0,0.0,0.0,0.0,0.0,0.0,0.0,0.0,0.0,0.0,0.0,0.0,0.0,0.0,0.0,0.0,0.0,0.0,0.0,0.0,0.0,-3.2035,-3.273,-3.3367,-3.4601,-3.5836,-3.647,-3.7219,-3.7602,0.0,0.0,-3.6615,-3.6615,-3.6615,-3.6859,-3.7661,-3.8414,-3.8908,-3.8908,-3.9584,0.0,-4.2083,0.0,0.0,0.0,0.0,-4.4615,-4.4615,-4.5935,-4.7107,-4.7821,-4.8595,-4.9001,-4.9001,-4.9001,-4.9001,-4.9001,-4.9001,-4.9001,-4.9001,-4.9001,-4.9001,-4.9001,-4.9001,-4.9001,-4.9001,-4.9001,-4.9001,-4.9001,-4.9001,-4.9001,-4.9001,-4.9001,-4.9001,-4.9001,-4.9001,-4.9001,-4.9001,-4.9001,-4.9001,-4.9001,0.0,0.0,0.0,0.0,0.0,0.0,0.0,0.0,0.0,0.0,0.0,0.0,0.0,0.0,0.0,0.0,0.0,0.0,0.0,0.0,0.0,0.0,0.0,0.0,0.0,0.0,0.0,0.0,0.0,0.0,0.0,0.0,-2.76,-2.76,-2.76,-2.76,0.0,0.0,0.0,0.0,0.0,0.0,0.0,0.0,0.0,0.0,0.0,0.0,0.0,0.0,0.0,0.0,0.0,0.0,0.0,0.0,0.0,0.0,-3.3186,-3.3819,-3.4588,-3.6183,-3.6399,-3.6305,-3.6523,0.0,-3.5831,-3.5831,-3.5831,-3.6086,-3.6828,-3.7158,-3.7671,-3.8745,-3.9113,0.0,0.0,0.0,0.0,-4.4429,-4.4615,-4.4615,-4.4615,-4.5923,-4.6887,-4.7124,-4.8308,-4.9001,-4.9001,-4.9001,-4.9001,-4.9001,-4.9001,-4.9001,-4.9001,-4.9001,-4.9001,-4.9001,-4.9001,-4.9001,-4.9001,-4.9001,-4.9001,-4.9001,-4.9001,-4.9001,-4.9001,-4.9001,-4.9001,-4.9001,-4.9001,-4.9001,-4.9001,-4.9001,-4.9001,-4.9001,0.0,0.0,0.0,0.0,0.0,0.0,0.0,0.0,0.0,0.0,0.0,0.0,0.0,0.0,0.0,0.0,0.0,0.0,0.0,0.0,0.0,0.0,0.0,0.0,0.0,0.0,0.0,0.0,0.0,0.0,0.0,0.0,0.0,0.0,-2.76,0.0,0.0,0.0,0.0,0.0,0.0,0.0,-2.76,0.0,0.0,0.0,0.0,0.0,0.0,0.0,0.0,0.0,0.0,0.0,0.0,0.0,-3.1511,0.0,0.0,-3.3499,-3.3922,-3.575,-3.5831,0.0,0.0,0.0,-3.5504,-3.5504,-3.5504,-3.5636,-3.6117,-3.6415,-3.6918,-3.7873,-3.8286,0.0,0.0,0.0,0.0,-4.4384,0.0,-4.4615,-4.4615,-4.5923,-4.6786,-4.6786,-4.8173,-4.9001,-4.9001,-4.9001,-4.9001,-4.9001,-4.9001,-4.9001,-4.9001,-4.9001,-4.9001,-4.9001,-4.9001,-4.9001,-4.9001,-4.9001,-4.9001,-4.9001,-4.9001,-4.9001,0.0,-4.9001,-4.9001,-4.9001,-4.9001,-4.9001,-4.9001,-4.9001,-4.9001,-4.9001,0.0,0.0,0.0,0.0,0.0,0.0,0.0,0.0,0.0,0.0,0.0,0.0,0.0,0.0,0.0,0.0,0.0,0.0,0.0,0.0,0.0,0.0,0.0,0.0,0.0,0.0,0.0,0.0,-2.76,-2.76,-2.76,0.0,0.0,0.0,0.0,0.0,0.0,0.0,0.0,0.0,0.0,0.0,0.0,0.0,0.0,0.0,0.0,0.0,0.0,0.0,0.0,0.0,0.0,0.0,0.0,0.0,0.0,0.0,0.0,0.0,0.0,0.0,0.0,0.0,0.0,0.0,0.0,-3.5504,-3.5504,-3.5504,-3.5504,-3.6054,-3.6554,-3.6569,-3.7249,0.0,0.0,-4.1345,0.0,0.0,-4.4615,-4.4615,-4.4615,-4.5923,-4.6786,-4.6786,-4.8173,-4.9001,-4.9001,-4.9001,-4.9001,-4.9001,-4.9001,-4.9001,-4.9001,-4.9001,-4.9001,-4.9001,-4.9001,-4.9001,-4.9001,-4.9001,-4.9001,-4.9001,-4.8951,-4.8934,-4.8917,-4.8866,-4.8849,-4.8849,-4.8849,-4.8849,-4.8849,-4.89,-4.8934,-4.8934,0.0,0.0,0.0,0.0,0.0,0.0,0.0,0.0,0.0,0.0,0.0,0.0,0.0,0.0,0.0,0.0,0.0,0.0,0.0,0.0,0.0,0.0,0.0,0.0,0.0,0.0,0.0,-2.76,-2.76,-2.76,-2.76,-2.76,0.0,0.0,0.0,0.0,0.0,0.0,0.0,0.0,0.0,0.0,0.0,0.0,0.0,0.0,-2.9127,-2.9606,0.0,0.0,0.0,0.0,0.0,0.0,0.0,0.0,-3.1511,-3.1675,-3.2497,0.0,-3.3694,-3.4548,-3.5115,-3.5504,0.0,0.0,0.0,0.0,0.0,0.0,0.0,0.0,0.0,-3.6492,0.0,0.0,-4.0803,0.0,0.0,-4.4536,-4.4615,-4.4615,-4.4615,-4.5923,-4.6786,-4.6786,-4.8173,-4.9001,-4.9001,-4.9001,-4.9001,-4.9001,-4.9001,-4.9001,-4.9001,-4.9001,-4.9001,-4.9001,-4.9001,-4.9001,-4.9001,-4.9001,-4.9001,-4.8968,-4.8409,-4.8173,-4.8122,-4.7547,-4.731,-4.731,-4.731,-4.731,-4.7378,-4.797,-4.8173,-4.8227,0.0,0.0,0.0,0.0,0.0,0.0,0.0,0.0,0.0,0.0,0.0,0.0,0.0,0.0,0.0,0.0,0.0,0.0,0.0,0.0,0.0,0.0,0.0,0.0,0.0,0.0,0.0,0.0,0.0,-2.76,0.0,0.0,0.0,0.0,0.0,0.0,0.0,0.0,0.0,0.0,-2.76,0.0,0.0,0.0,0.0,0.0,-2.9127,-2.9606,0.0,-3.1062,-3.1511,-3.1511,0.0,0.0,0.0,0.0,-3.1511,-3.1585,-3.1929,-3.2766,-3.3649,-3.4339,-3.4996,-3.5504,0.0,0.0,0.0,0.0,0.0,0.0,0.0,0.0,0.0,0.0,-3.6645,0.0,0.0,0.0,-4.4457,-4.4064,-4.4355,-4.4615,-4.4615,-4.5618,-4.643,-4.6769,-4.7851,-4.8646,-4.8984,-4.9001,-4.9001,-4.9001,-4.9001,-4.9001,-4.9001,-4.9001,-4.9001,-4.9001,-4.9001,-4.9001,-4.8984,-4.8663,-4.8511,-4.846,-4.7733,-4.7411,-4.7361,-4.6955,-4.6786,-4.6786,-4.6786,-4.6786,-4.6836,-4.7259,-4.7411,-4.7513,0.0,0.0,0.0,0.0,0.0,0.0,0.0,0.0,0.0,0.0,0.0,0.0,0.0,0.0,0.0,0.0,0.0,0.0,0.0,0.0,0.0,0.0,0.0,0.0,0.0,0.0,0.0,0.0,0.0,0.0,0.0,0.0,0.0,0.0,0.0,0.0,0.0,0.0,0.0,0.0,-2.76,0.0,0.0,0.0,0.0,0.0,0.0,0.0,0.0,-3.1062,-3.1511,-3.1511,-3.1511,0.0,0.0,0.0,0.0,0.0,-3.1511,-3.2497,-3.3634,-3.4219,-3.4921,-3.5504,0.0,0.0,0.0,0.0,0.0,0.0,0.0,0.0,0.0,0.0,0.0,0.0,-4.089,-4.3052,-4.4167,-4.3562,-4.4167,-4.4615,-4.4615,-4.5263,-4.6007,-4.6735,-4.7479,-4.821,-4.8968,-4.9001,-4.9001,-4.9001,-4.9001,-4.9001,-4.9001,-4.9001,-4.9001,-4.9001,-4.9001,-4.8951,-4.8815,-4.8176,-4.7821,-4.7669,-4.6955,-4.6616,-4.6616,-4.6498,-4.6447,-4.6447,-4.6447,-4.6447,-4.6464,-4.6583,-4.6616,-4.6735,0.0,0.0,0.0,0.0,0.0,0.0,0.0,0.0,0.0,0.0,0.0,0.0,0.0,0.0,0.0,0.0,0.0,0.0,0.0,0.0,0.0,0.0,0.0,0.0,0.0,0.0,0.0,0.0,0.0,0.0,-2.76,-2.76,-2.76,0.0,0.0,0.0,0.0,-2.76,-2.76,-2.76,-2.76,0.0,0.0,0.0,0.0,0.0,0.0,0.0,0.0,-3.1062,-3.1511,-3.1511,-3.1511,0.0,0.0,0.0,0.0,0.0,-3.1511,-3.2497,-3.3514,-3.3619,-3.4577,-3.5504,0.0,0.0,0.0,0.0,0.0,0.0,0.0,0.0,-3.5504,0.0,0.0,-3.9393,0.0,-4.2917,-4.371,-4.4327,-4.4514,-4.4615,-4.4615,-4.5263,-4.6007,-4.6735,-4.7479,-4.821,-4.8968,-4.9001,-4.9001,-4.9001,-4.9001,-4.9001,-4.9001,-4.9001,-4.9001,-4.9001,-4.9001,-4.868,-4.8058,-4.7939,-4.7564,-4.6921,-4.6194,-4.5872,-4.5821,-4.5207,-4.4953,-4.4953,-4.4953,-4.4953,-4.5021,-4.5635,-4.5872,-4.5974,0.0,0.0,0.0,0.0,0.0,0.0,0.0,0.0,0.0,0.0,0.0,0.0,0.0,0.0,0.0,0.0,0.0,0.0,0.0,0.0,0.0,0.0,0.0,0.0,0.0,0.0,0.0,0.0,0.0,-2.76,-2.76,-2.76,-2.76,-2.76,0.0,0.0,0.0,-2.76,-2.76,-2.76,0.0,0.0,0.0,0.0,0.0,0.0,0.0,0.0,0.0,0.0,-3.1511,-3.1511,-3.1511,0.0,0.0,0.0,0.0,0.0,-3.1511,-3.2497,-3.3499,-3.3499,-3.4517,-3.5504,-3.5504,0.0,0.0,0.0,0.0,0.0,0.0,0.0,-3.5877,-3.7029,0.0,-3.9518,-4.1826,-4.2804,-4.3456,-4.3844,-4.4327,-4.4615,-4.4615,-4.4891,-4.5399,-4.6143,-4.6887,-4.7631,-4.8376,-4.8781,-4.9001,-4.9001,-4.9001,-4.9001,-4.9001,-4.8612,-4.8612,-4.9001,-4.8612,-4.824,-4.7855,-4.709,-4.6532,-4.616,-4.5415,-4.5094,-4.5077,-4.475,-4.4615,-4.4615,-4.4615,-4.4615,-4.4649,-4.4976,-4.5348,-4.5754,0.0,0.0,0.0,0.0,0.0,0.0,0.0,0.0,0.0,0.0,0.0,0.0,0.0,0.0,0.0,0.0,0.0,0.0,0.0,0.0,0.0,0.0,0.0,0.0,0.0,0.0,0.0,-2.76,-2.76,-2.76,-2.76,-2.76,-2.76,0.0,0.0,0.0,0.0,-2.76,-2.76,-2.76,0.0,0.0,0.0,0.0,0.0,0.0,0.0,0.0,0.0,0.0,0.0,0.0,0.0,0.0,0.0,-3.1511,-3.1511,-3.1511,-3.1511,-3.2497,-3.3499,-3.3499,0.0,-3.5504,-3.5504,0.0,0.0,0.0,0.0,0.0,0.0,-3.5624,0.0,-3.8378,-3.867,-3.9508,-4.1949,-4.2707,-4.3139,-4.3562,-4.4196,-4.4615,-4.4615,-4.4615,-4.4919,-4.5652,-4.6227,-4.687,-4.7614,-4.8189,-4.8477,-4.8477,-4.8477,-4.8477,-4.8477,-4.7936,-4.802,-4.8731,-4.8003,-4.7534,-4.7361,-4.6227,-4.5618,-4.5415,-4.4869,-4.4615,-4.4615,-4.4615,-4.4615,-4.4615,-4.4615,-4.4615,-4.4615,-4.4615,-4.506,-4.5703,0.0,0.0,0.0,0.0,0.0,0.0,0.0,0.0,0.0,0.0,0.0,0.0,0.0,0.0,0.0,0.0,0.0,0.0,0.0,0.0,0.0,0.0,0.0,0.0,0.0,-2.76,-2.76,-2.76,-2.76,-2.76,-2.76,-2.76,-2.76,-2.76,0.0,0.0,0.0,-2.76,-2.76,-2.76,-2.76,0.0,0.0,0.0,0.0,0.0,0.0,0.0,0.0,0.0,0.0,0.0,0.0,0.0,-3.1511,-3.1511,-3.1511,-3.1511,-3.1511,-3.2497,-3.3499,-3.3499,0.0,0.0,-3.5504,-3.5504,0.0,-3.5504,0.0,0.0,0.0,-3.6013,-3.6944,-3.8455,-3.8552,-3.9533,-4.278,-4.2552,-4.2707,-4.431,-4.4542,-4.4615,-4.4615,-4.4615,-4.4919,-4.5652,-4.5754,-4.6109,-4.6836,-4.6921,-4.6955,-4.6955,-4.6955,-4.6955,-4.6955,-4.6904,-4.7242,-4.7956,-4.7225,-4.6515,-4.5855,-4.5754,-4.5331,-4.4682,-4.4632,-4.4615,-4.4615,-4.4615,-4.4615,-4.4615,-4.4615,-4.4615,-4.4615,-4.4615,-4.506,-4.5703,0.0,0.0,0.0,0.0,0.0,0.0,0.0,0.0,0.0,0.0,0.0,0.0,0.0,0.0,0.0,0.0,0.0,0.0,0.0,0.0,0.0,0.0,0.0,-2.76,-2.76,-2.76,-2.76,-2.76,-2.76,-2.76,-2.76,-2.76,0.0,0.0,0.0,0.0,0.0,-2.76,-2.76,-2.76,-2.76,-2.76,0.0,0.0,0.0,0.0,0.0,0.0,0.0,0.0,-3.1511,-3.1511,0.0,-3.1511,-3.1511,-3.1511,-3.1511,-3.1511,-3.1511,-3.2168,-3.2976,-3.3395,0.0,0.0,0.0,0.0,-3.5504,-3.5504,-3.5504,0.0,0.0,0.0,-3.6955,-3.8288,-3.8456,-3.9165,-4.1367,-4.1869,-4.2252,-4.2892,-4.3456,-4.3785,-4.3785,-4.329,-4.3555,-4.4919,-4.493,-4.5256,-4.6063,-4.6549,-4.6786,-4.6786,-4.6786,-4.6786,-4.6786,-4.6346,-4.6261,-4.6549,-4.6261,-4.5974,-4.5686,-4.5229,-4.484,-4.4615,-4.4615,-4.4615,-4.4615,-4.4615,-4.4615,-4.4649,-4.5094,-4.528,-4.5331,-4.5788,-4.6126,-4.638,0.0,0.0,0.0,0.0,0.0,0.0,0.0,0.0,0.0,0.0,0.0,0.0,0.0,0.0,0.0,0.0,0.0,0.0,0.0,0.0,0.0,0.0,0.0,-2.76,-2.76,-2.76,-2.76,-2.76,-2.76,-2.76,-2.76,0.0,0.0,0.0,0.0,0.0,0.0,0.0,-2.76,-2.76,-2.76,-2.772,0.0,0.0,0.0,0.0,0.0,0.0,0.0,0.0,-3.1511,0.0,0.0,0.0,-3.1511,-3.1511,-3.1511,-3.1511,-3.1511,-3.2138,-3.2931,0.0,0.0,0.0,0.0,0.0,-3.5504,-3.5504,-3.5504,-3.5639,-3.6088,0.0,-3.706,-3.7943,-3.8437,-3.9194,-4.0526,-4.1213,-4.1804,-4.2363,-4.2939,-4.3396,-4.368,-4.2909,-4.3031,-4.4485,-4.4009,-4.4153,-4.5274,-4.5555,-4.5824,-4.6092,-4.6092,-4.6092,-4.6092,-4.5602,-4.5348,-4.5348,-4.5348,-4.5348,-4.5331,-4.4852,-4.4615,-4.4615,-4.4615,-4.4615,-4.4615,-4.4615,-4.475,-4.4993,-4.55,-4.5838,-4.6109,-4.6599,-4.6938,-4.7141,0.0,0.0,0.0,0.0,0.0,0.0,0.0,0.0,0.0,0.0,0.0,0.0,0.0,0.0,0.0,0.0,0.0,0.0,0.0,0.0,0.0,0.0,0.0,-2.76,-2.76,-2.76,-2.76,-2.76,-2.76,-2.76,-2.76,-2.76,0.0,0.0,0.0,0.0,0.0,0.0,0.0,-2.76,-2.76,-2.8019,-2.8607,0.0,0.0,0.0,0.0,0.0,0.0,0.0,-3.1511,-3.1511,0.0,0.0,0.0,-3.1511,-3.1511,-3.1511,-3.1511,-3.2452,-3.3484,0.0,0.0,0.0,0.0,0.0,-3.5504,-3.5504,-3.5504,-3.5504,-3.5519,-3.6552,-3.7404,-3.7419,-3.8542,-3.9702,-4.0569,-4.069,-4.1346,-4.3047,-4.3276,-4.3621,-4.4485,-4.3785,-4.3651,-4.4514,-4.2984,-4.2769,-4.4468,-4.3785,-4.3697,-4.457,-4.4615,-4.4615,-4.4615,-4.4615,-4.4615,-4.4615,-4.4615,-4.4615,-4.4615,-4.4615,-4.4615,-4.4615,-4.4615,-4.4615,-4.4615,-4.4615,-4.5026,-4.5703,-4.572,-4.616,-4.6802,-4.6802,-4.7293,-4.7906,0.0,0.0,0.0,0.0,0.0,0.0,0.0,0.0,0.0,0.0,0.0,0.0,0.0,0.0,0.0,0.0,0.0,0.0,0.0,0.0,0.0,0.0,0.0,0.0,0.0,0.0,-2.76,-2.76,-2.76,-2.76,0.0,0.0,0.0,-2.76,0.0,0.0,0.0,0.0,0.0,0.0,-2.8124,-2.8412,-2.8697,0.0,0.0,0.0,0.0,0.0,0.0,0.0,0.0,0.0,0.0,0.0,0.0,-3.1511,-3.1511,-3.1511,-3.1511,-3.1795,0.0,0.0,0.0,0.0,0.0,0.0,0.0,0.0,-3.5504,-3.5654,-3.6118,-3.6866,-3.7554,-3.8018,-3.8841,-3.9481,-3.9737,-4.0309,-4.0656,-4.055,-4.1657,-4.2489,-4.2738,-4.2552,-4.2754,-4.3621,-4.2645,-4.2489,-4.3621,-4.3426,-4.3697,-4.457,-4.4615,-4.4615,-4.4615,-4.4615,-4.4615,-4.4615,-4.4615,-4.4615,-4.4615,-4.4615,-4.4615,-4.4615,-4.4615,-4.4615,-4.4615,-4.4615,-4.5026,-4.5754,-4.6261,-4.6921,-4.7648,-4.8156,-4.8494,-4.868,0.0,0.0,0.0,0.0,0.0,0.0,0.0,0.0,0.0,0.0,0.0,0.0,0.0,0.0,0.0,0.0,0.0,0.0,0.0,0.0,0.0,0.0,0.0,0.0,0.0,-2.7178,-2.7306,0.0,0.0,0.0,0.0,0.0,0.0,-2.76,0.0,-2.76,0.0,0.0,0.0,0.0,-2.7963,-2.8245,-2.8478,0.0,0.0,0.0,0.0,0.0,0.0,0.0,0.0,0.0,0.0,0.0,0.0,-3.1511,-3.1511,-3.1511,-3.1511,0.0,0.0,0.0,0.0,0.0,-3.5265,0.0,0.0,0.0,-3.5504,-3.5624,-3.6028,-3.6806,-3.7539,-3.7943,-3.8796,-3.9388,-3.9388,-3.9864,-4.0115,-3.992,-4.0826,-4.1609,-4.1965,-4.1707,-4.1869,-4.2724,-4.1965,-4.2029,-4.3229,-4.3306,-4.3697,-4.457,-4.4615,-4.4615,-4.4615,-4.4615,-4.4615,-4.4615,-4.4615,-4.4615,-4.4615,-4.4615,-4.4615,-4.4615,-4.4615,-4.4615,-4.4615,-4.4615,-4.5026,-4.5771,-4.6498,-4.7259,-4.7973,-4.8731,-4.9001,-4.9001,0.0,0.0,0.0,0.0,0.0,0.0,0.0,0.0,0.0,0.0,0.0,0.0,0.0,0.0,0.0,0.0,0.0,0.0,0.0,0.0,0.0,0.0,0.0,0.0,0.0,0.0,0.0,0.0,0.0,0.0,0.0,0.0,-2.756,-2.7484,0.0,-2.7524,0.0,0.0,0.0,0.0,-2.7534,-2.7796,-2.8105,-2.8961,0.0,0.0,0.0,0.0,0.0,0.0,0.0,0.0,0.0,0.0,-3.1511,-3.1511,-3.1511,-3.1511,-3.1511,0.0,0.0,0.0,0.0,0.0,-3.5355,-3.5504,-3.5504,-3.5504,0.0,-3.5504,-3.5504,-3.6552,-3.7404,-3.7404,-3.8542,-3.9388,-3.9388,-3.9388,-3.9702,-4.05,-4.0656,-4.1013,-4.1788,-4.1247,-4.1113,-4.1836,-4.1213,-4.1511,-4.3108,-4.3246,-4.3697,-4.457,-4.4615,-4.4615,-4.4615,-4.4615,-4.4615,-4.4615,-4.4615,-4.4615,-4.4615,-4.4615,-4.4615,-4.4615,-4.4615,-4.4615,-4.4615,-4.4615,-4.5026,-4.5771,-4.643,-4.7192,-4.7973,-4.8663,-4.8951,-4.9001,0.0,0.0,0.0,0.0,0.0,0.0,0.0,0.0,0.0,0.0,0.0,0.0,0.0,0.0,0.0,0.0,0.0,0.0,0.0,0.0,0.0,0.0,0.0,0.0,0.0,0.0,0.0,0.0,0.0,0.0,0.0,0.0,0.0,-2.6774,0.0,-2.6967,0.0,0.0,0.0,0.0,-2.8254,-2.8545,-2.8098,-2.8785,-2.9143,0.0,0.0,0.0,0.0,0.0,0.0,0.0,-3.1307,-3.1511,-3.1511,-3.1511,-3.1511,-3.1511,0.0,-3.1615,0.0,0.0,0.0,0.0,-3.5355,-3.5504,-3.5504,-3.5504,-3.5504,-3.5504,-3.5504,-3.6552,-3.7404,-3.7404,-3.8542,-3.9388,-3.9388,-3.9388,-3.9481,-3.9666,-4.0274,-4.0777,-4.0946,-4.1445,-4.1495,-4.1013,-4.1445,-4.1901,-4.2252,-4.2939,-4.3697,-4.457,-4.4615,-4.4615,-4.4615,-4.4615,-4.4615,-4.4615,-4.4615,-4.4615,-4.4615,-4.4615,-4.4615,-4.4615,-4.4615,-4.4615,-4.4615,-4.4615,-4.5026,-4.572,-4.5872,-4.6752,-4.7906,-4.8075,-4.8511,-4.9001,0.0,0.0,0.0,0.0,0.0,0.0,0.0,0.0,0.0,0.0,0.0,0.0,0.0,0.0,0.0,0.0,0.0,0.0,0.0,0.0,0.0,0.0,0.0,0.0,0.0,0.0,0.0,0.0,0.0,0.0,0.0,0.0,0.0,-2.7008,0.0,-2.6695,0.0,0.0,0.0,0.0,-2.7856,-2.7804,-2.7346,-2.8093,-2.8363,-2.8363,-2.8363,0.0,0.0,0.0,0.0,0.0,0.0,0.0,-3.0999,-3.138,-3.1511,-3.1511,0.0,0.0,0.0,0.0,0.0,0.0,-3.5355,-3.5504,-3.5504,-3.5504,-3.5504,-3.5504,-3.5504,-3.6312,-3.706,-3.736,-3.8257,-3.9035,-3.9328,-3.9388,-3.9388,-3.9388,-3.9793,-4.008,-4.008,-4.0481,-4.0585,-4.0115,-4.0894,-4.1379,-4.1379,-4.2189,-4.2878,-4.335,-4.3768,-4.3977,-4.3977,-4.4384,-4.4615,-4.4615,-4.4615,-4.4615,-4.4615,-4.4615,-4.4615,-4.4615,-4.4615,-4.4615,-4.4615,-4.4615,-4.4835,-4.5213,-4.5568,-4.6177,-4.6908,-4.7635,-4.8125,-4.8528,0.0,0.0,0.0,0.0,0.0,0.0,0.0,0.0,0.0,0.0,0.0,0.0,0.0,0.0,0.0,0.0,0.0,0.0,0.0,0.0,0.0,0.0,0.0,0.0,0.0,0.0,0.0,0.0,0.0,0.0,0.0,0.0,0.0,-2.6967,0.0,0.0,0.0,0.0,0.0,0.0,0.0,-2.6802,-2.6555,-2.7229,-2.7484,-2.7517,-2.7637,-2.8524,-2.969,-2.9981,0.0,0.0,0.0,0.0,-3.0644,-3.1307,-3.1511,-3.1511,0.0,0.0,0.0,0.0,0.0,0.0,-3.5175,-3.5429,-3.5504,-3.5504,-3.5504,-3.5504,-3.5504,-3.6043,-3.6656,-3.7165,-3.7883,-3.8586,-3.9155,-3.9349,-3.9388,-3.9388,-3.9388,-3.9388,-3.9388,-3.9388,-3.9388,-3.9388,-4.022,-4.069,-4.069,-4.1543,-4.1997,-4.1997,-4.2707,-4.3078,-4.3078,-4.3768,-4.415,-4.415,-4.4281,-4.444,-4.4615,-4.4615,-4.4615,-4.4615,-4.4615,-4.4615,-4.4615,-4.4615,-4.4615,-4.4666,-4.5263,-4.5602,-4.5855,-4.709,-4.7584,-4.7834,0.0,0.0,0.0,0.0,0.0,0.0,0.0,0.0,0.0,0.0,0.0,0.0,0.0,0.0,0.0,0.0,0.0,0.0,-2.3108,0.0,0.0,-2.3108,-2.3198,0.0,0.0,0.0,0.0,0.0,0.0,0.0,0.0,0.0,0.0,-2.4753,0.0,0.0,0.0,0.0,0.0,0.0,0.0,0.0,-2.6499,-2.6624,-2.6658,-2.6748,-2.7451,-2.7384,-2.7229,-2.8684,-2.916,0.0,0.0,0.0,-3.1351,-3.1467,-3.1511,-3.1511,0.0,0.0,0.0,0.0,0.0,0.0,0.0,0.0,-3.5504,-3.5504,-3.5504,-3.5504,-3.5504,-3.6043,-3.6507,-3.6596,-3.7614,-3.8422,-3.8512,-3.9035,-3.9388,-3.9388,-3.9388,-3.9388,-3.9388,-3.9388,-3.9388,-3.9388,-4.022,-4.069,-4.069,-4.1543,-4.1997,-4.1997,-4.2125,-4.2157,-4.2157,-4.2284,-4.2347,-4.2347,-4.3108,-4.3873,-4.4615,-4.4615,-4.4615,-4.4615,-4.4615,-4.4615,-4.4615,-4.4615,-4.4615,-4.4615,-4.4716,-4.5128,-4.572,-4.5923,-4.6397,-4.7056,0.0,0.0,0.0,0.0,0.0,0.0,0.0,0.0,0.0,0.0,0.0,0.0,0.0,0.0,0.0,-2.3108,-2.3108,-2.3108,-2.3108,-2.3108,-2.3108,-2.3108,-2.3108,-2.3108,0.0,0.0,0.0,0.0,0.0,0.0,0.0,-2.4121,-2.441,0.0,0.0,0.0,0.0,0.0,0.0,0.0,0.0,0.0,0.0,0.0,-2.6499,-2.6555,-2.6905,-2.7095,-2.7351,-2.8588,-2.9002,-2.9223,-3.0554,0.0,0.0,0.0,-3.1511,0.0,0.0,0.0,0.0,0.0,0.0,0.0,-3.4354,0.0,-3.5504,-3.5504,-3.5504,-3.5504,-3.5504,-3.5744,-3.6058,-3.6432,-3.6956,-3.7569,-3.8287,-3.8646,-3.899,-3.9379,-3.9388,-3.9388,-3.9388,-3.9388,-3.9388,-3.9388,-3.9773,-3.9955,-3.9955,-4.0309,-4.055,-4.055,-4.1028,-4.128,-4.128,-4.1772,-4.2252,-4.2724,-4.3108,-4.3756,-4.4615,-4.4615,-4.4615,-4.4615,-4.4615,-4.4615,-4.4615,-4.4615,-4.4615,-4.4615,-4.4615,-4.4818,-4.5128,-4.5551,-4.5906,-4.6295,0.0,0.0,0.0,0.0,0.0,0.0,0.0,0.0,0.0,0.0,0.0,0.0,0.0,0.0,0.0,0.0,-2.3108,-2.3108,-2.3108,-2.3108,-2.3108,-2.3108,-2.3108,-2.3108,-2.3108,0.0,0.0,0.0,0.0,0.0,-2.3108,-2.3108,-2.3815,0.0,-2.4299,0.0,0.0,0.0,0.0,0.0,0.0,0.0,0.0,0.0,0.0,0.0,-2.6816,-2.7196,-2.7802,-2.846,-2.8684,-2.8907,-3.0133,-3.0419,0.0,0.0,0.0,0.0,0.0,0.0,0.0,0.0,0.0,0.0,0.0,0.0,-3.5295,-3.5474,-3.5504,-3.5504,-3.5504,-3.5504,-3.5669,-3.6148,-3.6372,-3.6821,-3.7764,-3.8048,-3.8392,-3.908,-3.9155,-3.923,-3.9373,-3.9388,-3.9388,-3.9388,-3.9388,-3.9388,-3.9388,-3.9388,-3.9388,-3.9388,-4.0025,-4.0363,-4.0363,-4.1028,-4.1901,-4.2986,-4.2986,-4.3545,-4.4615,-4.4615,-4.4615,-4.4615,-4.4615,-4.4615,-4.4615,-4.4615,-4.4615,-4.4615,-4.4615,-4.4615,-4.4682,-4.5213,-4.5415,-4.5534,0.0,0.0,0.0,0.0,0.0,0.0,0.0,0.0,0.0,0.0,0.0,0.0,-2.3108,-2.3108,-2.3108,-2.3108,-2.3108,-2.3108,-2.3108,-2.3108,-2.3108,-2.3108,-2.3108,0.0,-2.3108,0.0,0.0,0.0,0.0,0.0,-2.3108,-2.3108,-2.3457,-2.4078,-2.401,-2.4337,-2.4942,0.0,0.0,0.0,0.0,0.0,0.0,0.0,0.0,0.0,-2.7637,-2.767,-2.7703,-2.7769,-2.7769,-2.7769,-2.7855,-2.9002,-3.0299,0.0,0.0,0.0,0.0,0.0,0.0,0.0,0.0,0.0,0.0,0.0,-3.4711,-3.537,-3.5504,-3.5504,-3.5504,-3.5504,-3.5519,-3.5549,-3.6088,-3.6507,-3.6582,-3.709,-3.7704,-3.8362,-3.8437,-3.8691,-3.9349,-3.9388,-3.9388,-3.9388,-3.9388,-3.9388,-3.9388,-3.9388,-3.9388,-3.9388,-3.9445,-3.9481,-3.9481,-3.9517,-4.0393,-4.2062,-4.2062,-4.297,-4.4615,-4.4615,-4.4615,-4.4615,-4.4615,-4.4615,-4.4615,-4.4615,-4.4615,-4.4615,-4.4615,-4.4615,-4.4615,-4.4649,-4.4666,-4.4767,0.0,0.0,0.0,0.0,0.0,0.0,0.0,0.0,0.0,0.0,0.0,0.0,0.0,-2.3108,-2.3108,-2.3108,-2.3108,-2.3108,-2.3108,-2.3108,-2.3108,-2.3108,-2.3108,-2.3108,-2.3108,0.0,0.0,0.0,0.0,-2.3108,-2.3108,-2.3484,-2.3803,-2.4017,-2.4368,-2.482,-2.536,-2.5912,0.0,0.0,0.0,0.0,0.0,0.0,0.0,-2.6939,-2.6939,-2.7263,-2.7802,-2.833,-2.8907,-2.9473,-2.9981,-3.0584,-3.1058,-3.1058,0.0,0.0,0.0,0.0,0.0,0.0,0.0,-3.2572,-3.2811,-3.338,-3.4038,-3.4711,-3.4846,-3.4981,-3.5429,-3.5504,-3.5504,-3.5504,-3.5699,-3.6013,-3.6432,-3.6686,-3.706,-3.7689,-3.7764,-3.8018,-3.8691,-3.8751,-3.8945,-3.9394,-3.9388,-3.9388,-3.9388,-3.9388,-3.9388,-3.9388,-3.9388,-3.9388,-3.9388,-3.9388,-3.999,-4.118,-4.118,-4.2093,-4.3785,-4.3785,-4.4064,-4.4615,-4.4615,-4.4615,-4.4615,-4.4615,-4.4615,-4.4615,-4.4615,-4.4615,-4.4615,-4.4615,-4.4615,-4.4649,0.0,0.0,0.0,0.0,0.0,0.0,0.0,0.0,0.0,0.0,0.0,0.0,0.0,0.0,-2.3108,-2.3108,-2.3108,-2.3108,-2.3108,-2.3108,-2.3108,-2.3108,-2.3108,-2.3108,-2.3108,0.0,0.0,0.0,0.0,0.0,0.0,-2.3816,-2.4192,-2.4556,-2.4921,-2.5272,0.0,0.0,0.0,-2.6499,0.0,0.0,-2.6499,0.0,0.0,-2.6871,-2.6589,-2.704,-2.7802,-2.8363,-2.8939,-2.9504,-3.0042,-3.0419,-3.0777,-3.1322,0.0,0.0,-3.1511,0.0,0.0,0.0,0.0,-3.2213,-3.2437,-3.2856,-3.335,-3.4039,-3.4174,-3.4277,-3.4756,-3.5011,-3.5235,-3.5474,-3.5504,-3.5654,-3.6088,-3.6148,-3.6387,-3.703,-3.7105,-3.7345,-3.8003,-3.8063,-3.8257,-3.8706,-3.8945,-3.9065,-3.9065,-3.929,-3.9388,-3.9388,-3.9388,-3.9388,-3.9388,-3.9388,-3.9829,-4.069,-4.069,-4.1478,-4.2878,-4.2878,-4.3336,-4.4167,-4.4167,-4.4327,-4.4615,-4.4615,-4.4615,-4.4615,-4.4615,-4.4615,-4.4615,-4.4615,-4.4615,-4.4615,0.0,0.0,0.0,0.0,0.0,0.0,0.0,0.0,0.0,-2.1753,0.0,0.0,0.0,0.0,0.0,-2.3078,-2.3078,-2.3108,-2.3108,-2.3108,-2.3108,-2.3108,-2.3108,-2.3108,-2.3108,0.0,0.0,0.0,0.0,0.0,0.0,0.0,-2.4607,0.0,-2.5611,-2.5624,-2.5649,0.0,-2.6499,-2.6499,0.0,-2.6499,-2.6499,0.0,-2.6973,-2.7571,-2.6782,-2.704,-2.7703,-2.7703,-2.7736,-2.7769,-2.7802,-2.8395,0.0,0.0,0.0,0.0,0.0,0.0,0.0,0.0,0.0,0.0,-3.2303,-3.2452,-3.2677,-3.3335,-3.3469,-3.3469,-3.3499,-3.4023,-3.4698,-3.537,-3.5489,-3.5504,-3.5504,-3.5504,-3.5744,-3.6372,-3.6462,-3.6701,-3.7315,-3.7375,-3.7389,-3.7404,-3.8003,-3.8362,-3.8362,-3.902,-3.9394,-3.9394,-3.9373,-3.9388,-3.9388,-3.9388,-3.9829,-4.0656,-4.0656,-4.1113,-4.1965,-4.1997,-4.2489,-4.3306,-4.3336,-4.3814,-4.4615,-4.4615,-4.4615,-4.4615,-4.4615,-4.4615,-4.4615,-4.4615,-4.4615,-4.4615,0.0,0.0,0.0,0.0,0.0,0.0,0.0,0.0,0.0,0.0,0.0,0.0,-2.3078,-2.3108,-2.2854,-2.2279,-2.2763,-2.3108,-2.3108,-2.3108,-2.3108,-2.3108,-2.3108,-2.3108,-2.3108,0.0,0.0,0.0,0.0,0.0,0.0,0.0,0.0,0.0,-2.6072,-2.6248,-2.6273,-2.6424,0.0,-2.6499,-2.6499,-2.6499,0.0,-2.6499,-2.6658,-2.6816,-2.6589,-2.704,-2.7703,-2.7703,-2.8524,-2.9659,-3.0269,0.0,0.0,0.0,0.0,0.0,-3.1511,0.0,0.0,0.0,0.0,0.0,-3.1735,-3.178,-3.1959,-3.2647,-3.2781,-3.2931,-3.341,-3.3649,-3.3978,-3.4651,-3.5175,-3.5504,-3.5504,-3.5504,-3.5579,-3.5744,-3.5774,-3.6028,-3.6686,-3.6746,-3.6926,-3.7375,-3.7584,-3.7689,-3.7689,-3.8317,-3.8676,-3.8676,-3.9155,-3.9388,-3.9388,-3.9388,-3.9502,-3.9773,-3.9773,-4.022,-4.108,-4.1707,-4.2489,-4.3336,-4.3977,-4.4384,-4.4615,-4.4615,-4.4615,-4.4615,-4.4615,-4.4615,-4.4615,-4.4615,-4.4615,-4.4615,0.0,0.0,0.0,0.0,0.0,0.0,0.0,0.0,0.0,0.0,0.0,0.0,-2.2506,-2.2884,-2.2914,-2.2445,-2.2823,-2.3108,-2.3108,-2.3108,-2.3108,-2.3108,-2.3108,-2.3108,-2.3108,0.0,0.0,0.0,0.0,0.0,0.0,0.0,0.0,0.0,0.0,0.0,0.0,0.0,0.0,0.0,-2.6499,-2.6499,-2.6499,-2.6499,-2.6499,-2.6499,-2.6499,-2.6816,-2.7263,-2.7571,-2.8363,-2.9473,-3.1029,-3.1029,-3.0584,-3.1278,0.0,0.0,0.0,0.0,0.0,-3.1511,0.0,0.0,-3.1511,-3.1511,-3.1615,-3.1989,-3.2079,-3.2183,-3.2602,-3.2901,-3.3215,-3.3589,-3.4233,-3.4861,-3.5429,-3.5504,-3.5504,-3.5504,-3.5504,-3.5654,-3.6043,-3.6073,-3.6222,-3.6582,-3.6866,-3.7135,-3.7404,-3.7778,-3.7973,-3.7973,-3.8631,-3.899,-3.899,-3.9275,-3.9388,-3.9388,-3.9388,-3.9681,-4.0185,-4.1046,-4.1933,-4.2816,-4.368,-4.4253,-4.4615,-4.4615,-4.4615,-4.4615,-4.4615,-4.4615,-4.4615,-4.4615,-4.4615,-4.4615,0.0,0.0,0.0,0.0,0.0,0.0,0.0,0.0,0.0,0.0,-1.9464,-2.0171,-2.1721,-2.2628,-2.3078,-2.2975,-2.3047,-2.3133,-2.3195,-2.3195,-2.3233,-2.3296,-2.3296,-2.3296,-2.3296,0.0,0.0,0.0,0.0,0.0,0.0,0.0,0.0,0.0,0.0,0.0,0.0,0.0,0.0,-2.6499,-2.6499,-2.6499,-2.6499,-2.6499,-2.6499,-2.6499,-2.6499,-2.6499,-2.6624,-2.7417,-2.7703,-2.8149,-3.0584,-3.0329,-2.9442,-3.1029,-3.1511,0.0,0.0,0.0,0.0,-3.1511,-3.1511,0.0,-3.1511,-3.1511,-3.1511,-3.1511,-3.1511,-3.1511,-3.1511,-3.1989,-3.2392,-3.2497,-3.3006,-3.3858,-3.5205,-3.5385,-3.5415,-3.5489,-3.5504,-3.5504,-3.5504,-3.5504,-3.5504,-3.5504,-3.6043,-3.6611,-3.7165,-3.727,-3.73,-3.73,-3.7943,-3.8317,-3.8392,-3.899,-3.9349,-3.9388,-3.9388,-3.9388,-3.9409,-4.0397,-4.128,-4.2062,-4.3031,-4.3873,-4.4615,-4.4615,-4.4615,-4.4615,-4.4615,-4.4615,-4.4615,-4.4615,-4.4615,-4.4615,-1.8008,0.0,0.0,0.0,0.0,0.0,0.0,0.0,0.0,0.0,-2.0526,-2.1522,-2.1846,-2.2628,-2.2823,-2.2187,-2.2732,-2.3308,-2.3803,-2.3828,-2.4029,-2.4449,-2.4462,-2.4462,-2.4462,-2.4575,0.0,0.0,0.0,0.0,0.0,0.0,0.0,0.0,0.0,0.0,0.0,0.0,0.0,-2.6499,-2.6499,-2.6499,-2.6499,-2.6499,-2.6499,-2.6499,-2.6499,-2.6499,-2.6624,-2.7417,-2.7703,-2.8019,-2.995,-3.0299,-3.0238,-3.1219,-3.1511,-3.1511,-3.1511,-3.1511,-3.1511,-3.1511,-3.1511,0.0,-3.1511,-3.1511,-3.1511,-3.1511,-3.1511,-3.1511,-3.1511,-3.1615,-3.1869,-3.2392,-3.2617,-3.317,-3.4518,-3.4713,-3.4891,-3.5444,-3.5504,-3.5504,-3.5504,-3.5504,-3.5504,-3.5504,-3.5624,-3.5744,-3.5863,-3.6372,-3.6671,-3.6671,-3.727,-3.7853,-3.8377,-3.8527,-3.8871,-3.9388,-3.9388,-3.9388,-3.9445,-4.1028,-4.1836,-4.2093,-4.3663,-4.444,-4.4615,-4.4615,-4.4615,-4.4615,-4.4615,-4.4615,-4.4615,-4.4615,-4.4615,-4.4615,-1.8008,0.0,0.0,0.0,0.0,0.0,0.0,0.0,0.0,0.0,-1.9781,-2.059,-2.059,-2.1977,-2.2754,-2.2333,-2.3324,-2.4073,-2.4393,-2.4406,-2.4531,-2.4775,-2.4788,-2.4788,-2.4788,-2.5071,-2.5209,0.0,0.0,0.0,0.0,0.0,0.0,0.0,0.0,0.0,0.0,0.0,-2.6499,-2.6499,-2.6499,-2.6499,-2.6499,-2.6499,-2.6499,-2.6499,-2.6499,-2.6499,-2.6624,-2.7417,-2.7417,-2.7384,-2.9097,-2.9659,-2.9827,-3.0644,-3.119,-3.1511,-3.1511,-3.1511,-3.1511,-3.1511,-3.1511,0.0,0.0,-3.1511,-3.1511,-3.1511,-3.1511,-3.1511,-3.1511,-3.1511,-3.1615,-3.1944,-3.1989,-3.2333,-3.3365,-3.3784,-3.4113,-3.4457,-3.4801,-3.4996,-3.4996,-3.5295,-3.5504,-3.5504,-3.5504,-3.5504,-3.5504,-3.5818,-3.5998,-3.5998,-3.6611,-3.7105,-3.7434,-3.8063,-3.8556,-3.8916,-3.926,-3.9388,-3.9445,-4.0758,-4.1609,-4.2062,-4.338,-4.4196,-4.4615,-4.4615,-4.4615,-4.4615,-4.4615,-4.4615,-4.4615,-4.4615,-4.4615,-4.4615,-1.8008,0.0,0.0,0.0,0.0,0.0,0.0,0.0,0.0,0.0,-1.9011,-1.966,-1.9943,-2.1747,-2.2999,-2.3107,-2.4147,-2.4825,-2.4938,-2.4938,-2.5021,-2.5134,-2.5146,-2.5146,-2.5146,-2.5548,-2.5762,0.0,0.0,0.0,0.0,0.0,0.0,0.0,0.0,0.0,0.0,0.0,0.0,-2.6499,-2.6499,-2.6499,-2.6499,-2.6499,-2.6499,-2.6499,-2.6499,-2.6499,-2.6602,-2.738,-2.713,-2.6773,-2.84,-2.883,-2.8939,-2.9981,-3.0777,-3.1307,-3.1467,-3.1511,-3.1511,-3.1511,-3.1511,-3.1511,0.0,0.0,0.0,-3.1511,-3.1511,-3.1511,-3.1511,-3.1511,-3.1466,-3.1331,-3.1421,-3.1645,-3.2078,-3.2706,-3.3215,-3.3469,-3.3994,-3.4324,-3.4324,-3.4906,-3.5355,-3.5489,-3.5504,-3.5504,-3.5504,-3.5504,-3.5504,-3.5504,-3.6028,-3.6357,-3.6492,-3.7509,-3.8153,-3.8407,-3.896,-3.929,-3.9424,-4.0309,-4.108,-4.1804,-4.2847,-4.3697,-4.4355,-4.4542,-4.4615,-4.4615,-4.4615,-4.4615,-4.4615,-4.4615,-4.4615,-4.4615,-1.8008,-1.8008,0.0,0.0,0.0,0.0,0.0,0.0,0.0,0.0,0.0,-2.092,-2.2186,-2.3225,-2.4022,-2.4521,-2.4718,-2.4988,-2.5473,-2.5511,-2.5737,-2.6285,-2.6311,-2.6311,-2.6311,-2.6361,-2.6399,-2.6399,0.0,0.0,0.0,0.0,0.0,0.0,-2.6499,0.0,0.0,0.0,-2.6499,-2.6499,-2.6499,-2.6499,-2.6499,-2.6499,-2.6499,-2.6499,-2.6499,-2.6499,-2.6609,-2.7157,-2.6971,-2.6734,-2.8114,-2.8219,-2.8182,-2.9827,-3.0359,-3.0584,-3.1307,-3.1511,-3.1511,-3.1511,-3.1511,-3.1511,-3.1511,0.0,-3.1511,-3.1511,0.0,-3.1511,-3.1511,0.0,0.0,-3.0717,-3.1107,-3.1316,-3.0806,-3.1301,-3.2153,-3.3365,-3.3559,-3.3604,-3.3604,-3.4234,-3.4846,-3.5459,-3.5504,-3.5504,-3.5504,-3.5504,-3.5504,-3.5504,-3.5579,-3.5893,-3.6477,-3.6626,-3.727,-3.8392,-3.8467,-3.8826,-3.9424,-4.0309,-4.0758,-4.0946,-4.2583,-4.3366,-4.3502,-4.4281,-4.4615,-4.4615,-4.4615,-4.4615,-4.4615,-4.4615,-4.4615,-4.4615,-1.8008,-1.8008,0.0,0.0,0.0,0.0,0.0,0.0,0.0,0.0,0.0,-2.0066,-2.0671,-2.1796,-2.2811,-2.3637,-2.4424,-2.5262,-2.6076,-2.6135,-2.6248,-2.6487,-2.6499,-2.6499,-2.6499,-2.6499,-2.6499,-2.6499,-2.6499,0.0,0.0,0.0,0.0,0.0,-2.6499,0.0,-2.6499,0.0,-2.6499,-2.6499,-2.6499,-2.6499,-2.6499,-2.6499,-2.6688,-2.7014,-2.7341,-2.7419,-2.7444,-2.7682,-2.7607,-2.7465,-2.7726,-2.798,-2.8245,-2.8651,-2.9504,-3.0359,-3.0703,-3.1161,-3.1511,-3.1511,-3.1795,-3.2064,-3.2064,-3.2064,-3.2064,-3.2064,0.0,0.0,0.0,0.0,0.0,0.0,-3.1316,-3.1406,-3.1122,-3.1316,-3.1705,-3.2258,-3.2691,-3.308,-3.3455,-3.3739,-3.4188,-3.4861,-3.4906,-3.5085,-3.5489,-3.5504,-3.5504,-3.5504,-3.5504,-3.5639,-3.5908,-3.6297,-3.6761,-3.73,-3.8033,-3.8542,-3.8841,-3.9612,-4.0205,-4.0743,-4.1478,-4.2363,-4.3336,-4.368,-4.4138,-4.4615,-4.4615,-4.4615,-4.4615,-4.4615,-4.4615,-4.4615,-1.8359,0.0,0.0,0.0,0.0,0.0,0.0,0.0,-1.8783,-1.8783,-1.9298,-1.9716,-1.9872,-2.1229,-2.2532,-2.3391,-2.4673,-2.5734,-2.6465,-2.6245,-2.6198,-2.6499,-2.5978,-2.5804,-2.6094,-2.5826,-2.5687,-2.5687,0.0,0.0,0.0,0.0,0.0,0.0,0.0,-2.6499,-2.6499,0.0,-2.6499,-2.6499,-2.6499,-2.6587,-2.6713,-2.6713,-2.7065,-2.7557,-2.7959,-2.8109,-2.8134,-2.8285,-2.8235,-2.8059,-2.7808,-2.8045,-2.8321,-2.8031,-2.882,-2.984,-2.9931,-3.067,-3.1412,-3.1412,-3.2095,-3.2781,-3.2781,-3.2781,-3.2736,-3.2557,-3.2108,0.0,0.0,0.0,-3.1451,-3.1256,0.0,-3.1436,-3.1256,-3.1391,-3.1511,-3.1511,-3.1929,-3.2497,-3.3155,-3.323,-3.3499,-3.4189,-3.4414,-3.4728,-3.519,-3.54,-3.5504,-3.5504,-3.5504,-3.5504,-3.5504,-3.5983,-3.6312,-3.6492,-3.7599,-3.8212,-3.8407,-3.9095,-3.9737,-4.0378,-4.0588,-4.1412,-4.2614,-4.3108,-4.3651,-4.427,-4.4514,-4.4615,-4.4615,-4.4615,-4.4615,-4.4615,-1.9248,-1.8584,0.0,0.0,0.0,0.0,0.0,-1.9258,-1.9268,-1.9268,-2.0042,-2.078,-2.1293,-2.2999,-2.4329,-2.4862,-2.5873,-2.6465,-2.6499,-2.5594,-2.5476,-2.6452,-2.4624,-2.4036,-2.5052,-2.4072,-2.3588,-2.3588,0.0,0.0,0.0,0.0,0.0,0.0,-2.6499,-2.6499,-2.6499,-2.6499,-2.6499,-2.6499,-2.6499,-2.6813,-2.7256,-2.7256,-2.7595,-2.8084,-2.8097,-2.8109,-2.8185,-2.8687,-2.8512,-2.8197,-2.8675,-2.8511,-2.8164,-2.8404,-2.8515,-2.8632,-2.8963,-3.01,-3.1226,-3.1226,-3.2353,-3.3469,-3.3469,-3.3469,-3.3275,-3.2647,-3.2467,-3.2258,-3.163,-3.1511,-3.1286,-3.0642,-3.1077,0.0,0.0,-3.1077,-3.1511,-3.1511,-3.1525,-3.1795,-3.2482,-3.2512,-3.2826,-3.3484,-3.4113,-3.4518,-3.4533,-3.5145,-3.5504,-3.5504,-3.5504,-3.5504,-3.5504,-3.5534,-3.5863,-3.6492,-3.7135,-3.7778,-3.8407,-3.9095,-3.9424,-3.9481,-4.0343,-4.0724,-4.0912,-4.2614,-4.3306,-4.3443,-4.4253,-4.4615,-4.4615,-4.4615,-4.4615,-4.4615,0.0,0.0,0.0,0.0,0.0,0.0,-1.9268,-1.9521,-1.9707,-1.9707,-2.0205,-2.0659,-2.0847,-2.1453,-2.2259,-2.3362,-2.3509,-2.3943,-2.4922,-2.531,-2.5229,-2.4552,-2.5469,-2.5684,-2.5016,-2.5323,-2.5499,-2.5499,-2.5838,0.0,0.0,0.0,0.0,0.0,0.0,-2.6499,0.0,0.0,0.0,-2.6524,-2.6889,-2.7557,-2.8373,-2.8373,-2.8486,-2.8662,-2.9076,-2.9227,-2.9252,-2.944,-2.9377,-2.9189,-2.895,-2.8762,-2.8573,-2.832,-2.865,-2.9108,-2.9219,-2.9742,-3.0534,-3.1535,-3.222,-3.2891,-3.3944,-3.4174,-3.3963,-3.3305,-3.2826,-3.2288,-3.163,-3.1511,-3.1436,-3.1197,-3.1346,-3.1421,0.0,-3.1361,-3.1511,-3.1511,-3.1511,-3.1585,-3.1809,-3.1839,-3.2108,-3.2796,-3.3051,-3.3559,-3.4459,-3.4728,-3.504,-3.5489,-3.5504,-3.5504,-3.5504,-3.5504,-3.5609,-3.5848,-3.6492,-3.712,-3.7764,-3.8437,-3.899,-3.9424,-3.9702,-4.0185,-4.0758,-4.1346,-4.2252,-4.3336,-4.3621,-4.4093,-4.4615,-4.4615,-4.4615,-4.4615,-1.9774,0.0,0.0,0.0,-1.9414,-1.9561,-1.9754,-1.9971,-2.0146,-2.0146,-2.0527,-2.0801,-2.0801,-2.1273,-2.1925,-2.2822,-2.296,-2.3416,-2.4347,-2.4729,-2.4619,-2.3977,-2.4711,-2.4828,-2.4212,-2.4634,-2.4898,-2.4898,-2.5616,-2.599,0.0,0.0,0.0,0.0,0.0,-2.6499,-2.6499,-2.6499,-2.6612,-2.6851,-2.757,-2.8298,-2.8913,-2.9151,-2.9239,-2.9289,-2.9654,-2.9792,-2.9792,-2.9792,-2.9792,-2.9729,-2.9352,-2.9239,-2.9126,-2.8561,-2.8777,-2.9171,-2.9012,-2.9472,-3.0343,-3.1669,-3.2258,-3.2933,-3.4507,-3.4683,-3.4324,-3.3634,-3.3155,-3.2587,-3.1675,-3.1511,-3.1511,-3.1511,-3.1511,-3.1511,0.0,-3.1511,-3.1511,-3.1511,-3.1511,-3.1511,-3.1511,-3.1511,-3.1675,-3.2108,-3.2377,-3.2886,-3.3724,-3.4249,-3.4713,-3.513,-3.5385,-3.5504,-3.5504,-3.5504,-3.5504,-3.5519,-3.6178,-3.6806,-3.7434,-3.8093,-3.8766,-3.9388,-3.9388,-3.9737,-4.0274,-4.0554,-4.1363,-4.2458,-4.3047,-4.3651,-4.4167,-4.4485,-4.4615,-4.4615,-2.0605,-2.0605,-2.0351,-1.9492,-1.9678,-2.0088,-2.0537,-2.0625,-2.0635,-2.0635,-2.0986,-2.122,-2.122,-2.2422,-2.3252,-2.3243,-2.4129,-2.4681,-2.4664,-2.3833,-2.3743,-2.463,-2.258,-2.181,-2.2723,-2.23,-2.2134,-2.2182,-2.4084,0.0,0.0,0.0,0.0,0.0,-2.6499,0.0,-2.6499,-2.6499,-2.6826,-2.7419,-2.8499,-2.8913,-2.9001,-2.9578,-2.9792,-2.9792,-2.9792,-2.9792,-2.9792,-2.9792,-2.9792,-2.9792,-2.9792,-2.9792,-2.9679,-2.9101,-2.8938,-2.8813,-2.8335,-2.9222,-3.0578,-3.1542,-3.2368,-3.3407,-3.5032,-3.4931,-3.4291,-3.3572,-3.3469,-3.3095,-3.1691,-3.1467,-3.1511,-3.1511,-3.1511,-3.1511,-3.1511,-3.1511,-3.1511,-3.1511,-3.1511,-3.1511,-3.1511,-3.1511,-3.1511,-3.1511,-3.2079,-3.2482,-3.2512,-3.3724,-3.4474,-3.4503,-3.5145,-3.5504,-3.5504,-3.5504,-3.5504,-3.5519,-3.6148,-3.6776,-3.7434,-3.8063,-3.8736,-3.9388,-3.9388,-3.9388,-3.9445,-4.0309,-4.0656,-4.0844,-4.252,-4.3216,-4.3413,-4.4281,-4.4615,-4.4615,-2.0605,-2.0605,-2.0537,-2.0312,-2.0361,-2.0478,-2.0586,-2.085,-2.1064,-2.1064,-2.1445,-2.1719,-2.1719,-2.2043,-2.2396,-2.2673,-2.2653,-2.2757,-2.308,-2.366,-2.3586,-2.2676,-2.3805,-2.4063,-2.3154,-2.348,-2.3988,-2.4696,-2.4895,0.0,-2.6129,0.0,0.0,0.0,0.0,0.0,-2.6499,-2.6499,-2.7052,-2.7959,-2.8612,-2.9189,-2.9591,-2.9729,-2.9792,-2.9792,-2.9792,-2.9792,-2.9792,-2.9792,-2.9792,-2.9792,-2.9792,-2.9792,-2.9767,-2.9616,-2.9566,-2.9541,-2.9402,-2.9328,-2.9637,-3.0997,-3.1218,-3.1658,-3.3863,-3.4263,-3.3827,-3.2739,-3.3053,-3.2929,-3.0981,-3.1087,-3.1511,-3.1511,-3.1511,-3.1511,-3.1511,-3.1511,-3.1511,-3.1511,-3.1511,-3.1511,-3.1511,-3.1511,-3.1511,-3.1511,-3.166,-3.1974,-3.2452,-3.3305,-3.3978,-3.4488,-3.5145,-3.5504,-3.5504,-3.5504,-3.5504,-3.5504,-3.5669,-3.6342,-3.7419,-3.7584,-3.8302,-3.9388,-3.9388,-3.9388,-3.9409,-3.9646,-4.0115,-4.0743,-4.118,-4.2157,-4.3413,-4.4281,-4.4615,-4.4615,-2.0605,-2.0723,-2.0859,-2.0859,-2.1016,-2.1124,-2.0889,-2.123,-2.1523,-2.1523,-2.1894,-2.2158,-2.2158,-2.2324,-2.2529,-2.2721,-2.2568,-2.2539,-2.2773,-2.3353,-2.3328,-2.2441,-2.3608,-2.3825,-2.2971,-2.3493,-2.4199,-2.4978,-2.4775,-2.529,-2.6499,0.0,0.0,0.0,0.0,-2.6499,-2.6524,-2.7014,-2.767,-2.8511,-2.9089,-2.9503,0.0,-2.9792,-2.9792,-2.9792,-2.9792,-2.9792,-2.9792,-2.9792,-2.9792,-2.9792,-2.9792,-2.9792,-2.9792,-2.9792,-2.9792,-2.9792,-2.9792,-2.9553,-2.9593,-3.0891,-3.0758,-3.0842,-3.2926,-3.3505,-3.3288,-3.216,-3.2471,-3.2355,-3.0441,-3.0577,-3.1087,-3.1438,-3.1511,-3.1511,-3.1511,-3.1511,-3.1511,-3.1511,-3.1511,-3.1511,-3.1511,-3.1511,-3.1511,-3.1511,-3.1511,-3.166,-3.2034,-3.2706,-3.3365,-3.4054,-3.4696,-3.519,-3.5504,-3.5504,-3.5504,-3.5504,-3.5504,-3.6178,-3.7404,-3.7404,-3.8138,-3.9388,-3.9388,-3.9388,-3.9388,-3.9388,-3.9702,-4.0185,-4.0554,-4.1543,-4.2847,-4.371,-4.4253,-4.4615,-2.0683,-2.1016,-2.1278,-2.1278,-2.168,-2.1846,-2.1424,-2.1728,-2.1963,-2.1963,-2.2334,-2.2598,-2.2598,-2.2877,-2.3091,-2.3091,-2.3091,-2.3091,-2.3091,-2.3091,-2.3091,-2.3091,-2.275,-2.2598,-2.2598,-2.2991,-2.3507,-2.415,-2.4121,-2.4853,0.0,0.0,0.0,0.0,0.0,0.0,0.0,-2.7745,-2.8449,-2.8938,-2.9566,-2.9792,-2.9792,-2.9792,-2.9792,-2.9792,-2.9792,-2.9792,-2.9792,-2.9792,-2.9792,-2.9792,-2.9792,-2.9792,-2.9792,-2.9792,-2.9792,-2.9792,-2.9792,-2.9792,-2.9998,-3.0796,-3.0603,-3.0537,-3.2055,-3.2639,-3.2588,-3.1633,-3.1803,-3.1634,-3.0036,-3.0101,-3.0611,-3.1234,-3.1438,-3.1467,-3.1351,-3.1438,-3.1511,-3.1511,-3.1511,0.0,-3.1511,-3.1511,-3.1511,-3.1511,-3.1511,-3.1511,-3.1511,-3.2123,-3.2826,-3.3469,-3.4159,-3.4801,-3.5489,-3.5504,-3.5504,-3.5504,-3.5504,-3.6178,-3.7404,-3.7404,-3.8138,-3.9388,-3.9388,-3.9388,-3.9388,-3.9388,-3.9388,-3.9481,-4.0378,-4.118,-4.1933,-4.2816,-4.3621,-4.4281,-2.1045,-2.1465,-2.1777,-2.1777,-2.2119,-2.2373,-2.2295,-2.2353,-2.2402,-2.2402,-2.2773,-2.2984,-2.2984,-2.3052,-2.3091,-2.3091,-2.3091,-2.3091,-2.3091,-2.3091,-2.3091,-2.3091,-2.3023,-2.2984,-2.2984,-2.2778,-2.3089,-2.4018,-2.3646,-2.4244,0.0,0.0,0.0,0.0,0.0,0.0,-2.7241,-2.831,-2.88,-2.8938,-2.9566,-2.9792,-2.9792,-2.9792,-2.9792,-2.9792,-2.9792,-2.9792,-2.9792,-2.9792,-2.9792,-2.9792,-2.9792,-2.9792,-2.9792,-2.9792,-2.9792,-2.9792,-2.9792,-2.9792,-2.983,-2.9998,-2.9961,-3.0164,-3.1191,-3.1492,-3.1365,-3.073,-3.1188,-3.1261,-2.9747,-3.028,-3.0873,-3.0567,-3.1058,-3.1278,-3.0614,-3.1087,-3.1511,-3.1511,-3.1511,-3.1511,-3.1511,-3.1511,-3.1511,-3.1511,-3.1511,-3.1511,-3.1511,-3.2123,-3.2826,-3.3469,-3.4159,-3.4801,-3.5489,-3.5504,-3.5504,-3.5504,-3.5504,-3.6178,-3.7404,-3.7404,-3.8138,-3.9388,-3.9388,-3.9388,-3.9388,-3.9388,-3.9388,-3.9481,-4.0378,-4.0777,-4.1046,-4.1901,-4.2316,-4.2676,-2.1533,-2.1914,-2.2207,-2.2207,-2.2559,-2.2789,-2.2789,-2.3027,-2.3096,-2.2818,-2.3213,-2.3477,-2.3477,-2.3672,-2.3754,-2.3754,-2.3754,-2.3754,-2.3754,-2.3594,-2.3477,-2.3477,-2.3218,-2.3091,-2.3091,-2.2896,-2.3185,-2.3981,-2.3257,-2.3659,-2.5207,-2.5256,0.0,0.0,0.0,-2.762,0.0,-2.8662,-2.9063,-2.9402,-2.9679,-2.9792,-2.9792,-2.9792,-2.9792,-2.9792,-2.9792,-2.9792,-2.9792,-2.9792,-2.9792,-2.9792,-2.9792,-2.9792,-2.9792,-2.9792,-2.9792,-2.9792,-2.9792,-2.9792,-2.9792,-2.9792,-2.9792,-2.9934,-3.0381,-3.0871,-3.1003,-3.0222,-3.056,-3.0636,-2.9592,-2.9599,-2.9808,-3.0024,-3.0133,-3.0072,-2.9659,-3.0359,-3.0866,-3.0866,-3.1248,-3.1511,-3.1511,-3.1511,-3.1511,-3.1511,-3.1511,-3.1511,-3.1511,-3.1809,-3.2437,-3.3469,-3.3799,-3.4457,-3.5489,-3.5504,-3.5504,-3.5504,-3.5504,-3.6178,-3.7404,-3.7404,-3.8138,-3.9388,-3.9388,-3.9388,-3.9388,-3.9388,-3.9388,-3.9445,-3.9864,-4.0025,-4.0115,-4.1013,-4.1346,-4.156,-2.2021,-2.2353,-2.2646,-2.2646,-2.2955,-2.3227,-2.3227,-2.3643,-2.3769,-2.3286,-2.3652,-2.3926,-2.3926,-2.4219,-2.4414,-2.4414,-2.4414,-2.4414,-2.4414,-2.4111,-2.3887,-2.3799,-2.3457,-2.3188,-2.3091,-2.3091,-2.3305,-2.3803,-2.302,-2.3256,-2.4513,-2.4937,-2.5727,-2.6887,-2.7841,-2.8487,-2.89,-2.9026,-2.9377,-2.9792,-2.9792,-2.9792,-2.9792,-2.9792,-2.9792,-2.9792,-2.9792,-2.9792,-2.9792,-2.9792,-2.9792,-2.9792,-2.9792,-2.9792,-2.9792,-2.9792,-2.9792,-2.9792,-2.9792,-2.9792,-2.9792,-2.9792,-2.9792,-2.9792,-2.9792,-3.0381,-3.0696,-2.9934,-3.0047,-3.0121,-2.9649,-2.9184,-2.9016,-2.9434,-2.9338,-2.9059,-2.8762,-2.9473,-3.0011,-3.0011,-3.0748,-3.1248,-3.1248,-3.1248,-3.1248,-3.1248,-3.1409,-3.1511,-3.1511,-3.1511,-3.2108,-3.3455,-3.3499,-3.4143,-3.5489,-3.5504,-3.5504,-3.5504,-3.5654,-3.6312,-3.7404,-3.7554,-3.8272,-3.9388,-3.9388,-3.9388,-3.9388,-3.9388,-3.9388,-3.9388,-3.9388,-3.9388,-3.9481,-4.0185,-4.0432,-4.0656,-2.2451,-2.275,-2.3033,-2.3033,-2.3437,-2.373,-2.373,-2.4082,-2.4209,-2.3779,-2.4092,-2.4355,-2.4355,-2.4394,-2.4414,-2.4414,-2.4414,-2.4414,-2.4414,-2.4385,-2.4189,-2.3809,-2.375,-2.3545,-2.3101,-2.3091,-2.3125,-2.3163,-2.3076,-2.318,-2.3452,-2.4872,-2.6399,-2.7975,-2.855,-2.8838,-2.8925,-2.949,-2.9741,-2.9792,-2.9792,-2.9792,-2.9792,-2.9792,-2.9792,-2.9792,-2.9792,-2.9792,-2.9792,-2.9792,-2.9792,-2.9792,-2.9792,-2.9792,-2.9792,-2.9792,-2.9792,-2.9792,-2.9792,-2.9792,-2.9792,-2.9792,-2.9792,-2.9792,-2.9792,-2.9869,-2.9895,-2.983,-2.9819,-2.9897,-3.0108,-3.0082,-2.9737,-2.8794,-2.924,-2.9266,-2.8,-2.8556,-2.9129,-2.9129,-2.9889,-3.0419,-3.0419,-3.0419,-3.0419,-3.0419,-3.1087,-3.1511,-3.1511,-3.1511,-3.2108,-3.3455,-3.3499,-3.4143,-3.5489,-3.5504,-3.5504,-3.5519,-3.6118,-3.6746,-3.7434,-3.8018,-3.8706,-3.9388,-3.9388,-3.9388,-3.9388,-3.9388,-3.9388,-3.9388,-3.9388,-3.9388,-3.9424,-3.9481,-3.9502,-3.9666,-2.3281,-2.3613,-2.3861,-2.3861,-2.4053,-2.417,-2.417,-2.4531,-2.4746,-2.458,-2.4707,-2.4805,-2.4805,-2.5049,-2.5157,-2.5157,-2.5157,-2.5157,-2.5157,-2.4961,-2.4736,-2.4607,-2.4062,-2.3711,-2.3535,-2.3227,-2.3091,-2.3091,-2.38,-2.4154,-2.4231,-2.6179,-2.7837,-2.9126,-2.9352,-2.9453,-2.9465,-2.9691,-2.9792,-2.9792,-2.9792,-2.9792,-2.9792,-2.9792,-2.9792,-2.9792,-2.9792,-2.9792,-2.9792,-2.9792,-2.9792,-2.9792,-2.9792,-2.9792,-2.9792,-2.9792,-2.9792,-2.9792,-2.9792,-2.9792,-2.9792,-2.9792,-2.9792,-2.9792,-2.9792,-2.9792,-2.9792,-2.9792,-2.9792,-2.9832,-2.9947,-2.9653,-2.9257,-2.8797,-2.876,-2.8486,-2.7584,-2.817,-2.8577,-2.8241,-2.9002,-2.9504,-2.9504,-2.9504,-2.9504,-2.9504,-3.0299,-3.0777,-3.0777,-3.1619,-3.2542,-3.3469,-3.3873,-3.4547,-3.5489,-3.5504,-3.5504,-3.5519,-3.6178,-3.6806,-3.7434,-3.8093,-3.8766,-3.9388,-3.9388,-3.9388,-3.9388,-3.9388,-3.9388,-3.9388,-3.9388,-3.9388,-3.9388,-3.9388,-3.9388,-3.9445,-2.3975,-2.4209,-2.4414,-2.4414,-2.4521,-2.4609,-2.4609,-2.498,-2.5264,-2.5264,-2.5264,-2.5264,-2.5264,-2.5547,-2.5693,-2.5693,-2.5693,-2.5693,-2.5693,-2.5439,-2.5205,-2.5125,-2.4482,-2.4111,-2.3975,-2.3555,-2.333,-2.333,-2.3991,-2.4224,-2.4186,-2.6062,-2.7794,-2.9275,-2.8961,-2.9209,-2.9792,-2.9443,-2.9495,-2.9792,-2.9792,-2.9792,-2.9792,-2.9792,-2.9792,-2.9792,-2.9792,-2.9792,-2.9792,-2.9792,-2.9792,-2.9792,-2.9792,-2.9792,-2.9792,-2.9792,-2.9792,-2.9792,-2.9792,-2.9792,-2.9792,-2.9792,-2.9792,-2.9792,-2.9792,-2.9792,-2.9792,-2.9792,-2.9792,-2.9792,-2.9792,-2.9453,-2.9126,-2.8913,-2.8562,-2.816,-2.7607,-2.7895,-2.7993,-2.7616,-2.8191,-2.862,-2.862,-2.862,-2.8817,-2.9251,-2.9865,-3.0313,-3.0558,-3.157,-3.2629,-3.3754,-3.4264,-3.4801,-3.5489,-3.5504,-3.5504,-3.5519,-3.6357,-3.6985,-3.7434,-3.8302,-3.896,-3.9388,-3.9388,-3.9388,-3.9388,-3.9388,-3.9388,-3.9388,-3.9388,-3.9388,-3.9388,-3.9388,-3.9388,-3.9388,-2.4414,-2.4414,-2.4414,-2.4414,-2.4775,-2.5106,-2.5106,-2.5439,-2.5684,-2.5684,-2.5684,-2.5684,-2.5684,-2.5684,-2.5693,-2.5693,-2.5693,-2.5693,-2.5693,-2.5684,-2.5527,-2.5135,-2.5106,-2.4853,-2.4414,-2.3994,-2.3779,-2.3779,-2.335,-2.293,-2.2562,-2.3732,-2.5624,-2.8084,-2.7005,-2.7758,-2.9714,-2.8597,-2.8767,-2.9792,-2.9792,-2.9792,-2.9792,-2.9792,-2.9792,-2.9792,-2.9792,-2.9792,-2.9792,-2.9792,-2.9792,-2.9792,-2.9792,-2.9792,-2.9792,-2.9792,-2.9792,-2.9792,-2.9792,-2.9792,-2.9792,-2.9792,-2.9792,-2.9792,-2.9792,-2.9792,-2.9792,-2.9792,-2.9792,-2.9792,-2.9792,-2.9779,-2.9591,-2.8988,-2.8888,-2.8687,-2.8172,-2.762,-2.7316,-2.7304,-2.7532,-2.7736,-2.7736,-2.7736,-2.8357,-2.9877,-2.9984,-3.0357,-3.1147,-3.1224,-3.2207,-3.4412,-3.4503,-3.4801,-3.5489,-3.5504,-3.5504,-3.5519,-3.6791,-3.7404,-3.7464,-3.8796,-3.9373,-3.9388,-3.9388,-3.9388,-3.9388,-3.9388,-3.9388,-3.9388,-3.9388,-3.9388,-3.9388,-3.9388,-3.9388,-3.9388,-2.4863,-2.5107,-2.5274,-2.5274,-2.543,-2.5527,-2.5527,-2.5596,-2.5693,-2.5693,-2.5693,-2.5693,-2.5693,-2.5693,-2.5693,-2.5693,-2.5693,-2.5693,-2.5693,-2.5693,-2.5625,-2.5527,-2.5234,-2.5047,-2.4863,-2.4443,-2.4072,-2.3789,-2.4378,-2.4878,-2.5216,-2.559,-2.6192,-2.7046,-2.74,-2.7574,-2.7637,-2.8779,-2.9028,-2.8727,-2.9495,-2.9792,-2.9792,-2.9792,-2.9792,-2.9792,-2.9792,-2.9792,-2.9792,-2.9792,-2.9792,-2.9792,-2.9792,-2.9792,-2.9792,-2.9792,-2.9792,-2.9792,-2.9792,-2.9792,-2.9792,-2.9792,-2.9792,-2.9792,-2.9792,-2.9792,-2.9792,-2.9792,-2.9792,-2.9792,-2.9792,-2.9792,-2.9729,-2.9553,-2.9515,-2.9315,-2.8712,-2.8511,-2.826,-2.7896,-2.7921,-2.7984,-2.7984,-2.7984,-2.819,-2.8662,-2.8711,-2.9644,-3.176,-3.2876,-3.3789,-3.4488,-3.4936,-3.528,-3.5504,-3.5504,-3.5729,-3.6178,-3.7015,-3.7898,-3.8796,-3.923,-3.9388,-3.9388,-3.9388,-3.9388,-3.9388,-3.9388,-3.9388,-3.9388,-3.9388,-3.9388,-3.9388,-3.9388,-3.9388,-3.9388,-2.5322,-2.5547,-2.5693,-2.5693,-2.5693,-2.5693,-2.5693,-2.5693,-2.5693,-2.5693,-2.5693,-2.5693,-2.5693,-2.5693,-2.5693,-2.5693,-2.5693,-2.5693,-2.5693,-2.5693,-2.5693,-2.5693,-2.5469,-2.5322,-2.5322,-2.4883,-2.4531,-2.4268,-2.4635,-2.5016,-2.5488,-2.5306,-2.5431,-2.588,-2.6119,-2.6337,-2.6565,-2.7504,-2.7988,-2.8176,-2.8897,-2.9417,-2.9792,-2.9792,-2.9792,-2.9792,-2.9792,-2.9792,-2.9792,-2.9792,-2.9792,-2.9792,-2.9792,-2.9792,-2.9792,-2.9792,-2.9792,-2.9792,-2.9792,-2.9792,-2.9792,-2.9792,-2.9792,-2.9792,-2.9792,-2.9792,-2.9792,-2.9792,-2.9792,-2.9792,-2.9792,-2.9792,-2.9792,-2.9792,-2.9792,-2.9666,-2.9302,-2.9026,-2.8762,-2.8461,-2.8235,-2.8109,-2.8109,-2.8109,-2.8331,-2.8922,-2.8972,-2.9958,-3.2221,-3.3071,-3.3891,-3.4861,-3.528,-3.5504,-3.5504,-3.5504,-3.5833,-3.6492,-3.736,-3.8362,-3.9388,-3.9388,-3.9388,-3.9388,-3.9388,-3.9388,-3.9388,-3.9388,-3.9388,-3.9388,-3.9388,-3.9388,-3.9388,-3.9388,-3.9388,-3.9388,-2.5693,-2.5693,-2.5693,-2.5693,-2.5693,-2.5693,-2.5693,-2.5693,-2.5693,-2.5693,-2.5693,-2.5693,-2.5693,-2.5693,-2.5693,-2.5693,-2.5693,-2.5693,-2.5693,-2.5693,-2.5693,-2.5693,-2.5693,-2.5693,-2.5693,-2.5332,-2.5145,-2.5116,-2.4238,-2.3838,-2.3828,-2.3374,-2.3751,-2.4669,-2.3677,-2.438,-2.6182,-2.5294,-2.6066,-2.7884,-2.7964,-2.8688,-2.9663,-2.9663,-2.974,-2.9792,-2.9792,-2.9792,-2.9804,-2.9829,-2.9854,-2.9854,-2.9892,-2.9905,-2.9892,-2.9867,-2.9854,-2.9854,-2.9892,-2.9905,-2.9892,-2.9854,-2.9817,-2.9792,-2.9792,-2.9792,-2.9792,-2.9792,-2.9792,-2.9792,-2.9792,-2.9792,-2.9792,-2.9792,-2.9792,-2.9792,-2.9792,-2.9327,-2.895,-2.895,-2.8536,-2.8222,-2.8222,-2.8222,-2.8828,-3.0243,-3.0355,-3.1002,-3.2437,-3.2033,-3.2868,-3.5311,-3.5392,-3.5439,-3.5504,-3.5549,-3.5923,-3.6626,-3.7868,-3.8796,-3.9388,-3.9388,-3.9388,-3.9388,-3.9388,-3.9388,-3.9388,-3.9388,-3.9388,-3.9388,-3.9388,-3.9388,-3.9388,-3.9388,-3.9388,-3.9388,-2.5693,-2.5693,-2.5693,-2.5693,-2.5693,-2.5693,-2.5693,-2.5693,-2.5693,-2.5693,-2.5693,-2.5693,-2.5693,-2.5693,-2.5693,-2.5693,-2.5693,-2.5693,-2.5693,-2.5693,-2.5693,-2.5693,-2.5693,-2.5693,-2.5693,-2.5635,-2.541,-2.5116,-2.4531,-2.4268,-2.4268,-2.416,-2.4071,-2.4058,-2.4611,-2.4505,-2.4016,-2.5473,-2.5922,-2.5661,-2.6543,-2.7533,-2.8518,-2.8518,-2.9028,-2.9792,-2.9792,-2.9792,-2.9854,-3.0281,-3.0419,-3.0482,-3.0884,-3.1009,-3.0934,-3.0532,-3.0419,-3.0507,-3.0909,-3.1009,-3.0922,-3.052,-3.0105,-2.9792,-2.9792,-2.9792,-2.9792,-2.9792,-2.9792,-2.9792,-2.9792,-2.9792,-2.9792,-2.9792,-2.9792,-2.9792,-2.9792,-2.9679,-2.9591,-2.9591,-2.9465,-2.9402,-2.9402,-2.9402,-2.9555,-2.991,-2.9948,-3.0428,-3.1486,-3.1402,-3.2278,-3.4279,-3.4361,-3.4725,-3.5504,-3.6013,-3.6821,-3.7943,-3.8781,-3.926,-3.9388,-3.9388,-3.9388,-3.9388,-3.9388,-3.9388,-3.9388,-3.9388,-3.9388,-3.9388,-3.9388,-3.9388,-3.9388,-3.9388,-3.9388,-3.9388,-2.5693,-2.5693,-2.5693,-2.5693,-2.5693,-2.5693,-2.5693,-2.5693,-2.5693,-2.5693,-2.5693,-2.5693,-2.5693,-2.5693,-2.5693,-2.5693,-2.5693,-2.5693,-2.5693,-2.5693,-2.5693,-2.5693,-2.5693,-2.5693,-2.5693,-2.5693,-2.5567,-2.5371,-2.4932,-2.4717,-2.4717,-2.4512,-2.4297,-2.4082,-2.4676,-2.4466,-2.3765,-2.5001,-2.5471,-2.5438,-2.6088,-2.6963,-2.8002,-2.8551,-2.916,-2.9763,-3.0308,-3.052,-3.057,-3.0871,-3.0972,-3.1022,-3.1298,-3.1386,-3.1386,-3.1348,-3.1173,-3.1035,-3.1311,-3.1386,-3.1323,-3.1035,-3.057,-3.0168,-3.0168,-2.998,-2.9792,-2.9792,-2.9792,-2.9792,-2.9792,-2.9792,-2.9792,-2.9792,-2.9792,-2.9792,-2.9792,-2.9792,-2.9792,-2.9792,-2.9792,-2.9792,-2.9792,-2.9792,-2.9792,-2.9792,-2.9792,-3.0037,-3.052,-3.0558,-3.1402,-3.331,-3.3345,-3.4,-3.5266,-3.6663,-3.7704,-3.8407,-3.9095,-3.9388,-3.9388,-3.9388,-3.9388,-3.9388,-3.9388,-3.9388,-3.9388,-3.9388,-3.9388,-3.9388,-3.9388,-3.9388,-3.9388,-3.9388,-3.9388,-3.9388,-2.5693,-2.5693,-2.5693,-2.5693,-2.5693,-2.5693,-2.5693,-2.5693,-2.5693,-2.5693,-2.5693,-2.5693,-2.5693,-2.5693,-2.5693,-2.5693,-2.5693,-2.5693,-2.5693,-2.5693,-2.5693,-2.5693,-2.5693,-2.5693,-2.5693,-2.5693,-2.5693,-2.5693,-2.5361,-2.5166,-2.5166,-2.4785,-2.458,-2.4521,-2.4521,-2.4473,-2.4414,-2.4414,-2.4955,-2.5844,-2.5844,-2.6496,-2.7568,-2.8663,-2.9187,-2.9484,-3.0692,-3.1128,-3.1182,-3.1446,-3.1512,-3.1537,-3.1612,-3.165,-3.1738,-3.2202,-3.2014,-3.165,-3.165,-3.1587,-3.1512,-3.1512,-3.1122,-3.0733,-3.0733,-3.0319,-2.9917,-2.9917,-2.9854,-2.9792,-2.9792,-2.9792,-2.9792,-2.9792,-2.9792,-2.9792,-2.9792,-2.9792,-2.9792,-2.9792,-2.9792,-2.9792,-2.9792,-2.9792,-2.9792,-2.9792,-2.9792,-2.9792,-2.9792,-2.9792,-3.0571,-3.2241,-3.2458,-3.3328,-3.5025,-3.7113,-3.821,-3.8314,-3.9053,-3.9388,-3.9388,-3.9388,-3.9388,-3.9388,-3.9388,-3.9388,-3.9388,-3.9388,-3.9388,-3.9388,-3.9388,-3.9388,-3.9388,-3.9388,-3.9388,-3.9388,-2.5693,-2.5693,-2.5693,-2.5693,-2.5693,-2.5693,-2.5693,-2.5693,-2.5693,-2.5693,-2.5693,-2.5693,-2.5693,-2.5693,-2.5693,-2.5693,-2.5693,-2.5693,-2.5693,-2.5693,-2.5693,-2.5693,-2.5693,-2.5693,-2.5693,-2.5693,-2.5693,-2.5693,-2.5615,-2.5635,-2.5635,-2.5518,-2.5332,-2.4971,-2.4971,-2.4756,-2.4414,-2.4414,-2.4506,-2.4634,-2.4634,-2.5346,-2.6372,-2.6585,-2.7184,-2.8166,-2.9442,-2.9876,-3.0116,-3.158,-3.2089,-3.2164,-3.2667,-3.286,-3.283,-3.296,-3.288,-3.286,-3.286,-3.2453,-3.2089,-3.2089,-3.1675,-3.1273,-3.1273,-3.0871,-3.0482,-3.0482,-3.0118,-2.9792,-2.9792,-2.9792,-2.9792,-2.9792,-2.9792,-2.9792,-2.9792,-2.9792,-2.9792,-2.9792,-2.9792,-2.9792,-2.9792,-2.9792,-2.9792,-2.9792,-2.9792,-2.9792,-2.9792,-2.9792,-3.0148,-3.0865,-3.1665,-3.3095,-3.5242,-3.6453,-3.7322,-3.7924,-3.8936,-3.9388,-3.9388,-3.9388,-3.9388,-3.9388,-3.9388,-3.9388,-3.9388,-3.9388,-3.9388,-3.9388,-3.9388,-3.9388,-3.9388,-3.9388,-3.9388,-3.9388,-2.5693,-2.5693,-2.5693,-2.5693,-2.5693,-2.5693,-2.5693,-2.5693,-2.5693,-2.5693,-2.5693,-2.5693,-2.5693,-2.5693,-2.5693,-2.5693,-2.5693,-2.5693,-2.5693,-2.5693,-2.5693,-2.5693,-2.5693,-2.5693,-2.5693,-2.5693,-2.5693,-2.5693,-2.5693,-2.5693,-2.5693,-2.5693,-2.5577,-2.543,-2.543,-2.5312,-2.5079,-2.5079,-2.5079,-2.5079,-2.5079,-2.5411,-2.5956,-2.6635,-2.7215,-2.7833,-2.9036,-2.9931,-3.0577,-3.1404,-3.2129,-3.2717,-3.2993,-3.3124,-3.3124,-3.3124,-3.3124,-3.3124,-3.3124,-3.288,-3.2679,-3.2679,-3.2252,-3.1838,-3.1838,-3.1424,-3.0947,-3.067,-3.0407,-3.0143,-2.9842,-2.9792,-2.9792,-2.9792,-2.9792,-2.9792,-2.9792,-2.9792,-2.9792,-2.9792,-2.9792,-2.9792,-2.9792,-2.9792,-2.9792,-2.9792,-2.9792,-2.9792,-2.9792,-3.0068,-3.0357,-3.0608,-3.2136,-3.3462,-3.447,-3.5825,-3.6634,-3.693,-3.8032,-3.8546,-3.8546,-3.9141,-3.9388,-3.9388,-3.9388,-3.9388,-3.9388,-3.9388,-3.9388,-3.9388,-3.9388,-3.9388,-3.9388,-3.9388,-3.9388,-3.9388,-2.5693,-2.5693,-2.5693,-2.5693,-2.5693,-2.5693,-2.5693,-2.5693,-2.5693,-2.5693,-2.5693,-2.5693,-2.5693,-2.5693,-2.5693,-2.5693,-2.5693,-2.5693,-2.5693,-2.5693,-2.5693,-2.5693,-2.5693,-2.5693,-2.5693,-2.5693,-2.5693,-2.5693,-2.5693,-2.5693,-2.5693,-2.5693,-2.5693,-2.5693,-2.5693,-2.5693,-2.5693,-2.5693,-2.5693,-2.5693,-2.5693,-2.5693,-2.583,-2.6802,-2.7173,-2.7315,-2.8541,-2.9772,-3.081,-3.1134,-3.2052,-3.3124,-3.3124,-3.3124,-3.3124,-3.3124,-3.3124,-3.3124,-3.3124,-3.3124,-3.3124,-3.3124,-3.2742,-3.2416,-3.2416,-3.1976,-3.1474,-3.1072,-3.0783,-3.0482,-3.0068,-2.988,-2.9792,-2.9792,-2.9792,-2.9792,-2.9792,-2.9792,-2.9792,-2.9792,-2.9792,-2.9792,-2.9792,-2.9792,-2.9792,-2.9792,-2.9917,-2.998,-2.998,-3.0495,-3.0859,-3.0984,-3.2583,-3.3481,-3.3666,-3.5117,-3.5854,-3.5854,-3.6905,-3.742,-3.7458,-3.8546,-3.9017,-3.9031,-3.9301,-3.9388,-3.9388,-3.9388,-3.9388,-3.9388,-3.9388,-3.9388,-3.9388,-3.9388,-3.9388,-3.9388,-2.5693,-2.5693,-2.5693,-2.5693,-2.5693,-2.5693,-2.5693,-2.5693,-2.5693,-2.5693,-2.5693,-2.5693,-2.5693,-2.5693,-2.5693,-2.5693,-2.5693,-2.5693,-2.5693,-2.5693,-2.5693,-2.5693,-2.5693,-2.5693,-2.5693,-2.5693,-2.5693,-2.5693,-2.5693,-2.5693,-2.5693,-2.5693,-2.5693,-2.5693,-2.5693,-2.5693,-2.5693,-2.5693,-2.5693,-2.5693,-2.5693,-2.5693,-2.5684,-2.5781,-2.583,-2.6014,-2.7268,-2.8495,-2.9727,-3.081,-3.2052,-3.3124,-3.3124,-3.3124,-3.3124,-3.3124,-3.3124,-3.3124,-3.3124,-3.3124,-3.3124,-3.3124,-3.3086,-3.3018,-3.3018,-3.2566,-3.2139,-3.2102,-3.1311,-3.0608,-3.057,-3.0131,-2.9792,-2.9792,-2.9792,-2.9792,-2.9792,-2.9792,-2.9792,-2.9792,-2.9792,-2.9792,-2.9792,-2.9792,-2.9792,-2.9792,-3.0269,-3.0557,-3.0557,-3.1047,-3.1574,-3.2077,-3.2248,-3.2592,-3.3164,-3.4236,-3.4815,-3.4815,-3.5814,-3.633,-3.6369,-3.742,-3.7919,-3.7956,-3.898,-3.9388,-3.9388,-3.9388,-3.9388,-3.9388,-3.9388,-3.9388,-3.9388,-3.9388,-3.9388,-3.9388,-2.5538,-2.5693,-2.5693,-2.5693,-2.5693,-2.5693,-2.5693,-2.5693,-2.5693,-2.5693,-2.5693,-2.5693,-2.5693,-2.5693,-2.5693,-2.5693,-2.5693,-2.5693,-2.5693,-2.5693,-2.5693,-2.5693,-2.5693,-2.5693,-2.5693,-2.5693,-2.5693,-2.5693,-2.5693,-2.5693,-2.5693,-2.5693,-2.5693,-2.5693,-2.5693,-2.5693,-2.5693,-2.5693,-2.5693,-2.5693,-2.5693,-2.5693,-2.5693,-2.5693,-2.5693,-2.5781,-2.6245,-2.721,-2.8366,-2.8808,-2.9772,-3.0822,-3.0822,-3.0822,-3.0956,-3.1689,-3.1368,-3.0956,-3.1733,-3.2513,-3.3124,-3.3124,-3.3124,-3.3124,-3.3124,-3.2905,-3.2641,-3.229,-3.1888,-3.1499,-3.116,-3.0922,-3.0683,-3.0357,-3.0306,-3.0181,-2.9842,-2.9792,-2.9792,-2.9792,-2.9792,-2.993,-3.0269,-3.0306,-3.0432,-3.0758,-3.0972,-3.1097,-3.1097,-3.1599,-3.2164,-3.2729,-3.2754,-3.2855,-3.3124,-3.3513,-3.3713,-3.3713,-3.4774,-3.5278,-3.5278,-3.6344,-3.6813,-3.6852,-3.7942,-3.842,-3.8472,-3.9141,-3.9388,-3.9388,-3.9388,-3.9388,-3.9388,-3.9388,-3.9388,-3.9388,-2.4913,-2.543,-2.5693,-2.5693,-2.5693,-2.5693,-2.5693,-2.5693,-2.5693,-2.5693,-2.5693,-2.5693,-2.5693,-2.5693,-2.5693,-2.5693,-2.5693,-2.5693,-2.5693,-2.5693,-2.5693,-2.5693,-2.5693,-2.5693,-2.5693,-2.5693,-2.5693,-2.5693,-2.5693,-2.5693,-2.5693,-2.5693,-2.5693,-2.5693,-2.5693,-2.5693,-2.5693,-2.5693,-2.5693,-2.5693,-2.5693,-2.5693,-2.5693,-2.5693,-2.5693,-2.5693,-2.5693,-2.6524,-2.7589,-2.7589,-2.8402,-2.9407,-2.9407,-2.9407,-2.9544,-3.0406,-3.0045,-2.959,-3.0406,-3.1279,-3.2021,-3.2426,-3.2513,-3.2612,-3.3025,-3.2797,-3.25,-3.2481,-3.234,-3.2102,-3.1725,-3.1499,-3.1273,-3.0922,-3.0859,-3.0721,-3.0344,-3.0294,-3.0294,-3.0294,-3.0294,-3.0444,-3.0821,-3.0859,-3.0997,-3.1361,-3.1549,-3.1725,-3.1913,-3.2277,-3.2667,-3.3111,-3.3124,-3.3124,-3.3124,-3.3124,-3.3124,-3.3124,-3.3839,-3.4191,-3.4233,-3.5278,-3.5734,-3.5788,-3.6827,-3.7305,-3.7343,-3.8092,-3.8405,-3.8405,-3.8405,-3.862,-3.8907,-3.8907,-3.9104,-3.9388,-2.3692,-2.4766,-2.5693,-2.5693,-2.5693,-2.5693,-2.5693,-2.5693,-2.5693,-2.5693,-2.5693,-2.5693,-2.5693,-2.5693,-2.5693,-2.5693,-2.5693,-2.5693,-2.5693,-2.5693,-2.5693,-2.5693,-2.5693,-2.5693,-2.5693,-2.5693,-2.5693,-2.5693,-2.5693,-2.5693,-2.5693,-2.5693,-2.5693,-2.5693,-2.5693,-2.5693,-2.5693,-2.5693,-2.5693,-2.5693,-2.5693,-2.5693,-2.5693,-2.5693,-2.5693,-2.5693,-2.5693,-2.6524,-2.7589,-2.7589,-2.8366,-2.9361,-2.9361,-2.9361,-2.9361,-2.9361,-2.9361,-2.9361,-2.9361,-2.9407,-2.9681,-3.0899,-3.1178,-3.1545,-3.2797,-3.2096,-3.1545,-3.284,-3.2616,-3.2227,-3.2227,-3.1763,-3.1399,-3.1399,-3.1399,-3.1399,-3.1386,-3.1386,-3.1386,-3.1386,-3.1386,-3.1386,-3.1399,-3.1399,-3.1399,-3.1399,-3.1913,-3.2466,-3.3086,-3.3124,-3.3124,-3.3124,-3.3124,-3.3124,-3.3124,-3.3124,-3.3124,-3.3124,-3.3124,-3.3124,-3.3154,-3.4191,-3.4705,-3.4746,-3.5734,-3.6198,-3.6198,-3.6198,-3.6198,-3.6198,-3.6198,-3.6852,-3.7791,-3.7791,-3.8472,-3.9388,-2.3335,-2.3998,-2.4609,-2.5538,-2.5693,-2.5693,-2.5693,-2.5693,-2.5693,-2.5693,-2.5693,-2.5693,-2.5693,-2.5693,-2.5693,-2.5693,-2.5693,-2.5693,-2.5693,-2.5693,-2.5693,-2.5693,-2.5693,-2.5693,-2.5693,-2.5693,-2.5693,-2.5693,-2.5693,-2.5693,-2.5693,-2.5693,-2.5693,-2.5693,-2.5693,-2.5693,-2.5693,-2.5693,-2.5693,-2.5693,-2.5693,-2.5693,-2.5693,-2.5693,-2.5693,-2.5693,-2.5693,-2.5917,-2.6294,-2.6294,-2.6524,-2.6791,-2.6791,-2.6791,-2.6982,-2.7851,-2.7484,-2.6982,-2.7908,-2.8132,-2.8402,-2.9636,-2.9954,-3.0271,-3.15,-3.1444,-3.1545,-3.284,-3.2943,-3.2817,-3.2817,-3.2679,-3.2441,-3.2039,-3.1964,-3.1838,-3.1449,-3.1386,-3.1386,-3.1386,-3.1386,-3.1537,-3.1926,-3.1964,-3.2139,-3.2541,-3.2729,-3.2893,-3.3111,-3.3124,-3.3124,-3.3124,-3.3124,-3.3124,-3.3124,-3.3124,-3.3124,-3.3124,-3.3124,-3.3124,-3.3124,-3.3441,-3.3598,-3.3641,-3.4692,-3.517,-3.5197,-3.5894,-3.6198,-3.6198,-3.6198,-3.6408,-3.6774,-3.751,-3.7994,-3.8383,-2.176,-2.2517,-2.3176,-2.3998,-2.4559,-2.4922,-2.4922,-2.5382,-2.5693,-2.5693,-2.5693,-2.5693,-2.5693,-2.5693,-2.5693,-2.5693,-2.5693,-2.5693,-2.5693,-2.5693,-2.5693,-2.5693,-2.5693,-2.5693,-2.5693,-2.5693,-2.5693,-2.5693,-2.5693,-2.5693,-2.5693,-2.5693,-2.5693,-2.5693,-2.5693,-2.5693,-2.5693,-2.5693,-2.5693,-2.5693,-2.5693,-2.5693,-2.5693,-2.5693,-2.5693,-2.5693,-2.5693,-2.5693,-2.5693,-2.5693,-2.5693,-2.5693,-2.5693,-2.5693,-2.583,-2.662,-2.6294,-2.5878,-2.662,-2.6849,-2.703,-2.7757,-2.8308,-2.9131,-3.081,-3.081,-3.1,-3.2754,-3.3124,-3.3124,-3.3124,-3.3124,-3.2968,-3.2616,-3.2554,-3.2441,-3.2102,-3.2051,-3.2051,-3.2051,-3.2051,-3.219,-3.2516,-3.2554,-3.2704,-3.3056,-3.3124,-3.3124,-3.3124,-3.3124,-3.3124,-3.3124,-3.3124,-3.3124,-3.3124,-3.3124,-3.3124,-3.3124,-3.3124,-3.3124,-3.3124,-3.3124,-3.3124,-3.3154,-3.3797,-3.4079,-3.4108,-3.4719,-3.4952,-3.4952,-3.4952,-3.5238,-3.5668,-3.6318,-3.6841,-3.7252,-1.9576,-2.0641,-2.155,-2.1702,-2.2818,-2.3692,-2.3692,-2.4815,-2.5693,-2.5693,-2.5693,-2.5693,-2.5693,-2.5693,-2.5693,-2.5693,-2.5693,-2.5693,-2.5693,-2.5693,-2.5693,-2.5693,-2.5693,-2.5693,-2.5693,-2.5693,-2.5693,-2.5693,-2.5693,-2.5693,-2.5693,-2.5693,-2.5693,-2.5693,-2.5693,-2.5693,-2.5693,-2.5693,-2.5693,-2.5693,-2.5693,-2.5693,-2.5693,-2.5693,-2.5693,-2.5693,-2.5693,-2.5693,-2.5693,-2.5693,-2.5693,-2.5693,-2.5693,-2.5693,-2.5693,-2.5693,-2.5693,-2.5693,-2.5693,-2.5693,-2.5693,-2.5693,-2.6572,-2.8038,-3.0361,-3.0045,-2.9909,-3.2295,-3.2754,-3.2754,-3.2754,-3.2754,-3.2754,-3.2754,-3.284,-3.2939,-3.2939,-3.3025,-3.3124,-3.3124,-3.3124,-3.3124,-3.3124,-3.3124,-3.3124,-3.3124,-3.3124,-3.3124,-3.3124,-3.3124,-3.3124,-3.3124,-3.3124,-3.3124,-3.3124,-3.3124,-3.3124,-3.3124,-3.3124,-3.3124,-3.3124,-3.3124,-3.3124,-3.3124,-3.3124,-3.3124,-3.3124,-3.3124,-3.3124,-3.3124,-3.3124,-3.3713,-3.4594,-3.4664,-3.5278,-3.6093,-1.9369,-1.9826,-2.0385,-2.1499,-2.2818,-2.3692,-2.3692,-2.4815,-2.5693,-2.5693,-2.5693,-2.5693,-2.5693,-2.5693,-2.5693,-2.5693,-2.5693,-2.5693,-2.5693,-2.5693,-2.5693,-2.5693,-2.5693,-2.5693,-2.5693,-2.5693,-2.5693,-2.5693,-2.5693,-2.5693,-2.5693,-2.5693,-2.5693,-2.5693,-2.5693,-2.5693,-2.5693,-2.5693,-2.5693,-2.5693,-2.5693,-2.5693,-2.5693,-2.5693,-2.5693,-2.5693,-2.5693,-2.5693,-2.5693,-2.5693,-2.5693,-2.5693,-2.5693,-2.5693,-2.5693,-2.5693,-2.5693,-2.5693,-2.5693,-2.5693,-2.5693,-2.5693,-2.5927,-2.6524,-2.8038,-2.8179,-2.8412,-2.9909,-3.0181,-3.0181,-3.0181,-3.0181,-3.0181,-3.0181,-3.1,-3.1589,-3.1589,-3.2469,-3.3124,-3.3124,-3.3124,-3.3124,-3.3124,-3.3124,-3.3124,-3.3124,-3.3124,-3.3124,-3.3124,-3.3124,-3.3124,-3.3124,-3.3124,-3.3124,-3.3124,-3.3124,-3.3124,-3.3124,-3.3124,-3.3124,-3.3124,-3.3124,-3.3124,-3.3124,-3.3124,-3.3124,-3.3124,-3.3124,-3.3124,-3.3124,-3.3124,-3.324,-3.3556,-3.4387,-3.4815,-3.5129,-1.8506,-1.8655,-1.8864,-1.962,-2.0845,-2.176,-2.176,-2.2926,-2.3998,-2.4658,-2.4766,-2.4971,-2.5635,-2.5693,-2.5693,-2.5693,-2.5693,-2.5693,-2.5693,-2.5693,-2.5693,-2.5693,-2.5693,-2.5693,-2.5693,-2.5693,-2.5693,-2.5693,-2.5693,-2.5693,-2.5693,-2.5693,-2.5693,-2.5693,-2.5693,-2.5693,-2.5693,-2.5693,-2.5693,-2.5693,-2.5693,-2.5693,-2.5693,-2.5693,-2.5693,-2.5693,-2.5693,-2.5693,-2.5693,-2.5693,-2.5693,-2.5693,-2.5693,-2.5693,-2.5693,-2.5693,-2.5693,-2.5693,-2.5693,-2.5693,-2.5693,-2.5693,-2.5693,-2.6014,-2.7315,-2.7589,-2.7955,-2.9131,-2.9407,-2.9407,-2.9407,-2.9407,-2.9407,-2.9407,-2.9954,-3.0361,-3.0361,-3.1412,-3.2196,-3.2196,-3.2742,-3.3124,-3.3124,-3.3124,-3.3124,-3.3124,-3.3124,-3.3124,-3.3124,-3.3124,-3.3124,-3.3124,-3.3124,-3.3124,-3.3124,-3.3124,-3.3124,-3.3124,-3.3124,-3.3124,-3.3124,-3.3124,-3.3124,-3.3124,-3.3124,-3.3124,-3.3124,-3.3124,-3.3124,-3.3124,-3.3124,-3.3124,-3.3154,-3.3713,-3.3953,-3.4024,-1.7582,-1.7582,-1.7582,-1.7582,-1.8708,-1.9576,-1.9576,-2.0794,-2.2106,-2.3226,-2.3384,-2.389,-2.5226,-2.5586,-2.5693,-2.5693,-2.5693,-2.5693,-2.5693,-2.5693,-2.5693,-2.5693,-2.5693,-2.5693,-2.5693,-2.5693,-2.5693,-2.5693,-2.5693,-2.5693,-2.5693,-2.5693,-2.5693,-2.5693,-2.5693,-2.5693,-2.5693,-2.5693,-2.5693,-2.5693,-2.5693,-2.5693,-2.5693,-2.5693,-2.5693,-2.5693,-2.5693,-2.5693,-2.5693,-2.5693,-2.5693,-2.5693,-2.5693,-2.5693,-2.5693,-2.5693,-2.5693,-2.5693,-2.5693,-2.5693,-2.5693,-2.5693,-2.5693,-2.5965,-2.703,-2.7268,-2.7542,-2.8588,-2.8762,-2.8762,-2.8762,-2.8762,-2.8762,-2.8762,-2.8947,-2.9085,-2.9085,-3.0316,-3.1223,-3.1223,-3.2326,-3.3124,-3.3124,-3.3124,-3.3124,-3.3124,-3.3124,-3.3124,-3.3124,-3.3124,-3.3124,-3.3124,-3.3124,-3.3124,-3.3124,-3.3124,-3.3124,-3.3124,-3.3124,-3.3124,-3.3124,-3.3124,-3.3124,-3.3124,-3.3124,-3.3124,-3.3124,-3.3124,-3.3124,-3.3124,-3.3124,-3.3124,-3.3124,-3.3124,-3.3124,-3.3124,-1.7582,-1.7582,-1.7582,-1.7582,-1.8708,-1.9576,-1.9576,-2.0794,-2.1752,-2.1954,-2.1954,-2.2466,-2.384,-2.502,-2.5693,-2.5693,-2.5693,-2.5693,-2.5693,-2.5693,-2.5693,-2.5693,-2.5693,-2.5693,-2.5693,-2.5693,-2.5693,-2.5693,-2.5693,-2.5693,-2.5693,-2.5693,-2.5693,-2.5693,-2.5693,-2.5693,-2.5693,-2.5693,-2.5693,-2.5693,-2.5693,-2.5693,-2.5693,-2.5693,-2.5693,-2.5693,-2.5693,-2.5693,-2.5693,-2.5693,-2.5693,-2.5693,-2.5693,-2.5693,-2.5693,-2.5693,-2.5693,-2.5693,-2.5693,-2.5693,-2.5693,-2.5693,-2.5693,-2.5732,-2.5927,-2.5965,-2.6014,-2.6149,-2.6197,-2.6197,-2.6197,-2.6197,-2.6197,-2.6197,-2.7125,-2.7861,-2.7861,-2.9761,-3.1223,-3.1223,-3.2326,-3.3124,-3.3124,-3.3124,-3.3124,-3.3124,-3.3124,-3.3124,-3.3124,-3.3124,-3.3124,-3.3124,-3.3124,-3.3124,-3.3124,-3.3124,-3.3124,-3.3124,-3.3124,-3.3124,-3.3124,-3.3124,-3.3124,-3.3124,-3.3124,-3.3124,-3.3124,-3.3124,-3.3124,-3.3124,-3.3124,-3.3124,-3.3124,-3.3124,-3.3124,-3.3124,-1.7582,-1.7582,-1.7582,-1.7582,-1.8094,-1.8506,-1.8506,-1.9013,-1.9672,-2.0436,-2.0538,-2.1041,-2.2408,-2.3791,-2.4559,-2.4559,-2.5274,-2.5693,-2.5693,-2.5693,-2.5693,-2.5693,-2.5693,-2.5693,-2.5693,-2.5693,-2.5693,-2.5693,-2.5693,-2.5693,-2.5693,-2.5693,-2.5693,-2.5693,-2.5693,-2.5693,-2.5693,-2.5693,-2.5693,-2.5693,-2.5693,-2.5693,-2.5693,-2.5693,-2.5693,-2.5693,-2.5693,-2.5693,-2.5693,-2.5693,-2.5693,-2.5693,-2.5693,-2.5693,-2.5693,-2.5693,-2.5693,-2.5693,-2.5693,-2.5693,-2.5693,-2.5693,-2.5693,-2.5693,-2.5693,-2.5693,-2.5693,-2.5693,-2.5693,-2.5693,-2.5693,-2.5693,-2.5693,-2.5693,-2.6149,-2.6524,-2.6524,-2.8085,-2.9453,-3.0124,-3.0687,-3.1057,-3.1057,-3.1057,-3.1057,-3.1057,-3.1645,-3.2052,-3.2052,-3.2698,-3.3124,-3.3124,-3.3124,-3.3124,-3.3124,-3.3124,-3.3124,-3.3124,-3.3124,-3.3124,-3.3124,-3.3124,-3.3124,-3.3124,-3.3124,-3.3124,-3.3124,-3.3124,-3.3124,-3.3124,-3.3124,-3.3124,-3.3124,-3.3124,-3.3124,-3.3124]}]]